GFSSGP_sfc_wetblb_054.txt.gz
Wetbulb
60.77 62.18 62.63 58.14 49.41 48.93 46.62 46.23 49.80 48.58 50.71 55.72 59.72 58.29 56.34 58.43 55.26 52.63 67.61 68.28 69.87 70.52 71.44 71.47 71.20 71.43 72.83 72.56 72.47 72.39 72.76 72.65 72.43 72.31 72.36 72.23 72.23 72.03 71.47 71.01 70.67 70.69 70.68 69.52 68.46 68.01 67.72 67.86 67.57
61.23 59.81 58.95 55.37 46.84 43.85 46.05 48.74 47.66 50.40 52.73 57.93 59.32 58.36 57.86 56.07 61.90 63.94 66.00 68.02 69.28 69.76 71.24 70.75 70.97 70.85 72.44 72.31 72.25 72.33 72.66 72.50 72.16 72.20 72.20 71.84 71.40 71.11 70.57 69.98 69.57 69.63 69.73 68.48 68.29 67.96 67.16 66.94 67.54
58.93 57.84 53.66 50.54 47.29 44.35 46.00 48.94 50.22 51.28 53.59 56.53 56.32 59.71 58.99 57.94 62.02 64.70 66.71 67.58 68.00 69.87 70.54 70.14 70.24 70.99 71.22 71.95 72.02 71.90 71.82 71.58 71.38 71.58 71.69 71.28 70.96 70.77 70.18 69.23 68.88 69.34 69.16 67.65 67.68 67.77 67.14 66.72 66.83
56.55 55.65 54.05 47.26 45.29 47.61 47.87 50.27 51.10 50.76 54.67 56.96 56.99 54.79 60.06 63.41 62.80 66.10 66.88 67.57 66.90 69.57 70.88 70.04 69.37 70.14 70.67 71.39 71.52 71.48 71.13 70.76 70.52 70.49 70.80 70.98 70.94 70.59 69.91 69.01 69.13 69.61 69.39 68.07 67.33 67.07 66.52 66.17 65.91
58.13 54.56 47.21 46.28 46.25 48.49 50.68 51.43 51.68 50.55 53.39 55.23 57.10 54.55 56.75 63.52 65.56 66.50 66.98 67.06 67.86 66.30 70.76 70.82 68.59 69.69 69.73 69.74 71.25 70.97 70.39 70.05 70.00 69.95 70.01 70.17 70.24 70.02 69.49 68.86 69.13 69.08 69.03 67.47 66.56 66.29 65.57 65.55 65.32
52.06 53.00 45.05 43.31 46.21 49.14 51.02 52.39 51.87 52.41 54.03 55.55 55.26 55.73 57.39 64.41 64.33 65.60 65.98 67.47 69.47 66.83 70.41 70.58 69.44 68.79 68.54 69.12 69.18 69.56 69.27 68.99 69.39 69.31 69.74 69.97 69.55 69.25 69.02 68.95 68.66 68.29 67.99 67.22 66.85 66.28 65.48 64.88 64.39
50.79 48.71 45.14 45.50 46.20 47.74 49.36 54.30 52.73 52.58 53.92 54.83 57.67 54.12 58.29 61.00 64.30 65.94 65.62 67.31 68.39 66.82 66.14 69.82 69.59 68.98 67.75 67.30 68.17 68.18 68.38 68.37 68.51 68.85 68.95 68.91 68.40 68.36 68.29 67.96 67.91 68.18 67.80 66.93 66.48 65.92 65.21 64.67 63.86
52.52 49.82 45.33 45.64 46.02 46.84 50.11 52.60 54.52 54.27 52.77 59.47 58.95 54.06 55.46 61.29 63.75 65.32 65.93 66.38 67.25 67.76 64.65 66.49 66.74 68.21 69.15 68.45 66.10 67.27 67.40 67.40 67.64 68.11 67.72 67.51 67.35 67.05 67.20 67.19 68.14 68.09 67.11 66.42 66.01 65.26 64.73 63.85 63.54
53.22 46.43 44.20 44.99 46.64 47.87 50.95 50.69 54.81 57.76 55.34 57.88 59.37 59.01 61.14 62.15 63.33 63.57 64.32 64.90 65.70 65.12 66.01 65.67 63.61 64.22 66.39 66.29 65.77 66.81 67.19 66.69 66.72 66.87 66.42 65.92 66.89 66.33 66.14 65.89 67.17 66.92 65.68 65.27 65.16 64.66 63.85 63.42 63.11
49.70 46.55 46.30 48.56 49.98 49.18 50.99 50.95 51.80 53.28 54.02 55.67 57.68 60.81 61.36 61.29 61.76 61.59 61.81 62.43 63.07 62.69 63.89 65.68 62.44 65.10 65.48 65.12 63.54 64.38 65.52 67.32 65.88 64.74 65.09 66.63 66.72 65.62 65.22 66.68 66.27 65.71 65.00 64.66 64.56 63.95 63.01 62.36 62.05
49.54 46.48 48.94 49.02 50.42 51.59 51.06 51.13 52.59 52.89 51.76 55.40 56.01 58.42 60.22 60.38 60.65 61.28 61.97 62.04 62.98 63.28 62.56 65.44 64.15 64.68 63.64 62.06 62.00 63.09 64.09 63.47 63.29 63.23 63.20 65.55 65.48 64.48 66.26 67.17 66.50 66.22 64.23 63.65 63.61 62.70 62.61 62.32 61.96
46.40 49.01 49.09 49.72 50.84 51.37 50.42 52.71 52.93 54.43 54.91 57.24 58.30 59.19 60.02 59.58 60.21 60.48 61.01 61.51 61.46 61.68 62.54 63.49 64.72 64.29 63.78 62.53 62.57 62.73 63.59 63.14 62.79 62.56 63.03 65.57 64.25 64.64 64.56 64.93 65.42 65.16 64.52 63.93 63.37 62.60 63.20 62.73 62.16
47.60 48.88 49.93 50.79 50.89 51.53 52.03 52.08 52.89 54.31 57.13 58.46 59.27 59.27 59.19 59.80 59.84 60.69 60.68 62.12 61.58 60.04 61.72 62.82 62.41 62.07 61.48 60.52 60.91 62.12 62.60 62.04 62.61 62.36 63.77 63.58 63.08 63.59 63.39 64.20 64.88 64.88 65.11 64.44 63.39 63.19 62.52 61.78 61.44
49.56 49.70 49.88 50.84 51.16 51.56 50.71 51.44 54.79 54.20 58.86 58.55 58.96 58.30 58.93 58.12 58.73 59.46 59.15 59.05 61.14 60.09 59.91 59.96 61.28 61.54 61.54 59.62 60.52 61.55 61.47 61.67 62.22 62.20 63.27 62.90 62.77 62.80 61.12 61.75 61.94 62.84 64.32 64.22 63.03 62.32 61.47 60.84 60.95
49.53 47.09 48.94 49.99 50.63 50.03 52.93 49.38 52.54 55.81 58.80 57.93 58.45 58.40 58.24 59.05 59.50 59.06 59.28 60.08 59.46 61.14 60.25 60.21 59.61 60.19 59.44 59.80 60.25 60.59 61.18 61.37 61.59 62.08 63.34 62.55 61.65 61.61 61.31 60.03 60.55 61.34 62.14 62.43 61.84 61.90 61.19 60.45 60.38
46.90 47.82 44.26 48.87 49.59 50.47 52.65 45.23 50.86 56.29 57.57 56.93 58.25 57.92 57.86 58.50 58.94 59.56 59.70 58.78 58.59 59.79 59.15 59.88 60.31 60.14 59.75 59.38 59.89 59.53 60.53 60.92 61.30 62.14 62.08 60.99 59.88 60.87 60.87 59.95 60.31 60.87 61.05 60.65 60.56 60.74 59.93 59.64 59.39
46.23 42.51 43.97 45.91 49.42 49.50 51.34 46.95 51.70 56.08 56.50 56.08 57.71 58.23 58.00 58.43 58.84 59.64 59.63 59.94 58.56 58.96 59.44 59.02 59.16 59.39 59.65 60.06 59.91 59.57 60.00 59.91 60.54 62.07 60.82 60.81 60.02 59.89 60.48 59.69 60.41 61.62 60.69 60.36 59.73 59.17 59.36 58.40 58.52
42.21 42.51 44.38 43.90 47.19 48.59 48.31 48.58 50.94 53.90 55.43 55.70 57.35 58.40 58.00 58.09 58.20 59.29 58.54 59.52 59.38 59.66 59.52 59.48 59.16 59.58 59.74 59.70 60.13 59.52 58.79 58.92 59.82 60.14 61.60 61.68 60.71 60.77 60.78 59.84 60.96 61.96 60.80 60.57 59.72 58.81 58.86 58.15 57.69
45.20 43.91 43.33 44.97 46.91 45.89 46.37 47.33 49.62 51.86 54.19 55.38 56.85 57.98 58.05 58.12 59.81 59.90 59.63 58.03 58.72 59.41 58.85 58.51 57.74 58.29 58.78 57.95 58.36 58.19 57.17 57.30 58.38 58.69 61.00 62.48 60.66 60.92 61.28 60.37 60.94 61.59 61.16 61.18 60.94 59.68 58.13 57.22 58.07
44.13 42.41 42.88 45.04 46.37 45.77 45.71 46.22 49.87 51.37 53.49 56.01 56.69 57.59 58.46 58.58 58.60 58.83 59.22 59.13 57.35 59.23 58.57 58.47 58.21 58.72 58.31 58.16 58.48 58.33 57.82 57.07 57.90 58.48 60.18 61.88 62.31 61.14 61.34 61.22 60.59 60.84 61.34 61.83 61.29 60.50 58.40 58.75 57.90
43.63 42.13 42.81 42.87 44.85 46.90 45.81 44.65 47.50 50.97 53.20 55.05 56.79 58.20 59.31 59.20 58.49 58.58 58.52 59.15 59.55 59.35 58.62 58.12 58.34 57.95 58.37 58.24 58.76 58.02 57.81 57.39 56.46 56.99 59.73 61.49 63.03 61.98 61.80 61.85 61.62 61.15 61.26 60.81 61.47 61.31 60.29 58.68 58.76
40.97 45.64 44.53 43.80 42.44 38.97 46.14 38.77 46.07 48.93 49.74 52.03 54.45 57.46 58.44 59.50 59.77 59.45 58.94 59.16 59.39 60.12 60.67 59.49 58.62 58.15 58.03 58.33 57.66 56.45 54.97 54.81 56.43 56.91 59.68 61.28 62.51 62.11 61.72 61.92 62.09 62.48 61.80 61.16 61.60 61.73 61.27 61.16 58.91
42.97 46.03 44.86 44.57 42.95 42.21 42.31 40.11 44.06 47.83 47.17 49.24 51.65 55.08 58.28 59.79 60.31 59.60 59.54 60.24 60.45 60.48 60.38 59.46 59.09 58.68 57.93 58.21 57.75 56.20 55.80 55.76 56.52 56.65 57.72 60.21 61.91 62.22 61.62 62.09 62.79 63.13 63.47 63.04 63.05 62.61 62.15 62.00 61.80
46.44 44.52 44.45 44.37 42.57 36.41 41.05 40.90 41.46 45.17 47.74 49.37 51.26 53.44 56.53 58.74 60.18 60.61 60.98 60.90 60.75 60.89 60.66 59.29 58.23 58.28 58.27 57.69 57.89 56.61 56.59 56.61 56.93 55.69 55.11 56.11 57.69 60.87 62.03 62.10 63.27 63.66 63.28 63.39 63.73 63.88 63.12 62.48 61.83
45.28 42.09 36.84 35.13 35.38 34.26 42.82 40.86 42.99 48.02 49.90 50.87 51.17 52.60 55.86 58.35 59.47 59.95 60.07 59.90 60.12 60.09 59.66 59.84 58.26 57.10 58.48 57.99 58.34 58.94 58.18 58.81 58.81 57.36 56.58 56.96 56.07 56.74 57.96 60.68 61.39 61.29 61.98 62.86 63.22 63.19 63.19 62.90 61.98
42.64 42.68 37.62 30.51 32.95 37.13 42.55 38.32 43.80 49.76 51.49 52.64 52.73 53.64 54.81 57.46 59.43 59.69 60.58 60.49 60.38 60.04 59.61 58.61 58.96 59.15 59.11 58.81 58.88 60.62 60.34 60.86 59.73 60.12 59.47 59.11 58.76 59.44 59.29 60.28 60.78 60.92 61.21 61.40 61.90 61.62 61.99 62.44 62.45
42.93 39.97 44.93 39.44 39.83 38.07 41.15 43.45 47.77 49.70 49.90 51.35 52.27 53.32 54.41 56.61 58.53 59.31 60.37 60.98 61.06 60.46 59.57 57.91 58.58 59.42 60.01 59.97 60.57 60.48 61.02 61.18 61.04 61.18 61.48 60.87 61.05 60.74 61.64 60.88 60.34 60.24 60.43 60.88 61.16 61.26 60.70 61.75 62.62
45.48 47.20 38.80 40.30 32.01 31.06 38.02 40.15 42.02 45.41 47.63 50.10 50.87 52.33 53.44 55.32 56.52 58.30 59.79 60.73 61.18 61.46 60.51 58.83 59.08 59.17 60.25 60.60 61.00 60.94 61.46 61.67 61.84 61.97 61.37 61.42 61.76 61.77 61.29 60.90 60.70 61.09 61.21 61.34 60.87 61.36 61.34 61.14 62.10
42.85 41.95 42.53 43.19 41.06 34.76 33.73 39.31 47.65 47.72 48.99 49.72 51.72 52.35 54.13 55.42 56.68 58.29 59.54 60.90 61.24 61.69 61.08 59.95 59.48 59.47 59.58 60.24 60.61 60.70 61.35 61.61 61.68 61.92 61.72 61.53 61.72 61.58 61.01 61.29 61.11 60.72 61.19 61.29 61.22 61.41 61.43 61.02 61.34
46.04 43.37 43.44 37.83 36.78 39.63 38.98 40.13 49.26 48.55 48.98 50.21 51.31 52.40 54.03 55.38 56.28 57.47 59.92 60.74 60.63 60.90 61.03 60.83 60.19 59.92 59.94 60.33 60.20 60.84 60.79 60.82 60.79 61.23 61.46 62.17 61.63 61.36 61.41 61.36 60.99 60.41 61.24 61.39 60.98 60.20 60.06 60.02 59.81

GFSSGP_sfc_wetblb_057.txt.gz
Wetbulb
60.97 61.54 62.90 59.01 50.38 49.63 47.43 48.17 51.06 49.31 50.55 55.30 57.36 55.80 55.45 56.78 53.76 52.47 68.73 70.12 71.25 71.16 72.80 71.46 71.46 72.19 72.93 72.66 72.51 72.48 72.73 72.84 72.53 72.34 72.27 72.41 72.14 72.00 71.83 71.26 70.85 71.19 70.88 69.62 69.21 69.63 69.42 68.94 68.22
61.11 60.48 60.04 55.84 47.06 45.86 47.83 50.56 48.68 51.03 53.23 56.45 56.65 56.78 55.40 55.12 61.34 62.85 67.02 69.89 70.78 71.41 72.06 71.56 71.18 71.04 72.49 72.28 72.08 72.21 72.63 72.63 72.41 72.19 72.29 72.29 71.70 71.45 71.25 70.69 70.50 70.65 70.29 68.57 68.34 68.99 68.57 67.29 67.61
62.01 59.45 54.34 50.86 48.35 45.61 46.98 50.51 51.09 52.13 53.81 54.56 54.72 58.97 57.62 56.25 62.83 64.97 68.75 69.35 70.28 71.30 71.69 71.58 70.72 71.12 71.93 72.02 71.98 71.79 72.02 71.68 71.98 71.83 72.31 71.94 71.40 71.38 70.85 69.84 69.94 70.01 69.61 68.04 67.66 67.92 67.39 67.11 67.21
57.86 55.87 54.23 47.48 46.14 49.60 49.24 51.26 52.09 51.64 54.00 55.78 56.21 54.31 60.16 64.36 63.95 67.37 68.59 68.94 70.12 70.96 71.13 69.04 69.83 70.62 71.65 71.93 71.90 71.79 71.36 70.70 70.52 70.73 71.54 71.60 71.23 70.77 69.99 69.13 69.18 69.65 69.29 68.24 68.05 67.14 66.58 66.48 66.34
57.54 54.97 49.22 47.79 47.74 50.40 51.89 52.27 52.69 51.30 52.14 54.60 56.30 54.75 56.63 65.08 66.84 67.60 67.95 68.48 69.10 70.89 71.43 70.23 69.12 69.97 70.57 71.45 71.43 70.79 70.49 70.18 70.19 70.69 70.53 70.64 70.25 69.89 69.08 68.62 68.57 68.86 68.57 68.33 67.26 66.51 65.84 65.79 65.70
52.64 52.83 46.80 45.46 47.53 50.31 51.99 53.22 52.67 52.01 53.17 54.67 55.48 55.43 57.13 66.59 65.27 67.55 67.51 68.40 69.01 70.23 71.76 70.77 69.54 69.13 69.19 69.73 68.77 68.87 68.92 69.28 69.66 69.86 69.88 69.99 69.38 68.69 68.58 68.81 68.67 68.13 67.61 67.49 66.92 66.18 65.54 65.28 65.15
51.45 50.48 47.11 47.65 47.52 48.81 51.12 54.46 52.46 52.79 53.07 53.88 59.09 53.45 57.93 62.71 65.56 67.03 67.46 68.22 69.31 70.11 70.77 71.19 70.92 69.56 67.67 67.29 67.28 67.37 68.57 68.99 69.04 68.90 68.98 68.76 68.18 68.08 68.36 68.57 68.34 67.60 67.03 66.90 66.16 65.97 65.39 64.77 64.33
53.60 51.05 47.48 48.36 46.52 47.70 52.70 53.16 54.35 53.40 52.91 59.96 58.72 52.80 54.68 64.13 65.34 66.28 66.85 67.13 67.50 68.87 68.69 69.47 69.67 69.55 69.00 69.26 66.25 66.34 66.95 67.53 68.37 68.45 68.02 67.87 67.71 67.94 67.83 67.56 67.75 67.16 66.78 66.49 65.89 65.47 65.08 64.09 63.53
55.05 47.96 45.85 47.29 47.47 49.12 52.84 50.91 54.35 56.53 54.67 57.26 59.26 59.45 62.00 64.28 64.69 64.38 64.89 64.62 66.35 67.73 67.36 65.78 68.02 68.30 68.35 68.86 66.80 66.30 66.90 66.91 67.39 68.23 66.91 66.24 67.85 67.98 67.27 66.63 67.12 66.54 65.53 65.68 65.37 64.86 64.12 63.33 62.89
50.91 47.03 47.49 51.25 50.65 50.44 51.41 51.98 52.50 52.54 53.56 54.81 56.82 60.68 63.26 63.29 62.89 62.22 61.74 61.56 64.11 65.43 66.22 66.02 65.16 66.71 67.16 66.85 64.89 66.03 65.71 65.92 66.53 68.38 68.04 65.64 65.74 66.92 66.43 66.39 66.07 65.58 65.01 64.74 64.45 63.93 63.03 61.99 60.84
50.96 46.89 50.87 50.83 51.26 52.29 51.48 51.64 53.66 51.89 51.16 54.74 55.29 57.57 61.85 62.30 61.40 61.80 61.59 62.65 63.53 64.62 65.83 64.19 63.94 64.30 65.90 64.31 65.35 63.97 68.08 67.01 65.63 64.42 63.09 63.07 65.33 65.95 66.40 66.53 66.51 65.14 63.89 62.91 62.50 62.00 61.04 61.11 60.51
48.41 50.74 51.01 51.25 51.59 51.32 50.95 53.12 52.13 53.20 53.95 58.05 58.62 59.83 61.15 60.88 61.00 61.42 61.75 62.45 63.21 64.08 64.22 64.59 63.16 63.79 64.63 64.74 64.79 64.04 63.05 63.07 62.85 62.59 62.68 62.99 63.64 64.83 65.96 64.98 65.18 64.01 62.84 62.45 61.15 61.22 63.36 62.18 61.75
48.79 50.03 51.10 51.35 51.12 51.48 52.80 51.61 51.72 52.62 55.75 59.26 59.45 60.25 60.17 59.81 60.77 62.16 62.77 62.70 62.60 62.34 63.82 63.04 63.47 64.52 63.77 63.00 63.96 63.21 63.39 62.53 62.31 61.49 62.12 62.72 63.72 63.76 65.30 64.61 64.66 63.98 64.50 62.93 61.99 62.46 62.18 61.90 62.01
50.58 50.84 50.49 51.48 51.17 51.46 50.69 51.28 52.24 53.95 56.65 58.17 59.31 60.12 60.22 59.93 60.30 61.54 62.10 62.23 61.80 61.41 60.48 61.76 61.96 62.45 62.46 62.22 62.07 62.25 62.82 62.09 61.55 60.29 61.21 62.24 64.19 63.40 64.29 64.55 64.93 64.73 64.88 63.70 62.72 62.66 61.86 61.21 61.71
50.94 48.17 49.79 50.22 51.17 50.40 51.90 48.77 49.73 53.85 56.38 57.21 59.02 60.19 60.43 60.46 60.93 60.69 61.73 62.24 62.42 62.34 62.10 60.45 61.29 61.99 60.49 60.57 61.20 61.85 61.96 62.08 60.50 60.34 61.46 63.00 63.43 63.92 65.59 64.71 64.68 64.88 65.14 64.31 63.20 62.41 61.78 60.50 61.19
48.22 48.38 44.58 49.79 50.76 51.22 50.62 45.45 51.15 55.35 56.28 55.98 58.39 59.46 59.88 60.08 60.40 61.12 61.83 62.58 62.65 61.52 61.18 61.28 60.62 60.26 60.00 60.39 60.99 61.16 61.13 61.26 60.36 60.86 62.37 62.64 62.90 63.56 64.36 62.84 62.76 63.09 63.83 62.78 61.68 60.95 60.05 59.88 59.94
47.86 43.23 44.94 47.34 51.78 50.45 49.64 47.49 51.47 55.95 55.77 54.86 57.22 59.02 59.53 60.19 60.57 61.14 61.50 62.39 62.41 61.20 60.02 60.57 61.24 60.54 60.15 60.41 59.96 60.48 60.40 60.28 60.79 61.09 62.14 62.68 61.96 61.65 61.99 60.51 61.94 62.61 62.17 61.81 60.93 60.70 60.41 59.08 59.22
43.60 44.54 46.15 46.25 49.95 49.26 47.89 48.55 51.38 54.50 54.71 55.28 56.68 58.49 59.70 59.71 60.21 61.22 61.40 61.75 62.71 61.75 60.27 60.74 60.42 59.36 59.75 59.66 59.31 59.53 59.25 59.99 60.53 60.44 61.06 60.95 60.37 60.71 61.35 61.17 62.93 61.41 60.32 59.96 59.99 60.94 60.48 59.89 59.14
47.01 46.75 45.80 48.14 49.60 47.66 47.48 47.71 50.43 52.65 53.12 53.74 56.40 57.54 59.10 59.62 61.51 61.67 61.69 61.42 61.98 61.55 60.64 60.15 59.18 59.46 59.50 58.59 57.53 57.65 57.39 58.13 58.91 59.73 60.49 60.88 60.48 60.63 60.97 59.97 61.86 61.40 60.97 60.65 62.10 59.66 58.96 58.25 59.49
45.71 45.03 45.06 47.85 48.01 46.94 46.62 46.35 49.54 51.29 52.65 53.66 55.57 57.24 58.47 60.00 60.55 60.78 61.28 60.73 61.51 60.42 60.33 59.07 58.70 58.79 59.05 59.35 59.48 58.57 57.71 58.01 58.41 58.63 61.25 61.75 62.27 60.49 60.78 60.95 60.13 60.65 61.07 62.83 62.27 61.54 58.48 57.82 58.57
45.49 44.37 44.81 44.76 47.39 48.18 46.20 44.90 47.52 50.62 52.55 53.57 55.50 56.62 58.00 59.71 59.92 60.56 60.42 60.80 60.61 60.81 60.01 58.62 58.20 58.89 59.56 59.44 60.49 59.31 59.15 57.37 56.38 56.18 57.64 60.32 62.15 60.68 60.52 61.31 61.38 61.21 62.84 62.53 62.88 62.23 61.17 57.94 59.11
43.14 47.59 46.35 45.27 44.44 41.01 47.71 39.09 46.15 49.06 50.11 52.25 53.78 55.10 56.67 58.90 60.78 61.14 60.80 61.11 60.60 61.01 61.25 60.09 59.01 58.61 59.82 59.43 58.28 57.85 56.63 55.31 55.91 56.08 56.60 59.60 61.80 61.50 59.88 61.68 63.33 63.45 62.53 63.23 63.44 62.95 62.35 61.98 59.11
44.79 48.13 46.93 45.64 44.24 43.75 43.73 40.97 45.08 49.21 48.24 50.38 52.60 54.33 56.65 58.74 60.76 61.10 61.26 61.62 62.14 62.09 61.57 60.98 58.82 58.76 58.91 59.35 58.37 57.82 57.45 57.91 56.52 56.06 56.25 59.51 61.22 60.08 60.77 62.64 63.74 63.58 63.31 63.63 63.59 63.37 63.12 62.49 61.31
48.20 45.98 46.11 46.01 44.54 37.97 42.57 42.05 42.88 46.41 48.37 50.37 52.26 53.32 55.15 58.27 60.08 61.46 62.32 62.62 62.31 62.35 62.09 60.44 59.90 58.03 58.39 59.04 58.64 58.30 57.13 56.39 55.88 55.46 55.32 58.89 60.30 61.44 61.09 62.51 63.04 63.55 64.01 63.93 63.47 63.69 63.67 63.13 62.62
46.31 43.68 37.63 36.20 37.01 35.68 44.34 41.95 43.68 48.74 50.64 51.23 51.38 52.75 55.29 57.36 59.04 60.99 61.38 61.44 62.06 61.70 61.66 60.69 59.11 58.81 58.28 58.02 57.77 58.72 59.12 57.16 57.62 57.43 56.67 55.48 57.52 59.00 61.16 62.34 62.07 63.05 63.55 63.57 61.83 62.55 63.48 63.46 62.85
43.69 43.45 37.91 31.58 34.30 38.37 44.60 39.65 44.13 50.90 52.04 52.36 53.43 53.94 54.67 56.56 59.19 60.65 61.68 62.10 61.94 62.14 61.69 61.27 59.93 59.32 58.92 58.41 58.07 59.64 59.85 58.97 59.65 58.79 59.28 58.77 57.36 58.89 60.77 62.64 63.27 63.61 63.95 63.92 63.24 63.12 62.81 61.82 62.15
43.68 40.67 45.06 40.29 41.78 39.22 42.24 45.10 49.45 50.57 50.34 51.39 51.81 52.84 54.09 55.95 58.68 59.78 61.33 62.40 62.65 62.43 62.02 61.68 60.65 60.34 60.29 58.94 58.58 58.38 58.66 58.75 59.67 60.68 61.16 60.58 60.27 60.44 61.26 62.23 62.84 63.18 63.29 63.33 63.19 62.79 62.56 62.58 63.03
44.59 47.09 39.60 41.33 32.81 31.12 39.54 41.66 42.80 46.72 48.27 50.78 51.58 52.85 53.71 55.37 57.01 58.93 60.54 61.89 62.99 63.24 63.16 62.53 61.71 60.65 61.02 61.04 60.24 59.66 59.34 59.41 61.52 61.23 61.78 61.75 61.40 61.46 61.41 61.31 61.64 61.61 62.33 62.40 62.50 61.85 62.24 61.59 61.92
41.68 41.32 43.88 43.60 41.33 34.85 34.28 39.79 48.95 48.84 49.57 49.86 52.38 53.53 54.84 55.52 56.22 57.79 59.51 61.25 62.89 63.70 63.36 62.65 61.62 61.01 60.95 61.94 61.79 61.23 61.43 61.19 61.38 61.76 62.69 62.77 63.13 62.13 61.57 61.59 61.50 61.18 61.33 61.68 61.44 61.04 61.10 60.86 61.05
45.73 43.45 43.88 38.64 37.45 41.14 40.84 39.62 50.72 50.43 50.15 50.55 51.31 53.01 54.51 55.33 56.12 57.18 59.14 60.93 62.05 62.75 63.15 62.72 61.73 61.25 61.25 62.05 62.78 62.94 63.46 63.23 62.13 62.34 63.60 63.83 63.23 63.38 62.74 61.87 61.78 61.48 61.23 61.61 61.42 60.73 60.60 60.55 60.14

GFSSGP_sfc_wetblb_060.txt.gz
Wetbulb
60.80 58.94 59.48 58.97 48.43 48.42 45.22 47.68 51.13 49.08 49.66 54.21 56.28 54.69 53.50 54.29 52.55 52.04 68.49 70.07 71.22 71.22 71.49 71.66 72.54 73.02 73.08 72.83 72.54 72.53 72.87 72.77 72.60 72.77 72.59 72.40 72.04 71.72 71.72 71.50 71.17 71.27 71.56 70.84 70.62 70.03 69.89 69.74 69.46
58.83 58.32 58.36 54.17 46.28 43.18 45.15 50.52 48.84 50.48 53.01 55.43 55.16 54.99 53.71 53.29 61.46 62.74 67.07 69.75 70.45 70.81 71.22 71.64 71.41 72.71 72.79 72.45 72.20 72.21 72.84 72.70 72.41 72.50 72.39 72.16 71.92 71.91 71.45 70.94 70.53 70.78 70.87 70.27 70.17 69.79 68.94 68.76 68.98
59.03 60.25 52.64 49.88 46.61 43.38 45.37 50.31 50.62 52.24 53.51 53.02 53.07 56.51 57.12 55.34 62.66 63.90 68.49 69.69 69.89 70.57 72.06 71.25 70.62 71.26 72.45 72.03 72.00 71.59 71.60 71.70 71.59 71.98 72.43 72.04 72.08 71.50 70.71 70.42 70.06 70.36 70.07 69.56 69.68 68.84 67.91 67.62 67.36
57.93 56.25 52.67 45.70 44.11 48.29 48.89 50.97 52.05 51.50 52.85 54.63 55.11 53.07 59.24 63.55 62.96 67.20 68.72 68.69 70.09 70.72 71.90 69.15 69.90 70.30 71.10 71.83 71.49 71.46 71.09 70.92 70.85 71.25 71.52 71.83 71.59 71.18 70.46 69.78 69.65 69.76 69.38 68.73 68.50 67.67 66.99 67.01 66.71
56.33 52.58 46.34 45.68 46.58 49.26 51.46 52.38 52.24 51.06 51.64 52.60 54.95 53.29 55.70 64.26 67.23 67.33 68.03 68.40 70.21 70.70 71.75 69.94 69.09 70.18 71.16 71.10 71.05 71.08 70.63 70.58 70.60 70.83 70.86 70.74 70.91 70.47 69.85 69.45 69.18 69.31 69.01 68.36 67.38 66.69 66.36 66.38 66.19
50.71 51.19 44.31 43.40 46.17 49.69 51.74 53.25 52.25 51.66 52.32 52.63 53.39 54.30 56.63 66.02 65.48 67.13 68.10 67.92 71.32 71.13 71.77 71.19 69.48 69.71 69.34 70.22 69.86 69.10 68.82 69.49 69.87 70.24 70.26 70.38 69.67 69.09 68.95 68.76 68.50 68.56 68.15 67.66 66.96 66.55 66.12 65.87 65.25
49.93 47.96 45.03 45.61 46.58 48.43 50.86 54.17 51.83 51.56 51.85 52.80 57.91 53.04 56.59 63.04 65.69 67.03 67.84 67.78 69.23 70.53 70.37 71.16 70.51 69.81 67.53 67.23 66.92 66.29 65.03 62.98 68.83 69.41 69.26 68.98 68.27 68.16 68.45 68.68 68.29 68.11 67.48 66.93 66.26 66.02 65.54 65.23 64.04
51.33 49.34 45.74 46.85 46.28 46.99 51.48 53.19 53.98 52.50 51.66 58.80 58.13 51.17 53.44 63.55 65.83 66.71 67.04 67.09 67.73 69.33 69.93 69.50 69.44 69.35 67.54 67.27 65.98 64.62 64.51 61.06 61.24 68.48 68.20 67.44 67.45 68.03 68.14 67.56 67.67 67.48 66.81 66.43 65.94 65.54 65.07 64.44 63.23
53.29 46.20 44.27 45.76 46.94 48.50 52.74 51.22 54.00 54.68 53.88 54.48 57.27 57.85 62.09 64.61 64.56 64.41 64.66 64.94 65.45 67.31 67.51 68.01 68.30 68.69 67.81 65.85 66.01 64.58 65.05 60.43 65.84 67.70 67.14 65.82 66.44 66.53 66.81 66.50 66.59 66.62 65.49 65.47 65.42 64.87 63.92 63.18 62.21
49.34 46.39 46.02 49.79 50.60 49.65 51.49 51.44 51.72 51.19 52.58 53.53 54.72 59.40 63.49 63.64 62.82 61.62 61.45 62.31 64.54 65.10 66.26 66.20 67.00 66.77 65.63 65.35 65.06 63.38 63.36 63.19 65.95 66.41 66.07 66.03 66.02 65.59 65.98 65.32 65.78 65.72 65.03 64.90 64.54 63.80 62.74 61.30 58.06
49.44 46.12 49.47 50.06 51.62 51.51 50.70 51.08 52.92 50.91 49.92 53.07 55.67 56.59 62.62 62.70 62.20 62.43 61.56 62.16 63.95 65.37 65.80 65.99 65.56 65.98 65.01 64.23 64.74 63.72 64.25 64.43 64.96 65.08 65.16 64.74 64.47 64.85 64.72 64.68 64.28 63.64 63.77 62.26 61.89 60.67 58.42 56.98 57.23
46.73 49.52 50.21 50.34 51.39 50.83 49.40 51.75 50.65 51.86 52.69 55.34 57.64 58.56 59.34 61.09 61.33 61.75 61.30 62.90 63.15 63.60 64.34 65.07 65.38 64.61 64.43 64.83 64.41 63.31 62.75 64.28 62.65 62.14 62.38 63.39 62.92 63.32 63.90 63.64 62.36 60.84 60.68 59.27 58.71 57.74 58.22 57.32 58.29
47.65 48.62 50.29 51.21 51.32 50.64 51.23 50.04 50.75 51.23 54.05 56.15 58.51 59.32 59.36 60.07 59.79 61.53 62.17 62.78 62.83 62.34 63.96 63.73 63.66 63.25 63.97 63.86 64.44 63.48 63.51 62.70 62.31 61.15 61.55 62.41 62.19 62.36 63.09 62.92 61.47 60.10 60.28 59.01 57.38 57.97 58.81 58.65 58.32
49.30 49.16 49.24 50.44 50.50 51.04 48.83 49.24 50.63 51.87 54.07 54.72 57.60 58.50 59.90 60.02 59.55 60.64 61.60 61.81 61.94 61.63 61.91 62.77 63.22 64.14 63.40 63.37 63.61 63.45 63.20 61.95 60.94 60.65 61.00 62.19 61.99 61.65 62.90 62.80 61.08 60.35 60.15 59.94 58.52 59.99 58.59 58.03 58.55
49.20 45.82 48.27 49.53 50.42 49.21 50.87 47.08 48.25 52.32 53.34 53.22 56.28 58.18 59.83 60.19 59.82 59.36 61.78 61.90 62.00 61.62 61.05 61.53 61.00 62.02 62.39 62.78 62.95 62.66 63.03 61.87 60.47 60.15 60.92 61.55 61.12 61.31 62.75 62.27 61.44 60.93 60.85 60.66 59.34 59.50 58.40 57.72 58.78
45.87 47.13 42.76 48.14 49.79 50.20 49.58 44.18 49.74 52.85 53.06 52.96 55.39 57.76 59.26 59.85 60.02 60.44 61.46 62.38 62.29 61.22 60.39 60.78 61.60 61.28 61.74 61.59 61.79 62.04 62.53 61.53 60.19 60.08 59.92 60.44 60.94 62.35 62.13 62.05 61.94 61.61 61.49 60.92 60.11 57.99 56.78 56.72 56.91
44.46 40.50 43.15 45.18 50.05 49.63 48.61 45.77 50.11 52.95 54.38 53.99 54.59 56.58 58.80 59.36 60.05 60.45 61.21 62.19 62.11 61.18 60.71 60.52 60.42 60.39 60.07 60.52 60.97 61.14 61.55 60.75 59.35 59.25 58.92 59.88 60.14 61.70 61.04 60.55 60.67 61.50 60.80 59.78 59.02 57.69 56.82 55.69 56.03
39.35 41.85 43.91 44.42 48.56 49.82 47.85 47.24 49.99 52.41 53.70 54.26 54.17 54.91 58.01 58.87 59.71 60.63 60.73 61.42 61.72 61.04 60.69 60.48 60.36 60.32 60.00 59.87 59.98 60.30 60.07 59.55 59.11 58.87 59.50 60.87 60.52 60.11 60.20 59.65 60.11 59.55 59.05 58.35 58.02 57.54 57.73 56.25 55.62
44.59 44.19 43.98 47.43 50.25 48.56 47.50 47.08 48.37 51.02 51.81 53.22 53.98 55.01 56.38 58.78 60.83 61.06 61.14 61.10 61.08 60.61 60.33 59.57 59.42 59.69 59.07 58.15 57.75 57.89 57.45 58.43 58.44 59.35 59.84 59.92 59.10 59.04 58.95 58.52 58.77 58.93 57.33 56.66 57.96 58.02 56.71 56.00 56.42
43.79 42.94 43.39 47.09 49.33 47.37 46.63 46.00 48.37 49.73 51.10 52.14 53.07 55.10 56.29 58.35 59.62 60.30 60.48 60.24 60.80 59.90 59.53 59.68 59.15 59.22 58.71 58.39 58.18 58.06 57.93 58.15 58.37 58.76 58.72 58.53 58.29 58.40 59.14 58.56 58.39 58.26 58.37 58.20 57.52 56.59 55.46 55.83 56.26
42.92 42.76 43.42 43.53 47.27 48.42 45.95 44.12 46.37 48.88 50.77 52.11 53.99 54.88 57.06 57.79 58.79 59.47 59.84 59.57 60.27 59.81 59.22 58.87 59.07 59.03 58.87 58.76 58.65 58.09 57.89 57.70 56.81 56.49 57.78 58.53 58.50 58.45 58.51 58.82 58.57 58.48 58.93 58.29 57.87 57.75 56.64 53.41 54.09
40.12 46.11 45.47 44.80 43.73 39.41 46.85 37.65 45.38 47.72 48.63 50.46 52.35 54.05 55.26 56.63 59.77 60.03 59.80 59.61 59.21 59.91 59.71 58.73 58.61 58.56 58.96 59.11 57.97 56.61 55.83 54.78 55.16 56.54 57.87 58.39 60.11 58.63 58.56 58.80 58.95 58.42 58.27 59.31 59.37 59.74 58.28 57.32 53.44
42.62 48.11 46.44 45.71 43.54 42.94 42.69 40.22 43.64 48.05 47.02 48.99 51.71 53.80 54.95 56.47 58.90 59.84 60.04 60.50 60.45 60.55 59.68 58.52 58.30 58.28 58.84 59.23 58.54 57.55 56.16 55.99 55.50 55.93 55.96 57.07 59.16 60.61 58.95 59.10 59.31 58.27 58.10 58.55 59.94 59.52 58.94 58.34 57.05
46.79 45.80 45.68 44.98 43.53 36.00 41.01 40.75 41.15 44.72 47.35 49.58 51.93 53.55 54.91 55.96 58.02 60.29 61.30 61.37 60.96 60.46 60.36 58.90 58.26 57.99 58.73 58.61 58.73 57.92 56.76 55.81 54.81 55.04 54.21 54.97 56.79 59.62 59.86 59.11 59.14 59.67 59.77 59.01 59.65 59.72 59.29 58.96 58.37
43.86 41.34 35.20 33.35 34.17 33.80 43.00 40.78 42.91 48.05 50.06 51.01 51.61 52.95 55.53 57.03 58.10 59.58 60.28 60.16 60.80 60.27 60.10 59.21 57.95 57.53 58.62 57.93 57.97 57.99 58.05 57.22 55.86 55.04 54.74 54.25 54.85 57.21 58.55 58.68 58.62 59.74 59.64 60.29 60.51 59.62 59.41 59.91 58.96
41.30 40.99 35.94 28.93 31.77 35.66 43.38 38.28 43.05 49.94 51.37 52.53 52.95 54.50 55.91 56.59 58.33 58.89 60.47 60.81 60.82 60.58 60.56 59.30 58.29 57.13 57.81 58.44 57.92 58.15 58.19 57.92 56.90 56.15 55.85 55.15 55.07 57.39 58.67 58.66 58.53 59.25 60.10 60.37 60.59 60.03 59.84 59.21 58.79
40.53 37.04 44.09 39.16 39.95 35.89 40.33 44.53 48.15 50.32 50.05 50.64 51.39 52.80 54.24 54.76 57.11 58.63 60.57 61.34 61.10 61.06 60.48 59.87 58.98 58.71 57.91 57.12 58.56 58.24 58.68 57.72 57.16 57.26 57.04 56.37 56.44 57.54 58.85 59.79 59.39 59.40 59.56 60.20 60.23 59.85 59.05 58.65 58.99
43.18 44.95 36.75 38.50 29.54 29.13 38.28 41.01 41.46 47.08 48.23 49.92 51.05 51.97 53.94 55.49 56.60 58.38 59.50 61.51 61.85 61.88 61.71 61.15 60.03 59.02 59.28 58.28 58.10 58.05 58.29 58.71 58.43 58.34 57.73 57.43 57.35 56.97 57.57 58.73 59.73 59.67 59.63 60.20 60.46 59.64 59.20 58.79 58.87
41.09 39.70 41.01 40.63 38.93 33.34 32.53 37.77 47.27 47.54 49.53 50.50 51.86 53.49 54.18 55.14 56.07 57.10 59.15 60.57 62.28 62.44 62.11 61.31 60.77 59.68 59.38 58.90 58.56 57.89 57.74 58.47 59.03 58.34 58.64 58.19 58.26 58.14 57.55 57.85 58.13 58.73 59.57 59.87 59.32 59.09 58.66 58.39 58.15
43.23 41.54 41.23 35.94 35.22 39.07 38.07 39.14 50.63 50.38 49.74 50.41 51.05 53.05 54.46 55.59 55.94 56.90 57.96 60.28 61.07 61.87 62.20 61.75 61.20 60.58 59.98 60.09 59.37 58.51 58.37 58.30 58.40 58.28 58.95 59.13 58.74 59.19 58.53 57.97 58.41 58.39 58.63 58.91 58.62 58.26 58.50 57.73 56.94

GFSSGP_sfc_wetblb_063.txt.gz
Wetbulb
58.85 56.13 52.53 51.82 42.39 38.55 35.74 41.05 45.76 44.25 48.05 51.30 53.97 52.80 49.95 49.88 53.38 50.20 66.00 68.34 69.91 69.24 70.85 72.22 72.34 72.36 72.50 72.51 72.51 72.56 72.66 72.70 72.77 72.74 72.27 71.70 71.68 71.63 71.60 71.69 71.73 71.96 72.04 71.18 70.46 70.63 70.06 70.17 70.25
55.32 54.91 51.07 47.47 37.95 33.02 38.07 45.04 45.02 47.99 50.87 52.60 53.43 52.52 51.11 53.92 62.98 64.15 64.77 68.15 68.67 69.73 70.21 71.51 72.37 72.39 72.40 72.16 72.28 72.50 72.69 72.75 72.84 72.62 72.16 71.82 72.06 72.01 71.59 71.30 71.16 71.57 71.55 70.71 70.43 70.16 70.05 69.88 69.51
56.81 55.83 46.55 41.57 37.32 36.45 37.67 43.50 46.62 49.23 51.50 51.03 50.04 52.83 55.54 56.53 61.50 64.15 66.47 68.39 67.99 68.76 69.57 71.18 71.58 72.03 72.12 72.04 72.11 72.12 72.23 71.99 72.21 71.97 72.14 72.14 72.11 71.86 71.45 70.69 70.84 71.13 71.35 70.45 70.09 69.43 69.24 69.18 68.80
52.19 50.11 47.16 37.33 36.14 42.00 43.91 47.35 48.10 48.56 49.52 51.41 51.47 51.56 57.81 62.30 62.07 65.69 67.21 68.22 67.26 67.16 70.12 69.62 70.07 71.27 71.83 71.87 71.76 71.43 71.54 70.95 71.22 71.34 71.62 71.98 71.80 71.57 70.76 69.98 70.14 70.71 70.78 69.57 68.97 68.90 68.45 67.53 67.10
49.09 45.49 37.39 34.88 38.35 43.99 47.13 48.49 49.11 48.78 49.49 52.19 52.60 51.62 56.31 62.71 66.06 66.24 65.77 66.56 66.21 66.31 68.27 68.67 68.98 70.16 71.42 71.76 71.62 71.10 70.79 70.07 70.82 71.15 71.40 71.27 71.08 70.74 69.93 69.40 69.56 69.78 70.00 69.19 68.19 68.19 67.29 66.64 66.60
43.00 43.43 34.26 33.65 39.89 45.72 48.40 50.22 49.12 50.28 50.15 49.88 50.16 51.77 56.70 63.84 63.64 65.04 65.63 64.63 66.28 66.36 68.37 68.72 69.58 70.13 69.45 70.20 70.04 69.97 69.87 69.23 69.45 70.38 70.59 70.76 70.18 69.64 69.29 69.16 68.67 68.67 68.33 67.92 67.66 66.96 66.65 66.46 65.39
40.99 38.66 35.65 37.84 40.99 43.98 47.99 49.84 49.25 49.10 49.68 51.68 56.02 50.78 57.19 60.65 64.21 65.38 64.39 64.27 64.45 65.98 66.82 68.65 67.23 68.32 68.21 66.97 66.65 65.87 66.99 65.15 66.07 67.43 69.54 69.32 68.60 68.73 68.92 68.96 68.53 68.12 67.58 67.08 66.71 66.39 66.03 65.38 64.39
45.89 41.42 37.61 40.94 40.92 42.37 48.52 50.18 51.07 49.92 48.28 57.56 55.00 48.96 54.29 60.55 63.39 63.35 63.53 63.33 63.50 65.20 65.85 66.01 66.18 66.34 65.36 65.43 65.22 64.18 63.64 62.98 63.12 63.34 65.49 67.71 67.24 68.05 68.09 67.99 67.87 67.52 66.85 66.55 66.18 65.59 65.05 64.52 63.13
47.49 39.90 37.58 39.42 41.97 44.93 49.58 47.71 49.06 50.78 50.74 53.33 54.89 53.12 61.45 63.44 63.19 61.07 60.35 60.26 60.64 64.71 64.25 64.45 65.05 65.72 64.85 65.16 64.69 63.70 63.42 62.93 63.53 63.66 62.11 65.67 66.66 66.63 66.39 66.70 66.84 66.62 65.67 65.57 65.46 64.83 63.73 62.80 62.48
44.08 37.38 40.11 45.30 46.59 46.01 47.96 49.03 48.89 48.18 50.83 50.93 51.61 60.77 62.25 61.70 60.26 58.54 57.15 58.23 59.92 61.30 62.37 63.49 63.59 65.16 64.74 65.33 63.64 63.35 62.22 61.51 62.88 63.10 62.26 65.43 65.86 65.15 65.87 65.96 65.78 65.56 65.14 64.94 64.41 63.72 62.62 60.37 57.03
44.20 41.15 44.90 46.62 48.83 48.35 47.80 46.61 48.93 46.09 47.23 50.71 52.44 58.10 59.83 59.64 58.55 57.66 57.35 58.49 59.47 61.77 62.91 62.99 63.87 64.35 64.16 63.82 62.72 62.58 61.61 61.81 61.08 64.33 65.10 65.29 65.18 65.10 64.64 64.60 63.89 63.84 63.74 62.13 61.73 60.82 57.05 55.73 56.07
42.98 46.45 46.98 47.50 49.05 48.19 46.71 46.93 46.54 46.77 49.10 54.35 54.26 59.76 59.61 58.73 57.68 58.02 57.10 58.70 60.26 61.29 63.51 62.65 63.82 63.53 63.68 64.02 63.01 61.72 62.17 63.11 61.91 64.30 64.51 63.87 63.95 63.61 63.16 62.67 62.58 61.99 60.79 58.98 58.18 56.26 55.60 55.08 56.87
45.61 46.57 47.89 48.63 48.71 48.74 49.03 45.91 46.65 45.75 49.93 53.50 57.12 57.06 56.16 57.67 57.81 58.29 59.38 59.60 59.31 60.20 62.26 62.20 63.47 63.03 63.32 62.95 62.29 62.28 63.45 63.09 63.05 63.47 63.50 63.52 63.23 62.85 62.12 61.66 60.44 59.28 58.44 56.97 55.70 55.51 55.92 55.11 56.12
47.95 47.30 47.15 47.90 47.39 48.31 47.48 45.59 45.64 48.26 49.75 49.65 55.47 55.39 56.36 56.23 56.63 56.89 58.36 58.66 58.66 60.03 61.09 62.61 62.53 62.78 62.64 62.02 62.30 61.85 62.84 61.98 62.01 62.55 62.78 62.39 62.93 62.48 61.79 59.67 58.81 58.00 57.19 55.39 55.76 56.29 55.62 55.21 55.79
47.92 43.45 45.57 45.75 46.06 46.35 47.93 43.83 43.16 47.43 49.16 48.73 53.41 55.66 55.88 57.06 55.83 57.29 57.71 58.66 58.85 59.10 60.27 61.20 62.32 62.68 62.11 61.32 62.33 62.62 61.85 60.29 59.43 60.43 61.42 62.09 61.93 61.68 61.92 59.57 58.44 58.97 57.68 55.56 55.62 56.23 57.06 55.46 57.37
43.74 42.31 37.28 45.00 46.95 47.65 45.10 41.30 45.59 47.85 47.98 47.01 48.19 55.10 56.05 56.35 56.09 55.57 57.85 59.54 58.92 58.64 58.89 60.99 62.02 61.84 61.65 60.32 61.09 62.14 61.35 59.69 58.96 59.60 60.25 61.39 61.45 61.30 61.99 60.63 58.66 59.83 58.33 57.74 56.78 57.48 56.10 55.52 55.75
40.94 34.20 38.36 42.36 47.61 46.59 44.10 42.91 45.86 48.41 48.90 48.00 50.10 52.70 55.03 55.50 55.53 55.55 58.14 59.57 58.97 58.85 59.53 59.73 60.42 60.45 60.54 60.84 60.69 61.76 61.49 60.35 59.55 59.57 59.95 60.90 60.83 60.88 61.80 61.17 59.94 60.02 58.69 58.89 58.57 56.62 55.79 54.60 54.37
35.27 36.95 38.41 39.88 45.12 45.78 43.86 43.48 46.74 47.39 48.94 50.11 49.49 49.31 54.08 55.05 55.25 56.40 57.92 59.39 59.09 58.81 59.11 59.52 60.05 59.96 60.18 60.52 60.83 61.07 61.29 60.82 59.82 59.13 59.52 60.56 60.38 60.07 60.86 60.83 60.31 60.31 59.28 57.98 56.95 56.53 54.89 54.92 55.51
41.51 40.35 39.09 41.09 46.61 46.83 45.14 44.02 45.32 46.90 46.15 48.61 48.50 48.98 51.68 55.07 56.88 56.94 57.58 59.04 58.11 57.51 58.66 58.76 59.05 59.13 58.96 58.45 58.27 58.53 58.07 58.13 58.64 58.92 59.04 59.79 59.21 59.25 57.79 59.21 58.85 58.02 58.51 57.94 57.03 56.07 54.86 53.41 54.16
41.35 39.02 38.50 42.82 46.79 45.85 44.54 43.22 43.87 45.38 44.90 46.82 49.47 48.94 49.50 54.91 55.91 56.08 57.57 58.12 57.65 57.11 57.69 58.62 58.48 58.33 58.43 58.32 58.48 58.44 58.22 58.12 58.14 58.43 58.89 59.41 58.34 58.32 57.40 57.75 57.41 57.43 57.70 56.74 55.78 55.15 54.33 54.17 54.35
39.95 38.40 39.42 40.43 44.47 45.54 44.11 39.20 41.82 46.41 47.31 47.37 48.48 51.51 52.23 55.11 55.05 55.55 56.08 56.73 57.02 56.60 57.27 58.24 57.92 58.16 58.19 58.41 58.17 58.14 58.07 57.86 57.06 57.47 57.89 58.32 57.64 57.85 57.70 57.54 57.05 56.80 57.07 56.29 54.92 54.11 54.16 52.73 53.38
36.00 42.52 42.27 41.66 40.23 35.36 41.85 31.44 40.47 44.69 45.69 47.04 47.08 48.01 52.24 55.21 56.35 56.27 55.67 55.54 56.62 56.68 57.73 58.90 58.11 57.92 58.08 58.27 57.34 56.59 55.76 54.81 55.95 56.65 57.07 56.75 57.11 56.93 57.07 57.54 57.31 56.77 56.94 56.43 55.38 55.86 55.64 53.77 51.94
40.08 44.39 42.80 42.44 40.80 38.35 39.03 33.58 37.73 43.45 42.89 45.15 45.74 48.27 49.31 55.16 55.76 55.96 55.94 56.02 56.95 57.52 57.10 57.25 57.80 57.97 57.92 57.83 57.40 56.39 55.55 55.62 56.29 56.31 56.23 56.32 56.37 56.69 56.70 57.13 56.94 55.76 55.85 56.52 56.77 56.38 56.51 56.48 54.20
45.31 42.54 42.07 41.25 39.95 32.70 37.99 35.39 34.25 39.79 44.07 46.34 48.26 49.48 50.04 51.14 55.97 56.74 57.40 56.97 56.61 57.30 56.68 56.52 57.25 57.47 58.06 57.71 57.15 56.05 55.63 54.31 53.78 53.71 54.47 55.50 56.98 57.03 56.73 57.02 57.53 56.72 55.90 55.86 57.93 57.75 57.05 56.68 56.52
42.72 37.90 30.78 30.63 30.16 28.69 39.97 36.84 38.55 43.94 47.08 47.73 48.19 48.30 50.05 50.90 56.09 56.20 56.23 56.26 55.92 56.21 55.92 55.94 56.49 56.92 57.86 57.73 56.87 56.21 55.75 55.18 53.22 54.22 54.99 55.14 54.46 56.79 57.57 56.74 55.79 56.86 57.32 56.31 57.40 58.30 58.19 57.23 57.13
40.21 37.90 31.38 26.41 26.56 31.90 40.32 33.79 38.52 46.70 49.06 49.25 49.01 49.07 50.49 51.39 56.43 56.42 56.81 56.96 56.50 56.71 56.35 56.16 56.00 56.85 57.71 57.53 57.09 56.91 56.39 55.58 54.44 54.43 55.22 55.30 55.36 55.97 58.23 58.14 57.20 56.89 57.95 58.30 58.53 58.14 58.35 58.50 58.06
39.33 35.61 40.99 34.52 35.39 32.16 36.00 40.08 44.62 46.39 46.81 47.35 47.28 49.21 50.39 51.47 54.67 56.66 57.21 57.69 57.22 56.96 56.66 56.47 56.05 56.60 57.63 57.71 57.31 57.27 57.73 56.87 55.52 54.82 54.79 55.21 55.09 55.89 56.54 58.18 57.60 57.26 57.58 58.33 58.79 58.45 57.47 57.83 57.68
41.80 43.35 34.15 34.79 27.77 26.86 34.21 35.86 37.00 43.35 45.06 47.29 46.49 46.97 48.91 50.19 52.13 56.63 57.49 57.58 58.15 58.11 57.41 57.03 56.54 55.97 56.69 57.66 57.69 57.75 57.70 57.93 57.51 56.15 55.01 54.58 54.42 55.17 55.74 57.53 57.78 57.54 57.42 58.27 58.56 58.51 59.00 57.87 57.43
39.70 37.86 37.94 38.01 35.67 28.47 28.26 34.15 44.17 43.36 45.95 45.94 47.83 48.72 48.50 49.32 50.48 52.98 57.37 58.41 58.73 58.57 57.98 57.07 56.80 56.35 55.99 56.44 57.17 57.81 57.51 57.74 57.63 56.58 55.94 55.54 55.22 54.97 54.78 56.46 57.52 57.99 57.59 57.45 58.23 58.79 58.57 57.76 57.53
42.48 39.98 38.69 33.88 32.88 35.64 33.20 35.27 47.76 47.07 46.40 46.76 47.46 48.28 49.49 51.08 51.88 52.73 53.34 55.02 57.19 58.26 58.17 57.66 57.32 57.28 57.06 56.48 56.37 56.67 57.84 57.78 57.90 57.35 57.42 57.38 55.64 55.77 55.37 55.22 56.31 57.45 57.94 57.79 57.13 57.09 58.30 57.59 56.72

GFSSGP_sfc_wetblb_066.txt.gz
Wetbulb
59.94 54.16 50.94 50.72 41.35 36.25 32.83 38.28 44.11 44.61 46.11 50.04 52.66 50.91 49.60 50.43 52.10 45.61 64.25 67.74 69.61 69.54 71.66 71.59 71.69 72.30 72.63 72.51 72.45 72.36 72.97 73.18 72.74 72.43 72.12 71.83 71.68 71.39 71.15 70.91 71.21 71.65 71.99 71.28 71.14 71.22 71.18 70.42 70.61
53.57 53.44 49.42 44.78 36.39 30.43 33.90 41.24 42.87 45.93 50.21 50.93 52.39 50.98 51.10 55.54 62.82 63.45 63.86 67.89 69.10 69.31 70.80 71.86 71.55 71.99 72.41 72.19 72.30 72.18 72.67 72.92 72.59 71.96 72.02 71.75 71.68 72.23 71.88 71.38 71.10 71.28 71.35 70.49 70.28 71.01 70.37 70.24 69.56
54.25 54.07 44.86 40.22 33.90 32.19 35.17 42.75 45.96 47.98 50.41 49.87 49.19 52.50 54.83 56.65 63.69 64.01 65.53 67.41 68.93 68.79 70.42 71.95 71.47 71.55 71.77 72.04 72.03 71.96 72.02 72.14 71.95 71.61 71.99 71.97 72.33 72.23 71.98 71.31 71.11 71.40 71.58 70.69 70.71 70.12 69.72 69.59 68.53
50.36 48.64 45.47 36.03 34.24 39.51 41.26 43.20 46.21 46.79 48.40 49.45 50.64 51.85 57.55 61.20 63.56 65.01 67.31 67.36 67.18 67.94 70.15 70.54 70.74 71.20 71.60 71.99 71.98 71.74 71.58 71.34 71.38 71.12 71.88 72.04 72.21 71.94 71.58 70.87 70.88 70.96 71.08 70.54 70.10 69.63 69.36 68.29 67.57
47.00 42.77 36.36 32.32 35.66 41.21 44.21 45.61 45.95 46.48 48.13 50.85 50.99 50.71 55.35 62.38 65.35 65.89 65.69 67.00 65.33 66.55 68.63 70.00 69.93 70.96 71.38 71.78 71.71 71.43 71.07 70.99 71.14 71.03 71.37 71.60 71.41 71.27 70.59 69.94 70.12 70.12 70.44 69.98 69.63 69.01 68.37 67.66 66.94
41.71 40.73 31.85 31.60 36.32 42.88 44.47 46.47 46.78 48.30 49.99 50.80 49.91 54.08 55.72 63.45 63.61 64.14 64.53 64.80 65.96 66.47 67.39 68.56 70.12 70.96 70.71 70.41 70.22 70.44 70.37 70.52 70.71 70.69 70.95 71.32 70.69 70.17 69.88 69.73 69.39 69.50 69.00 68.62 68.35 67.50 66.99 65.84 65.26
39.85 36.07 32.57 33.21 37.43 40.99 45.56 48.16 47.63 47.98 48.48 49.94 53.88 51.05 56.90 59.92 63.38 64.13 63.60 64.01 65.17 66.74 66.41 67.06 68.65 68.68 67.61 67.86 67.81 67.52 68.68 68.86 68.68 65.47 68.80 69.55 69.27 68.87 69.30 69.24 69.22 68.54 67.93 67.85 67.45 66.82 65.78 65.09 64.73
42.83 39.04 34.30 35.96 38.65 38.83 45.63 47.32 48.75 47.67 46.17 56.45 53.86 53.04 53.84 59.66 63.87 63.14 62.88 62.25 63.68 64.27 65.78 65.98 66.90 67.14 65.81 65.39 66.18 65.71 66.51 65.97 65.27 64.98 63.96 64.86 67.83 68.38 68.45 68.04 68.14 67.75 67.31 67.11 66.88 65.89 65.09 64.54 64.46
45.17 36.48 32.39 35.77 38.86 42.32 46.83 45.64 48.73 49.62 52.50 52.67 52.93 56.24 59.39 62.76 62.33 60.88 59.53 58.84 62.01 63.91 62.88 63.58 64.16 64.78 65.13 64.11 64.95 65.31 65.52 66.11 65.09 64.31 63.23 61.32 65.24 66.27 67.11 66.59 67.01 66.77 65.89 65.84 65.89 64.83 64.06 63.41 63.69
42.45 36.83 38.56 42.39 43.68 43.34 45.49 45.13 46.48 47.56 49.24 49.61 56.36 60.16 61.78 61.79 60.15 58.50 57.82 57.31 60.02 60.66 61.39 62.47 63.22 63.45 64.57 64.21 62.65 62.16 63.30 63.13 62.77 62.54 62.58 61.53 64.41 65.44 66.21 66.03 65.98 65.49 65.25 65.34 64.79 63.80 63.01 60.24 59.06
41.17 41.01 43.26 43.80 45.84 44.81 45.19 46.23 47.48 45.83 45.14 49.34 54.36 57.82 59.75 59.83 58.24 57.17 56.58 57.94 58.72 61.18 61.30 61.82 62.57 64.30 64.57 63.50 62.80 61.49 60.01 60.77 61.47 61.52 60.90 61.80 64.96 65.09 65.42 64.75 64.20 63.73 63.95 61.91 61.43 60.34 56.42 55.91 56.62
40.66 45.27 45.42 45.94 47.45 46.20 45.25 47.36 45.09 45.30 47.75 51.49 57.67 59.22 58.29 57.52 56.74 56.29 56.61 57.29 59.83 61.17 60.90 61.49 62.32 64.18 63.89 63.07 62.23 61.30 59.87 59.57 60.15 61.68 60.54 62.83 64.25 64.08 63.64 62.76 62.65 61.78 60.77 58.82 57.58 56.02 55.29 55.35 56.47
43.56 45.95 47.69 47.76 47.44 47.28 47.32 45.59 45.93 45.15 48.05 52.57 58.39 58.73 57.56 57.31 56.95 56.71 57.15 58.84 59.12 59.84 60.96 61.19 63.17 63.44 63.62 62.78 61.97 60.64 60.60 62.16 60.35 63.41 61.35 63.69 63.73 63.15 62.88 61.90 61.55 60.22 59.48 57.58 55.41 54.12 54.31 55.18 56.34
45.98 46.40 46.66 47.64 47.44 46.23 44.78 44.76 43.48 46.48 47.55 52.77 57.17 55.95 57.52 56.68 56.19 56.62 57.97 57.51 58.99 59.14 59.30 60.45 62.16 63.08 63.31 62.53 61.90 60.57 62.47 62.63 62.87 63.86 63.42 63.91 63.62 62.60 61.77 60.89 59.92 59.35 58.42 57.06 53.76 53.78 52.89 53.53 55.06
46.07 41.88 44.42 45.11 44.65 43.60 44.85 41.89 42.33 47.67 46.96 47.06 52.71 53.53 54.79 56.40 56.23 57.62 58.50 58.10 59.55 59.29 59.39 60.06 60.49 62.68 62.47 61.76 61.77 62.32 62.12 62.16 62.53 62.87 63.12 63.25 63.21 61.78 60.64 58.93 58.04 58.10 57.62 53.97 53.12 53.66 53.76 53.74 55.87
42.09 40.92 36.14 43.32 44.68 45.49 43.34 38.97 45.95 47.71 45.46 45.22 47.98 53.03 54.17 54.88 56.56 57.54 58.59 58.48 58.47 58.39 58.71 60.94 62.26 62.04 61.73 61.60 61.76 61.56 61.02 60.06 60.71 61.55 61.41 62.70 62.83 61.89 59.41 58.22 57.51 56.67 56.10 54.43 53.85 54.03 53.95 53.27 54.86
38.43 32.75 35.99 40.80 45.64 44.56 42.75 41.38 46.39 47.44 46.37 45.03 44.61 51.44 53.35 53.75 53.50 56.35 58.40 58.58 58.03 58.35 58.80 60.55 61.53 61.21 61.08 61.15 61.73 61.06 59.48 59.04 59.93 60.34 61.23 61.61 61.80 61.83 59.32 57.64 58.00 56.78 55.99 53.59 55.12 54.51 54.32 53.79 53.94
33.39 34.92 36.39 37.79 41.55 43.73 41.93 43.27 46.74 47.80 44.87 46.08 44.78 48.69 53.25 53.89 53.72 55.29 58.49 58.78 57.95 58.23 58.53 59.48 60.62 60.62 60.97 60.96 61.38 61.35 60.36 59.24 58.75 59.49 60.28 60.88 60.84 61.69 61.17 58.57 58.93 57.30 56.32 54.97 55.50 54.49 54.73 55.70 55.07
39.45 38.31 36.44 40.17 43.26 41.93 41.47 42.54 45.13 47.78 44.44 43.92 45.84 47.69 52.39 53.97 55.06 56.45 58.62 58.51 57.40 57.16 57.46 58.59 59.34 59.64 60.20 59.69 59.51 59.55 59.22 59.36 58.89 59.27 59.89 60.56 59.92 60.42 61.36 59.53 59.09 59.09 57.27 56.98 56.26 54.74 54.64 54.01 54.54
38.65 37.81 37.04 41.03 44.04 42.52 42.15 41.41 44.51 45.86 45.33 46.00 47.93 46.32 51.87 52.63 52.89 56.02 57.25 57.33 56.99 57.23 56.71 56.97 58.97 59.28 59.44 59.51 59.34 58.97 59.25 59.08 59.61 59.08 59.16 60.26 59.47 59.28 59.96 60.26 58.72 59.16 58.00 56.16 55.41 54.93 52.89 53.76 54.45
36.67 35.90 37.71 37.92 41.72 43.83 42.00 39.46 41.96 44.62 45.38 45.35 47.91 48.98 50.63 53.29 52.90 54.65 56.29 56.28 56.18 56.78 56.43 56.67 58.07 58.33 58.40 58.55 58.56 57.52 58.19 57.88 57.42 57.78 58.08 59.51 58.78 58.63 58.45 59.75 57.79 58.27 57.92 56.49 54.70 54.39 54.12 53.03 52.78
35.56 40.09 39.37 39.59 38.33 32.15 42.23 31.18 40.22 42.59 43.57 45.16 45.41 45.99 47.58 53.67 54.61 54.95 56.09 55.93 55.62 56.07 56.89 56.75 57.31 57.65 57.92 58.29 57.76 57.09 55.91 55.28 56.74 57.22 58.05 58.97 58.26 57.63 57.66 58.08 57.30 56.92 57.75 56.68 56.00 54.91 53.15 53.46 53.37
38.85 44.47 41.42 40.11 35.93 33.91 38.34 33.54 38.55 41.01 41.08 43.65 44.56 44.38 47.97 53.95 54.58 54.19 55.64 56.17 56.29 56.45 56.45 56.59 57.05 57.50 57.76 57.91 57.65 57.02 56.17 56.55 56.80 57.38 57.29 57.82 57.48 56.92 56.75 56.96 57.32 56.19 56.98 57.23 56.55 54.96 53.43 53.81 53.31
44.55 41.61 40.63 39.27 36.28 28.24 36.50 35.36 34.42 37.15 42.38 44.30 46.39 45.72 48.17 53.48 54.91 54.83 55.73 56.68 56.12 56.35 56.69 56.13 56.21 56.80 57.42 57.50 57.55 56.70 56.00 55.73 55.39 55.75 55.22 55.99 56.13 55.91 56.20 56.57 56.69 56.61 56.39 56.87 56.58 55.76 54.17 54.15 54.06
41.61 37.25 30.56 29.49 27.69 27.67 39.22 35.84 38.07 42.69 44.68 46.46 46.80 47.26 47.78 54.15 54.44 54.17 53.33 55.02 55.70 55.80 55.88 55.82 55.68 56.04 57.15 57.06 56.99 56.57 55.49 54.95 54.65 54.59 55.33 55.39 55.05 55.15 55.50 56.26 56.31 56.24 56.47 56.64 57.43 56.10 54.50 54.26 55.16
38.28 37.55 30.80 26.15 26.81 29.89 39.30 32.44 37.04 45.39 47.89 47.78 47.97 46.81 48.59 53.61 54.42 54.32 54.37 54.57 55.74 55.78 55.42 55.74 55.48 55.74 56.53 57.08 56.66 56.46 55.88 54.29 53.96 54.59 55.16 54.84 55.72 55.89 56.52 56.25 56.67 56.94 56.71 56.12 56.29 57.20 56.87 56.11 55.65
36.66 35.18 39.71 32.82 34.76 30.38 35.02 38.73 44.46 45.45 45.22 46.24 46.06 47.15 49.48 53.05 53.87 54.63 55.23 55.01 55.40 55.54 55.22 55.44 55.54 55.96 56.57 56.84 57.03 55.88 55.36 54.96 54.01 53.51 54.47 54.85 54.34 56.19 57.13 56.94 56.08 56.43 56.67 57.18 56.58 55.41 56.11 57.13 57.04
40.68 42.48 33.62 35.50 27.61 25.89 33.01 34.69 36.93 41.09 43.10 45.56 44.73 45.15 48.76 53.27 54.12 54.96 55.54 55.58 55.66 56.10 55.97 55.69 55.73 55.65 56.28 56.84 57.24 57.07 56.29 56.01 55.12 53.60 53.49 54.63 54.91 54.14 55.36 57.38 57.18 56.76 56.63 56.74 56.58 56.41 56.54 56.41 56.94
37.89 36.50 36.88 36.98 35.12 29.10 28.02 34.14 44.39 43.28 43.77 44.68 46.04 47.74 48.36 49.27 51.18 53.66 54.98 56.00 56.20 56.40 56.14 55.64 55.51 55.34 55.94 56.66 56.58 57.04 57.31 57.45 56.89 55.77 54.01 53.93 54.69 53.65 53.66 55.55 57.31 57.13 56.48 55.43 55.60 56.33 57.07 56.73 56.62
40.92 38.61 38.34 33.04 31.82 34.45 33.07 33.73 46.68 46.53 46.04 45.30 47.12 47.88 48.73 50.16 50.83 51.73 53.34 55.27 56.27 56.37 55.91 55.10 55.00 55.33 55.92 56.52 56.43 56.32 57.12 57.78 57.41 56.90 56.60 55.27 53.93 53.93 53.80 53.63 55.52 56.62 56.78 56.27 55.48 54.95 55.81 56.43 56.38

GFSSGP_sfc_wetblb_069.txt.gz
Wetbulb
59.20 53.58 49.04 49.72 40.00 35.82 31.71 36.35 40.65 42.41 44.61 48.34 50.89 49.27 47.68 49.03 48.86 43.39 61.49 67.37 69.03 69.70 70.89 71.13 71.56 72.28 72.36 71.97 72.30 72.50 72.65 72.89 72.85 72.75 72.68 72.61 72.42 72.10 71.80 71.93 71.96 72.12 72.54 71.96 72.06 71.96 71.77 71.33 70.98
53.46 51.45 48.13 43.13 35.80 29.63 32.09 39.02 41.35 43.42 47.90 49.86 52.41 52.86 51.65 53.94 61.59 62.27 63.14 67.92 69.01 70.03 70.69 70.57 71.54 71.75 72.18 71.99 72.09 72.43 72.78 72.65 72.55 72.16 72.16 71.95 71.87 71.65 71.68 71.48 71.41 71.58 71.90 71.78 71.84 71.72 71.31 70.28 69.97
52.37 51.42 43.82 39.20 32.86 31.14 32.69 40.62 43.20 45.46 47.99 48.27 47.50 51.11 55.32 55.77 62.36 63.04 64.75 68.81 68.18 69.32 70.56 70.42 71.04 71.24 71.93 71.97 71.96 71.99 72.10 72.02 71.69 71.60 71.84 71.55 71.44 71.27 71.60 71.15 70.99 71.38 71.75 71.58 71.41 70.77 70.06 69.28 68.53
49.67 46.93 43.18 35.79 32.96 36.84 38.41 42.15 43.41 44.94 47.19 47.48 47.89 50.61 55.71 61.31 63.04 64.78 66.45 68.53 67.43 67.86 70.20 70.42 70.28 70.76 71.57 71.80 71.72 71.68 71.77 71.16 71.03 70.95 71.37 71.63 71.84 71.68 71.47 70.73 70.86 71.16 71.12 71.32 71.01 69.67 68.90 68.21 67.86
45.20 42.24 35.32 31.33 34.49 38.09 41.33 44.40 44.03 44.55 46.04 47.71 48.62 51.11 53.79 61.63 64.23 65.59 65.60 67.68 66.61 66.54 68.83 70.22 69.48 70.48 71.37 71.77 71.83 71.47 71.26 70.85 70.67 70.82 70.91 71.57 71.63 71.55 71.11 70.55 70.60 70.57 70.57 70.64 69.95 68.90 68.07 67.76 67.29
40.25 39.46 30.68 30.03 34.11 39.59 41.92 43.75 43.95 45.95 47.46 47.74 47.97 53.17 54.90 62.64 63.09 63.40 64.87 64.64 66.02 66.05 67.39 69.33 70.69 70.49 70.68 71.01 70.05 69.88 70.40 70.62 70.35 70.62 70.71 71.10 70.98 70.62 70.37 70.10 69.80 69.40 69.32 68.94 68.53 67.87 67.52 66.84 66.35
37.10 34.64 31.23 31.65 34.37 38.16 42.85 45.38 44.82 45.76 46.59 46.87 53.14 52.40 55.68 59.99 62.18 63.22 63.66 64.32 65.80 65.91 66.33 67.11 69.86 70.71 69.14 68.04 68.54 67.39 68.17 69.00 69.19 69.36 68.95 69.19 68.91 69.44 69.52 69.65 69.34 69.20 68.45 68.04 67.62 67.41 66.20 66.36 65.78
40.90 37.09 31.66 33.75 35.77 37.12 43.07 44.65 45.70 45.55 45.20 54.07 57.62 52.88 53.32 59.41 63.09 62.29 62.43 63.50 64.20 64.60 64.56 65.29 66.10 65.70 64.28 64.93 66.90 66.52 66.31 65.81 65.61 66.83 66.79 67.03 66.32 67.57 68.09 68.27 68.73 68.61 68.05 67.45 66.76 65.82 65.38 65.90 64.88
42.70 34.26 30.07 34.74 37.41 39.50 44.74 43.10 45.09 46.98 48.10 51.18 52.05 57.03 58.42 61.89 62.63 60.66 59.21 59.04 61.07 62.99 62.90 63.09 63.76 64.53 64.63 65.38 66.94 66.92 66.05 64.74 65.05 65.91 65.11 63.03 64.07 65.98 66.45 66.55 66.85 67.55 66.24 66.01 65.63 64.69 64.96 64.55 63.74
41.21 34.05 35.63 40.41 42.02 41.45 41.61 43.23 44.94 45.15 46.01 46.87 53.52 59.06 61.07 62.08 60.76 58.91 57.51 57.43 59.71 60.20 60.61 61.87 62.41 62.72 62.80 65.04 64.81 65.23 63.58 64.91 63.57 63.87 63.49 62.02 63.62 65.02 65.07 65.67 66.22 66.04 65.62 65.39 64.68 64.18 64.29 62.90 60.80
40.45 39.02 41.28 42.64 44.51 43.17 41.87 43.88 44.91 42.70 43.73 46.64 50.87 56.52 59.19 59.81 58.26 57.86 57.48 57.72 60.59 60.52 60.30 61.02 62.20 63.92 62.98 62.60 62.16 63.08 63.77 63.87 62.95 62.74 62.36 62.35 63.20 64.59 64.18 63.95 64.17 63.91 64.56 62.41 61.32 59.90 59.35 59.63 59.14
38.86 42.28 44.60 44.47 45.46 43.20 43.23 44.83 43.67 42.94 46.05 48.22 48.93 58.38 58.80 58.12 57.23 57.10 56.83 57.03 58.78 59.50 59.90 61.09 63.31 63.41 63.54 62.89 61.68 61.19 61.39 62.05 61.29 61.28 60.61 62.10 62.39 63.16 64.12 63.47 62.46 61.41 60.91 59.91 58.35 55.55 55.79 57.23 57.38
41.22 42.79 45.25 46.16 45.73 44.72 45.67 43.47 44.48 44.72 47.61 46.90 54.78 58.64 58.11 58.03 57.34 55.83 56.51 57.26 58.60 59.02 59.38 61.65 62.21 62.67 62.87 62.35 61.63 60.68 59.98 60.38 60.70 60.44 60.28 62.20 62.64 63.29 63.67 62.88 61.76 59.34 58.83 58.42 56.19 54.23 55.18 56.24 56.46
43.54 44.01 44.73 46.40 46.61 46.31 44.64 44.51 41.89 45.92 45.08 47.62 56.32 56.52 56.69 56.90 55.86 54.34 56.16 57.24 59.03 59.25 59.40 61.59 61.30 63.21 63.13 62.35 61.13 60.38 59.34 60.38 59.68 61.31 60.55 63.11 63.00 63.51 62.51 61.66 60.78 59.30 58.14 56.78 55.95 54.09 54.23 55.96 56.33
44.46 40.15 42.12 43.14 42.04 42.68 44.15 39.66 38.91 45.17 44.99 48.66 54.93 56.00 55.77 56.22 55.01 55.97 57.19 58.32 59.44 59.98 59.44 60.36 61.02 62.86 62.75 62.19 61.06 61.28 61.74 61.67 61.42 61.33 60.65 62.32 63.58 63.06 62.23 61.01 59.19 58.67 57.04 54.47 53.64 52.59 52.21 53.95 56.58
40.57 39.45 34.81 41.37 43.25 43.94 43.05 37.77 43.36 46.03 45.12 43.43 51.55 53.89 55.54 55.58 55.66 56.44 57.95 58.89 59.14 58.67 59.12 59.26 61.73 61.20 62.24 61.51 61.42 61.73 61.55 61.03 62.09 62.65 62.79 61.87 63.27 62.71 61.18 59.56 58.91 58.58 56.54 55.05 53.80 52.81 52.13 53.45 55.75
36.08 31.33 34.19 38.03 44.02 42.56 41.63 38.47 43.46 46.57 45.31 43.77 44.34 49.77 52.68 55.15 54.24 56.05 58.02 58.62 58.43 58.52 57.87 59.02 61.38 60.51 61.30 61.45 61.59 60.97 60.30 59.72 60.32 61.51 61.64 62.72 62.11 61.12 59.68 58.31 57.53 57.21 56.35 55.16 53.91 53.34 53.73 53.06 54.44
31.47 32.61 31.77 34.68 40.73 41.01 38.00 38.70 44.36 46.26 45.96 45.17 44.73 44.78 50.97 53.21 54.67 55.50 57.42 58.23 57.59 56.99 57.37 59.24 60.03 61.26 61.27 61.38 61.11 60.31 59.72 59.36 59.76 59.68 60.68 61.71 62.15 60.32 58.09 57.38 56.82 56.54 53.82 53.81 54.12 54.34 53.31 53.25 54.65
37.82 35.41 33.65 36.13 43.43 39.23 38.43 38.84 41.50 45.05 43.82 42.98 43.17 41.91 49.91 52.55 54.45 55.36 57.48 57.47 57.31 56.89 56.67 58.97 58.74 60.38 60.66 60.22 59.48 59.14 58.46 58.66 58.74 58.68 60.15 60.46 61.69 60.45 58.27 57.40 56.68 55.87 52.27 53.51 54.95 52.93 52.79 52.14 53.80
34.85 33.81 34.73 39.37 43.78 40.19 37.77 37.98 42.09 44.40 44.63 44.13 45.09 43.04 46.01 52.01 51.19 56.07 57.05 57.16 57.41 57.23 57.39 57.67 58.04 59.47 60.40 60.39 60.27 59.81 59.85 59.43 59.26 58.69 58.74 60.30 60.22 61.28 59.27 57.48 57.29 55.93 54.44 54.63 55.01 53.11 51.90 52.12 53.46
34.85 32.65 35.02 35.88 40.02 40.23 38.27 36.66 39.41 44.71 43.99 44.75 44.92 45.67 47.95 51.53 51.35 55.16 56.23 56.42 57.04 56.32 56.69 56.89 57.77 58.34 59.39 59.91 58.65 58.37 58.23 58.36 58.50 58.10 58.53 59.81 59.63 59.97 60.79 58.50 58.05 57.56 56.32 55.76 54.98 53.36 53.44 51.91 52.00
31.89 38.71 39.48 36.41 34.06 28.47 36.92 27.91 37.11 41.74 42.77 42.93 44.50 44.28 45.77 51.42 53.08 54.81 55.63 55.77 56.09 56.45 55.87 56.17 58.20 57.87 58.41 59.07 58.42 57.56 57.03 56.33 57.49 58.26 58.41 59.33 59.07 59.14 58.89 60.01 58.43 58.42 58.11 56.73 55.37 55.05 54.50 53.96 52.76
36.31 42.91 40.57 38.96 34.56 32.09 33.83 30.20 35.01 39.23 39.92 41.60 43.37 44.17 44.69 51.41 53.04 53.79 55.34 55.97 56.69 56.98 56.38 57.01 57.04 56.77 57.58 57.83 57.81 57.22 56.22 56.55 57.34 57.32 57.39 58.45 58.41 57.83 57.30 58.72 57.91 57.73 58.15 57.65 56.37 54.27 52.84 54.95 54.20
42.53 40.82 39.79 39.16 34.45 27.02 32.82 32.34 32.67 38.30 41.37 43.12 45.23 45.87 44.28 49.46 52.91 53.96 55.91 56.25 56.06 56.51 56.49 56.13 56.01 55.23 56.67 57.06 56.67 55.21 55.96 55.67 55.97 56.47 56.25 57.39 58.03 57.05 56.68 57.79 57.26 57.41 57.28 57.15 56.76 55.58 53.94 53.76 55.12
40.66 36.96 29.29 27.34 25.64 25.38 35.99 33.39 36.24 42.44 44.48 44.65 45.26 46.98 45.14 48.71 52.22 52.76 54.14 54.79 55.02 55.69 55.87 55.69 55.71 55.22 55.77 56.90 56.23 55.39 54.31 55.41 55.79 55.89 56.33 56.31 56.67 56.25 55.57 56.36 56.89 56.46 56.67 57.16 57.28 56.31 55.83 53.96 53.40
36.89 37.54 30.65 23.96 25.45 27.72 37.05 30.93 36.98 45.37 46.31 47.22 47.41 47.93 47.46 47.02 52.52 52.89 54.45 54.86 55.04 55.62 55.77 55.23 54.92 55.21 55.57 56.28 56.89 56.84 55.34 56.01 55.31 56.16 56.21 56.57 56.69 56.36 55.89 56.22 56.83 57.28 56.91 56.58 57.16 56.57 55.95 55.59 54.25
37.66 33.90 39.39 33.05 34.31 28.53 32.37 37.65 43.04 44.92 43.53 45.46 44.63 45.15 45.42 48.23 52.64 52.28 54.19 55.02 54.84 55.66 55.45 55.08 55.00 55.53 55.65 55.81 56.45 56.72 55.95 53.65 53.69 54.59 55.06 56.07 57.14 56.49 55.08 55.48 56.14 56.82 56.82 56.42 56.06 56.48 55.89 55.90 54.77
39.02 41.77 33.33 34.93 27.36 24.73 31.28 35.13 35.71 39.76 40.30 43.90 44.05 44.04 47.32 50.35 51.72 52.44 53.53 54.80 55.44 55.47 55.70 55.40 55.70 55.56 55.52 56.06 55.59 55.65 55.75 55.69 53.28 52.61 52.98 53.23 53.39 54.49 55.91 55.64 55.53 55.85 56.54 56.42 55.78 55.22 55.37 56.03 55.82
37.52 36.91 36.22 36.71 35.06 28.09 26.86 33.52 42.98 43.17 43.18 42.27 44.54 46.04 46.49 48.59 51.12 52.61 53.45 54.27 54.90 55.34 55.53 55.45 55.67 55.85 55.60 55.75 56.39 55.68 55.59 54.80 54.09 52.98 52.44 53.28 53.46 53.07 53.72 56.67 56.16 55.61 55.74 56.08 55.60 55.19 54.95 54.37 55.27
40.04 37.77 38.07 32.24 31.29 34.04 33.59 33.70 46.06 45.66 44.47 44.36 45.08 46.50 47.78 49.71 50.97 52.46 53.54 54.54 55.04 55.21 55.14 55.57 55.64 55.08 56.28 56.90 56.62 55.97 55.51 55.77 55.29 54.78 54.36 53.24 53.61 53.62 53.43 53.25 55.63 56.93 56.05 55.74 55.58 55.78 56.27 55.74 54.82

GFSSGP_sfc_wetblb_072.txt.gz
Wetbulb
59.20 52.80 48.24 48.43 38.86 35.26 30.58 34.59 38.42 40.47 42.74 45.90 48.80 48.15 46.77 46.41 46.56 41.76 59.00 67.31 68.07 68.52 70.32 71.04 71.12 71.10 72.06 72.32 72.22 72.64 73.25 73.79 73.75 73.58 73.41 73.21 73.01 72.67 72.60 72.65 72.41 72.67 73.15 72.39 72.71 72.47 72.30 71.81 71.06
54.44 49.70 47.16 42.53 33.95 28.89 30.68 36.74 39.41 42.31 45.74 47.82 52.31 51.90 50.65 50.09 60.09 60.49 62.26 66.32 68.53 68.97 69.90 70.30 71.25 71.16 71.75 71.92 72.11 72.36 73.12 72.98 73.25 73.18 73.13 72.86 72.79 72.48 72.57 72.17 72.04 72.13 72.24 72.40 72.38 72.19 71.59 70.91 70.34
51.96 49.54 43.00 39.04 31.78 30.22 30.90 37.70 42.51 43.78 45.90 46.80 45.86 49.92 52.55 52.80 61.11 61.60 64.02 67.19 68.41 69.02 69.71 70.08 70.94 71.19 71.61 71.61 71.90 71.93 72.40 71.94 72.38 72.57 72.83 72.59 72.50 72.35 72.47 71.77 71.57 71.94 72.30 72.80 71.99 71.69 70.65 69.86 69.16
48.66 45.62 41.95 34.86 31.32 35.68 36.40 40.30 42.38 43.31 45.22 45.86 45.37 48.42 54.03 60.10 61.39 63.53 65.92 68.09 67.49 68.82 69.62 69.25 70.19 70.81 71.49 71.53 71.61 71.71 71.75 71.46 71.45 71.56 72.31 72.40 72.33 72.13 72.01 71.24 71.28 71.74 71.84 71.59 71.00 70.51 69.56 68.73 68.18
44.00 40.82 33.04 29.91 32.71 37.27 39.52 42.78 42.04 42.88 43.95 45.89 47.91 47.92 52.00 59.33 63.68 64.83 66.62 67.39 66.06 66.81 69.25 69.43 69.38 70.39 71.18 71.57 71.60 71.50 71.14 70.92 71.01 71.27 71.36 71.45 71.50 71.62 71.10 70.63 70.66 70.99 71.17 70.83 70.40 69.56 68.71 68.00 67.67
39.79 38.58 30.28 28.81 31.79 38.62 40.63 41.30 41.77 44.12 45.12 46.08 45.10 47.14 52.82 61.53 62.94 63.25 65.51 65.93 66.19 65.40 66.97 69.08 69.73 70.30 70.59 70.87 70.62 69.73 70.37 70.59 70.59 70.66 70.66 70.88 70.44 69.93 70.37 70.34 70.05 69.96 70.02 69.28 69.06 68.53 68.09 67.44 67.13
36.62 34.45 30.55 30.42 32.87 37.10 41.77 43.57 42.93 43.77 44.45 44.27 49.43 48.47 53.79 59.65 61.94 63.58 63.91 64.46 65.28 65.36 65.98 67.08 68.82 69.99 69.79 69.11 67.63 66.98 67.60 69.32 69.58 68.83 68.94 69.00 69.15 69.13 69.05 69.11 69.33 69.32 68.67 68.53 68.13 67.85 67.22 66.91 66.20
39.33 36.05 29.42 32.03 33.90 35.26 41.19 42.81 43.42 43.69 42.86 52.11 55.62 50.06 50.70 58.60 62.20 62.54 62.98 63.04 63.34 63.92 64.52 64.91 68.48 68.97 66.88 65.22 65.71 66.84 66.71 66.75 67.72 66.73 65.38 65.86 66.91 67.67 67.61 67.94 68.13 68.66 68.24 67.83 67.69 66.75 66.73 66.01 64.97
40.45 33.00 28.33 32.43 35.24 37.56 42.38 40.06 43.51 44.81 44.62 45.58 50.51 54.94 57.24 61.17 61.59 60.13 59.08 59.59 60.24 62.66 62.33 63.19 65.77 64.82 63.70 64.41 65.61 66.48 66.80 67.22 67.09 66.89 65.88 64.70 65.46 65.86 66.01 65.99 67.39 67.77 66.66 66.83 65.90 65.86 65.68 64.93 63.91
40.28 32.68 33.56 38.22 39.51 39.07 40.43 41.24 42.93 43.57 43.68 44.93 46.75 55.93 60.43 61.21 60.13 58.68 57.32 58.41 59.21 60.56 60.66 61.62 62.09 62.60 62.83 64.94 66.52 64.85 64.65 64.61 64.92 64.98 64.36 64.04 63.82 64.96 64.80 65.19 65.96 65.88 65.99 65.49 64.77 65.43 64.66 62.90 60.70
39.87 36.51 38.98 41.09 42.68 41.46 40.25 42.15 43.36 41.33 42.05 44.76 45.61 48.82 58.16 59.53 58.88 57.80 57.13 57.99 60.36 60.22 59.77 60.76 62.22 63.53 63.52 63.42 64.30 63.65 63.89 63.02 63.44 64.01 63.69 63.11 62.92 64.68 64.21 63.69 64.38 64.27 64.66 62.05 62.69 63.14 61.31 59.56 58.96
37.69 41.21 42.18 41.85 44.20 41.99 41.89 42.39 42.29 42.50 45.05 47.13 47.53 47.38 57.05 58.33 58.83 58.35 57.45 56.79 58.39 59.11 59.38 60.47 63.22 63.36 62.53 62.62 62.63 63.28 63.40 63.34 63.15 63.41 62.72 63.11 63.43 63.82 61.86 62.78 62.65 63.03 61.35 59.13 60.59 59.17 58.97 58.56 56.91
38.80 40.59 43.22 43.97 44.02 43.53 44.34 41.96 43.24 41.93 45.99 46.37 46.44 48.27 55.41 58.24 58.99 58.68 57.15 56.80 57.79 58.21 58.65 61.65 62.96 62.97 62.62 62.08 61.70 61.77 62.47 62.50 62.65 62.03 61.62 62.56 62.69 62.67 61.62 62.70 62.28 61.95 59.74 57.41 55.65 56.03 57.06 55.81 56.01
40.61 41.09 42.10 43.89 44.45 45.00 44.10 44.39 41.62 45.53 45.52 44.49 46.97 51.10 55.44 57.62 58.24 55.08 55.03 55.98 57.20 58.60 59.25 61.00 61.94 62.65 61.97 61.85 61.35 60.80 60.60 60.84 61.56 61.33 60.99 62.52 62.05 62.79 62.56 62.60 61.49 59.48 59.76 56.86 54.54 55.98 56.02 55.61 55.76
42.58 38.34 40.77 41.54 41.72 42.25 44.05 38.71 38.77 45.02 43.89 43.39 45.24 52.40 55.35 57.39 56.24 56.01 56.71 56.17 57.79 59.01 59.05 60.32 61.11 61.58 61.26 60.92 61.29 60.51 60.35 60.75 60.98 60.89 61.17 62.48 62.65 62.83 63.11 61.98 60.48 59.08 57.79 54.76 52.88 52.61 54.31 55.02 55.59
38.48 37.72 33.46 39.96 41.22 42.27 41.83 37.00 42.42 44.65 42.91 42.28 42.73 50.72 55.13 56.11 55.98 56.35 54.84 56.75 57.70 57.89 60.02 60.21 60.85 61.10 61.04 61.10 61.24 61.22 61.45 61.31 60.84 61.60 60.93 61.95 62.75 63.44 62.65 61.52 59.73 57.80 56.63 55.01 53.12 53.09 53.92 54.51 54.34
34.23 31.01 33.30 36.34 41.93 41.32 39.18 37.08 40.33 43.39 44.39 42.81 42.56 46.07 52.98 55.22 54.70 54.39 55.66 57.09 57.98 58.28 59.64 59.24 60.41 60.39 60.60 61.38 60.96 61.52 61.16 61.32 61.78 61.65 61.68 61.11 63.16 63.10 61.94 60.62 59.16 57.52 56.26 55.25 53.42 52.05 54.17 54.52 53.56
29.00 31.45 31.08 31.89 36.77 37.91 36.95 36.78 41.18 42.88 42.62 43.38 42.98 41.71 48.93 53.13 54.80 55.23 56.14 57.58 57.82 56.82 57.55 59.67 60.40 60.17 60.36 61.38 60.86 60.34 59.80 60.00 60.28 61.46 61.52 61.30 62.80 61.77 60.50 59.04 57.85 57.85 56.57 55.41 54.24 52.71 52.78 54.93 54.33
34.91 33.19 32.24 34.01 39.84 38.34 37.49 36.87 39.81 42.20 41.48 41.22 42.39 41.23 44.43 50.41 55.18 54.70 56.60 57.16 56.20 55.34 56.90 59.03 59.64 60.76 60.88 60.01 59.12 58.69 58.15 58.51 59.09 60.22 61.54 61.73 61.08 59.56 58.55 57.18 56.47 56.11 55.42 54.88 54.24 53.52 53.18 53.08 54.84
33.23 30.67 29.95 35.16 40.03 39.26 36.67 35.89 39.51 41.85 41.40 43.07 43.40 43.66 43.36 47.19 50.71 54.49 56.04 56.64 56.52 56.72 57.02 57.63 58.81 60.47 60.75 60.58 59.58 59.84 59.27 59.01 59.02 59.15 60.39 61.49 60.35 58.69 57.83 56.96 55.89 55.20 53.15 53.86 54.32 53.86 52.34 53.08 54.82
33.91 31.54 31.50 32.05 37.00 38.49 35.90 35.32 38.93 41.91 42.23 43.30 43.89 44.25 43.95 46.29 49.84 53.77 55.34 56.42 57.35 56.66 57.23 56.88 57.98 59.62 60.46 60.30 59.43 59.13 58.47 58.85 58.03 58.15 58.81 59.88 61.11 59.57 58.37 58.00 55.58 55.01 53.60 53.27 53.94 52.79 52.42 51.34 52.06
31.01 37.25 36.12 34.78 32.69 26.42 35.50 26.99 35.11 38.20 40.43 42.60 43.82 43.28 43.44 46.29 50.27 53.81 54.65 55.86 56.92 56.94 57.58 57.10 57.50 58.31 59.59 59.57 58.84 58.03 57.13 56.24 57.84 57.97 58.72 59.52 60.37 60.58 58.90 57.86 57.35 55.47 54.60 54.55 54.61 54.26 53.26 53.15 52.28
35.57 40.25 39.29 38.33 33.89 30.86 31.75 30.44 33.18 37.76 37.77 41.03 43.58 44.63 44.17 47.92 49.95 53.43 54.44 55.56 57.19 57.38 56.72 55.92 57.24 57.67 58.54 59.08 58.92 58.44 57.68 57.21 57.76 57.92 57.84 58.82 59.11 59.87 59.94 58.21 58.13 57.00 56.69 56.11 55.28 54.48 53.10 53.43 53.09
41.13 39.00 39.01 36.96 33.65 27.03 31.92 30.82 30.29 33.93 39.19 42.55 44.47 45.55 45.92 45.20 49.55 52.79 54.85 55.86 56.68 57.09 56.15 56.38 56.75 55.78 56.96 57.72 58.27 57.61 56.32 55.71 56.10 56.32 56.78 57.83 57.75 58.24 58.66 59.66 57.82 57.87 57.73 56.66 56.27 55.32 54.18 53.88 53.76
38.14 36.15 27.91 26.13 25.94 25.51 33.82 30.15 33.60 39.34 42.22 43.64 44.12 45.22 46.12 46.88 47.84 52.30 54.02 55.09 55.76 55.49 55.78 55.85 55.23 54.60 55.31 56.08 56.84 56.68 56.12 55.88 56.00 56.16 56.44 56.56 57.12 56.66 56.50 58.17 57.64 58.09 57.53 57.40 56.75 55.33 54.17 53.60 53.70
35.49 35.43 27.38 23.04 23.49 26.46 34.99 27.86 34.08 42.54 43.87 45.97 45.72 46.17 44.66 45.29 48.07 51.95 54.06 54.72 55.48 55.02 55.22 55.78 55.07 54.81 54.28 53.76 54.48 55.49 53.88 54.54 56.21 56.73 56.92 57.18 57.21 57.28 57.28 57.15 57.20 57.23 57.52 57.42 57.37 56.36 55.67 55.63 54.37
35.44 33.92 38.67 33.33 34.59 29.15 30.56 35.04 40.70 44.65 43.57 44.27 44.67 45.65 45.29 45.41 45.93 50.83 53.71 54.40 55.29 55.16 54.85 55.26 55.10 55.28 55.36 54.22 54.00 53.72 53.68 54.27 55.41 56.30 56.48 56.98 57.42 57.52 56.61 56.77 56.98 56.80 57.14 57.16 57.14 56.94 56.58 56.54 56.28
38.39 41.03 32.78 33.18 26.53 23.96 30.37 33.36 34.55 39.51 40.12 42.57 43.34 44.49 46.15 50.80 50.78 52.63 53.41 54.70 55.23 55.75 55.68 55.58 55.01 55.12 55.22 55.64 53.64 53.88 53.67 53.07 53.03 54.53 55.03 55.67 56.33 56.65 55.14 55.55 56.39 56.70 56.72 56.62 56.44 56.34 56.40 55.90 56.08
35.92 35.10 35.69 35.82 33.23 28.85 27.66 32.06 42.38 41.14 41.91 41.60 43.24 45.79 47.79 50.91 51.26 52.33 53.67 54.64 55.46 55.46 55.36 54.83 54.89 55.12 54.99 55.45 55.66 53.77 53.42 53.11 52.23 52.26 52.71 54.54 54.66 55.05 54.83 54.93 55.20 55.34 56.08 56.47 55.86 55.50 55.44 55.51 55.43
38.98 36.69 36.31 31.82 31.37 34.15 33.27 33.03 45.54 44.49 44.33 44.70 44.53 45.92 46.79 47.52 48.97 52.49 53.25 54.38 53.98 54.42 55.41 54.80 55.16 55.06 55.35 56.05 55.71 55.65 55.13 53.65 52.42 52.13 52.01 52.86 53.81 53.41 53.99 55.77 54.42 54.70 55.24 55.85 55.89 55.03 54.93 54.21 53.99

GFSSGP_sfc_wetblb_078.txt.gz
Wetbulb
61.61 62.07 60.13 57.28 48.74 47.43 44.80 45.50 48.94 48.82 50.74 53.98 54.76 52.92 53.38 56.26 55.69 53.28 68.49 72.63 72.85 73.28 74.52 72.86 71.03 71.97 72.88 73.05 73.32 73.84 74.32 74.15 74.04 73.91 73.99 73.99 73.91 73.81 73.24 73.13 73.45 73.72 74.00 74.07 73.34 73.29 73.10 72.58 72.10
61.26 58.80 57.00 55.32 44.92 42.90 44.32 48.09 47.43 49.51 52.06 53.57 53.60 55.16 54.91 54.38 59.59 63.32 68.52 71.66 72.94 73.10 74.37 74.09 70.92 71.52 72.56 72.82 73.23 73.63 74.07 74.19 74.01 73.61 73.72 73.86 73.74 73.54 73.03 72.93 73.03 73.30 73.83 74.15 73.54 73.04 72.81 71.98 71.28
59.67 57.39 52.07 48.57 46.21 42.48 44.12 47.78 48.99 52.12 52.33 52.18 54.52 57.83 57.15 56.49 63.42 64.83 69.12 72.61 73.13 72.95 73.83 74.01 70.66 70.97 72.29 72.62 72.73 72.73 73.41 73.40 73.48 73.68 73.99 73.89 73.61 73.32 73.06 72.58 72.83 73.38 73.70 74.12 73.46 72.70 71.98 71.04 70.24
56.42 54.15 52.62 45.69 43.66 46.57 46.85 48.88 50.11 51.73 52.20 51.97 53.14 52.27 57.20 62.97 65.02 67.26 70.22 72.26 72.17 72.81 73.48 71.18 69.84 70.14 71.81 72.30 72.44 72.32 72.16 72.47 72.77 73.01 73.56 73.64 73.60 73.33 72.68 72.42 72.64 73.33 73.35 73.28 72.68 71.50 71.02 69.97 69.49
56.58 52.87 45.56 43.75 43.91 46.72 49.26 50.07 50.99 51.41 51.29 51.07 51.69 50.62 54.25 62.65 67.64 69.47 70.51 72.07 71.87 72.61 73.51 73.04 69.00 69.90 70.80 71.98 72.33 72.09 71.64 71.05 72.20 72.66 72.84 72.95 72.77 72.62 71.67 71.97 72.06 72.19 72.43 72.19 71.58 70.95 69.94 69.32 68.73
50.84 51.08 43.57 42.14 44.13 46.65 49.03 50.45 50.53 50.14 51.02 51.27 51.02 52.58 54.08 64.89 66.76 69.53 71.34 72.16 73.36 72.69 73.29 73.71 70.66 70.31 70.29 70.92 71.23 71.18 70.94 70.02 71.15 71.94 71.71 72.08 71.51 71.61 70.88 70.49 71.15 71.24 70.45 69.99 70.44 69.67 69.29 68.60 68.02
49.10 47.16 44.08 44.84 44.54 44.63 47.02 50.77 49.14 49.08 49.31 49.51 54.18 51.64 56.04 61.67 66.96 70.09 71.25 72.33 73.28 73.21 73.24 73.43 71.62 71.66 69.53 68.88 69.51 69.51 69.63 69.56 69.36 69.96 69.74 69.75 68.76 69.26 69.41 69.42 69.36 69.77 69.71 69.73 69.49 68.96 68.47 67.99 67.19
51.66 48.95 45.31 46.01 43.86 44.04 48.28 49.17 50.43 49.71 49.07 55.09 55.59 52.04 53.46 61.05 67.36 70.27 71.29 71.27 71.75 73.00 73.46 71.04 71.04 71.94 72.70 72.60 68.44 68.73 68.84 68.79 68.93 68.65 68.06 67.35 67.92 68.06 67.93 67.54 68.21 68.35 69.00 69.18 69.01 68.40 67.86 67.17 65.82
52.55 45.53 43.87 45.46 44.41 46.04 49.20 47.98 50.93 52.32 50.59 51.88 53.43 54.36 57.48 62.29 66.03 68.83 69.39 69.66 70.28 71.28 72.25 71.75 70.31 71.10 71.79 72.37 71.87 68.94 68.83 68.49 68.01 68.06 67.19 66.85 69.07 67.38 67.56 67.16 67.52 67.98 67.16 67.59 67.92 67.34 66.40 65.53 64.89
47.80 44.74 45.28 49.20 48.40 46.77 49.03 48.82 49.50 49.31 49.90 50.55 52.01 54.58 59.88 61.66 63.29 66.21 66.69 67.15 68.55 69.22 70.62 71.40 69.74 69.96 70.72 70.54 72.08 72.31 71.63 70.84 70.48 70.42 69.80 69.91 68.15 67.79 68.04 66.96 66.76 66.90 66.36 66.63 66.72 65.98 65.07 65.46 66.77
48.54 44.47 48.57 48.13 48.73 49.11 47.96 48.04 50.09 48.68 47.62 50.04 50.58 52.55 54.81 55.93 60.94 63.36 66.41 66.64 67.86 68.99 69.83 70.75 71.10 71.86 71.53 69.86 70.05 71.27 70.93 70.58 70.58 70.41 69.24 68.71 67.73 67.70 66.10 65.86 67.57 66.82 66.17 66.74 66.50 66.53 67.62 67.49 66.22
44.97 47.94 48.37 48.87 49.25 48.67 47.78 49.77 48.51 49.13 49.83 52.29 52.81 53.65 54.10 54.76 56.51 60.44 63.27 66.35 67.23 68.31 69.17 69.85 69.20 69.23 69.19 69.11 68.22 69.24 69.82 70.12 69.66 69.83 69.39 67.12 66.56 65.78 66.02 65.13 66.50 65.32 66.36 65.17 67.22 68.35 67.41 66.39 65.91
44.36 45.67 46.97 48.03 48.29 47.73 48.33 47.01 47.54 48.64 51.53 52.89 52.91 52.97 53.65 54.93 56.38 57.67 61.23 64.42 67.43 67.67 68.62 69.14 68.11 67.13 67.22 67.00 67.33 67.28 68.97 67.60 67.97 68.77 69.44 67.92 66.38 66.81 66.12 65.99 65.91 64.43 64.96 64.69 67.56 67.08 65.72 65.90 66.13
46.12 46.21 46.84 47.84 47.75 48.27 46.55 47.22 48.50 49.52 52.50 52.37 52.87 52.77 53.66 54.86 56.11 57.23 58.87 62.53 65.86 67.57 68.34 69.29 67.96 67.73 68.36 67.51 66.45 66.55 67.07 67.80 66.83 67.28 68.05 68.78 66.67 65.61 64.77 64.30 65.20 64.32 63.74 64.47 66.69 65.69 65.32 65.28 65.63
45.77 42.63 45.41 46.79 47.76 47.22 48.51 45.08 46.39 51.05 52.49 51.74 52.20 52.51 53.34 54.73 56.29 57.26 59.96 63.06 65.83 67.30 68.37 68.11 66.87 66.37 67.34 67.58 65.79 65.18 65.40 66.43 66.29 66.00 66.94 65.88 65.86 65.64 64.32 63.42 64.23 63.79 63.78 63.70 65.63 65.44 65.15 64.40 64.64
41.80 42.71 38.98 45.06 47.03 48.22 47.76 41.83 47.32 50.78 51.12 50.96 52.12 52.77 52.69 54.31 55.58 57.29 61.14 63.67 66.13 67.28 67.32 67.44 65.97 66.78 67.66 65.90 64.93 64.21 64.47 65.42 65.92 65.47 65.86 65.13 65.21 65.50 64.87 63.35 62.98 62.31 61.59 62.90 64.14 64.06 63.73 63.78 63.48
40.43 36.21 38.63 41.64 47.01 46.41 45.91 43.80 48.23 50.77 50.15 50.08 51.74 52.39 52.82 53.83 55.64 58.23 61.69 64.37 66.19 67.30 67.51 66.81 66.19 65.79 65.93 65.07 64.44 63.86 63.83 64.60 63.83 63.96 63.92 64.58 65.14 65.09 64.67 63.60 63.54 61.77 60.18 61.00 63.44 63.75 63.84 62.48 62.55
36.69 37.42 39.47 38.70 43.09 43.88 43.47 44.25 48.29 49.85 50.27 50.31 51.64 52.51 52.97 53.82 54.77 57.23 60.67 64.45 66.17 67.04 67.68 66.77 64.46 65.21 64.99 64.91 63.72 63.26 63.94 63.57 63.13 62.54 63.04 63.18 63.32 63.80 63.45 63.98 61.87 62.11 59.43 59.38 62.43 63.12 63.31 63.02 62.41
39.66 36.42 36.22 39.24 42.42 41.23 41.33 42.88 45.87 48.13 49.81 50.17 51.24 51.80 52.46 53.36 55.66 57.01 59.96 63.99 65.47 66.63 66.74 66.08 63.66 64.18 63.73 62.96 61.46 61.57 62.07 62.38 62.25 62.92 63.26 63.17 62.84 63.10 63.11 62.03 60.79 61.28 58.78 58.93 60.24 62.93 62.44 61.64 62.50
38.83 36.86 36.42 40.22 43.15 42.63 42.56 43.17 46.53 47.32 47.74 49.40 50.96 51.79 52.59 53.46 54.23 55.49 59.33 63.24 64.46 65.35 66.30 65.42 64.51 63.45 63.54 63.15 61.69 61.78 61.60 62.23 62.99 63.19 63.17 63.46 64.62 63.24 62.27 60.92 60.21 59.58 58.73 58.72 61.39 62.23 61.22 61.04 61.85
39.38 38.41 38.76 38.99 42.19 44.42 43.62 42.10 44.71 47.67 48.54 48.98 50.78 52.21 53.00 53.58 53.60 55.13 58.07 62.15 63.94 64.77 65.40 65.01 64.82 65.00 64.27 64.50 63.44 64.19 62.14 61.92 61.30 61.66 62.10 62.80 64.39 61.98 61.79 61.16 60.15 59.97 59.67 58.88 60.74 62.38 61.92 59.27 61.02
36.35 41.72 40.28 39.33 39.20 36.21 43.09 34.71 42.81 45.44 46.47 47.51 48.98 51.36 52.68 53.76 54.32 55.65 57.14 60.39 62.51 64.35 65.85 65.45 65.32 63.82 64.71 64.83 63.04 62.47 60.28 58.24 61.12 61.35 60.65 62.50 62.22 60.67 60.47 60.36 60.09 59.85 60.72 59.81 60.96 62.26 62.20 61.38 58.99
38.19 42.33 40.49 40.75 39.57 39.51 40.01 37.56 42.20 44.90 43.88 46.48 49.30 51.34 53.21 54.78 54.87 56.26 57.28 59.49 62.43 64.52 64.79 65.56 65.15 63.53 64.55 64.07 63.41 62.25 60.13 59.94 61.83 61.13 60.06 61.04 60.62 59.77 59.01 59.28 59.01 59.31 60.12 61.75 62.46 61.83 61.58 61.50 60.45
43.07 40.36 40.37 41.18 39.74 32.34 38.70 38.25 41.01 42.99 44.66 47.32 50.16 51.24 53.25 54.68 56.05 56.53 57.92 60.40 62.02 64.20 64.57 64.09 63.63 62.21 63.53 63.63 63.04 61.56 60.22 60.07 60.92 59.96 60.03 59.40 59.56 59.40 59.27 58.60 58.58 58.61 59.00 61.17 61.45 61.24 61.36 61.10 60.94
41.36 36.60 31.00 31.14 29.98 31.34 39.56 37.57 40.71 45.75 48.12 48.88 49.43 52.32 54.47 56.08 56.75 56.71 58.11 59.51 61.48 62.82 61.35 61.28 62.74 60.70 61.58 62.69 62.32 62.16 62.09 61.18 59.91 60.64 59.33 59.39 59.21 58.68 58.20 58.28 58.19 56.80 57.57 59.42 60.36 60.15 59.98 60.02 60.17
37.67 36.74 31.90 25.66 29.08 33.75 39.93 34.85 41.97 47.75 49.68 50.89 51.90 53.74 55.61 56.90 57.65 56.11 58.94 59.88 60.98 62.29 58.69 59.34 60.91 59.50 60.47 61.79 61.84 61.94 61.67 60.09 59.85 60.51 61.73 61.19 59.86 60.24 61.18 58.87 57.90 57.62 56.55 56.84 57.26 57.54 57.65 59.04 59.08
38.80 35.60 41.32 34.72 36.32 31.82 36.61 41.23 45.81 48.28 48.41 50.01 50.94 51.39 51.87 55.28 57.60 56.32 58.06 60.46 61.10 61.52 57.19 58.79 59.26 58.88 59.59 60.04 61.46 62.11 61.46 61.50 60.22 60.48 60.31 59.59 60.35 60.18 60.05 59.41 59.13 58.56 57.56 56.66 56.56 55.92 55.87 56.22 57.88
41.64 43.42 33.29 35.92 27.54 27.54 35.83 37.66 38.92 43.21 45.36 48.16 48.30 48.23 47.97 50.32 55.56 56.35 58.15 59.30 61.15 59.11 57.57 59.16 59.54 58.70 58.94 59.32 59.38 60.08 61.02 61.18 60.25 59.75 59.51 60.92 60.83 60.39 60.00 59.30 58.50 58.37 58.19 58.66 57.26 56.19 56.44 55.62 55.68
38.66 37.60 37.77 36.35 35.98 30.79 30.67 35.22 41.95 41.20 43.08 43.87 45.68 45.18 44.93 46.13 48.25 55.89 57.47 58.51 57.95 57.07 57.39 57.57 58.95 59.15 58.12 57.99 58.50 59.68 59.45 60.07 59.55 59.14 58.93 59.27 59.62 59.87 58.77 59.77 59.62 58.78 58.08 57.92 57.26 57.32 55.93 55.18 55.69
42.44 39.38 39.44 33.69 31.27 35.26 33.89 36.68 44.79 42.87 41.96 42.11 41.91 42.08 43.14 43.86 45.27 46.47 53.45 55.47 55.68 56.21 56.44 57.17 58.68 59.02 59.70 57.73 57.95 58.73 59.14 60.12 60.14 59.25 58.96 59.29 59.01 59.35 59.61 59.55 59.18 58.49 57.85 57.96 57.66 57.05 57.00 55.87 54.45

GFSSGP_sfc_wetblb_081.txt.gz
Wetbulb
63.03 62.42 61.52 56.51 48.57 48.82 45.64 47.75 51.90 49.66 50.54 54.67 55.92 54.38 53.06 55.35 55.05 54.94 68.20 72.85 72.63 73.01 73.46 72.82 71.84 72.80 73.13 73.33 73.46 73.83 74.09 74.06 73.89 74.03 74.03 74.01 74.05 74.15 73.83 73.66 73.65 73.74 74.43 74.37 73.40 72.99 72.99 72.56 72.49
61.36 60.16 58.38 53.19 46.44 44.17 46.06 50.55 49.27 50.92 52.64 55.33 55.06 55.39 54.69 54.42 59.68 62.86 67.57 71.72 72.94 72.99 74.28 73.27 71.21 72.36 73.01 73.13 73.26 73.48 74.38 74.22 73.99 73.98 74.05 73.26 74.03 73.93 72.99 73.40 73.27 73.74 74.03 73.85 73.29 73.39 73.23 72.35 71.67
61.81 59.73 52.99 49.08 46.84 44.60 45.62 50.29 50.71 52.05 53.74 53.11 52.91 57.49 57.89 56.25 60.64 62.89 70.30 71.98 71.50 71.46 73.35 74.04 70.87 71.72 72.54 72.91 73.13 73.19 73.74 73.75 73.68 73.58 74.03 73.96 73.98 73.89 73.09 72.57 73.21 73.37 73.95 73.35 73.07 73.23 72.36 71.38 70.66
59.10 56.14 53.12 46.95 45.57 48.84 49.48 51.25 52.45 50.73 53.90 54.01 54.09 52.64 58.47 62.01 63.95 66.31 71.06 71.57 70.99 71.38 72.49 70.36 70.30 71.05 72.11 72.66 72.86 73.06 73.04 72.70 73.05 73.12 73.65 73.93 73.86 73.52 72.08 71.42 73.00 73.35 73.75 73.28 73.05 72.22 71.46 70.25 69.80
57.66 53.60 47.06 45.91 46.25 48.74 50.94 51.70 51.71 50.67 52.79 52.96 52.82 51.43 54.04 61.28 64.91 68.00 70.04 70.98 71.38 71.87 73.31 73.51 69.53 70.21 71.68 72.47 72.69 72.37 72.06 72.30 72.45 72.99 72.93 73.13 73.31 73.05 71.32 71.71 72.30 72.60 72.39 72.29 71.83 71.53 70.25 69.85 69.44
52.41 52.55 45.77 44.38 46.65 49.61 51.04 52.25 51.82 50.80 52.59 53.98 53.06 52.65 54.31 61.30 63.69 67.37 70.14 71.45 72.40 72.57 73.36 74.03 70.44 70.25 70.59 71.33 71.88 71.44 71.31 71.50 71.90 72.34 71.73 72.56 71.25 71.30 70.60 70.69 70.82 70.81 70.54 70.03 70.76 70.05 69.65 69.29 68.92
50.97 49.65 45.92 46.60 46.94 48.58 50.34 52.48 50.75 50.80 50.91 51.10 53.85 50.38 55.40 58.85 64.94 67.71 70.06 72.12 72.99 73.51 73.55 74.29 72.75 71.39 69.56 69.28 70.06 70.43 70.77 70.43 69.82 70.34 69.76 70.22 69.06 69.33 69.70 69.67 69.72 69.85 69.30 69.47 69.76 69.34 68.82 68.61 67.85
53.35 50.99 46.98 47.82 46.49 47.26 51.48 50.67 52.10 50.87 50.28 54.56 54.49 50.99 52.22 61.24 63.98 68.64 70.67 71.23 72.21 72.90 73.45 73.83 73.38 73.42 72.86 72.64 69.08 69.54 70.04 69.19 69.72 70.51 68.92 68.46 68.76 67.69 68.22 67.60 67.81 67.79 68.65 68.86 69.18 67.98 67.75 67.48 66.50
55.09 47.77 45.28 46.86 47.33 48.98 51.60 50.14 52.84 53.65 51.53 52.35 53.96 54.62 56.43 61.63 62.17 66.99 68.65 69.81 70.14 71.69 72.69 72.02 72.14 72.97 73.26 72.11 71.60 69.57 69.43 69.33 68.53 68.89 67.89 67.39 69.95 68.91 68.16 65.38 65.63 67.08 67.17 67.20 67.76 67.29 66.57 65.26 65.35
50.30 46.58 46.75 50.40 50.95 49.79 51.15 50.91 51.02 51.03 50.52 51.06 51.80 54.53 56.42 60.61 60.36 62.99 66.42 67.56 68.25 69.73 71.53 72.79 70.91 72.71 72.71 71.40 72.35 72.24 71.80 71.18 70.91 70.04 70.55 70.72 70.47 68.88 66.86 64.24 64.37 66.86 66.53 67.15 67.08 66.10 65.12 65.34 66.63
49.51 45.61 49.49 49.82 51.19 51.33 50.41 50.35 51.92 50.23 49.13 51.70 51.74 53.20 55.27 56.71 57.64 61.05 63.91 66.86 68.02 69.80 70.78 71.76 71.42 72.21 72.03 71.21 71.73 72.20 71.10 70.68 71.07 70.74 70.53 70.63 70.35 67.83 68.43 65.88 66.82 67.48 67.33 67.63 66.10 65.46 67.83 67.88 67.47
47.29 49.76 50.06 50.19 50.86 50.62 49.07 50.78 49.50 50.37 50.94 53.40 54.04 54.01 54.81 54.79 56.13 57.73 60.38 64.87 67.17 68.91 70.02 70.97 71.75 71.54 71.49 70.78 71.46 71.35 70.41 70.07 70.39 70.17 69.85 69.54 69.15 67.57 66.61 67.28 67.29 67.23 67.75 66.32 65.63 66.24 68.22 67.17 66.69
46.36 47.42 49.03 50.08 49.55 49.08 49.97 48.51 48.80 49.50 52.40 53.77 53.81 54.23 54.11 54.16 54.89 56.79 58.85 62.75 66.54 67.48 69.43 70.80 71.25 70.78 70.14 69.45 69.34 70.11 70.70 70.49 70.56 69.93 69.87 69.24 68.05 66.77 65.47 65.88 65.94 66.38 67.15 65.70 65.07 65.24 67.40 66.68 65.84
47.68 47.68 47.69 48.64 48.30 48.65 46.94 47.43 48.72 49.66 51.90 52.01 52.75 53.27 54.42 54.50 55.03 56.11 58.36 59.43 63.60 66.99 69.01 70.54 70.39 69.87 69.25 68.09 68.01 68.40 69.83 69.66 69.87 69.28 69.49 68.84 68.37 67.42 66.20 64.48 65.92 66.66 66.34 64.57 64.10 64.48 65.81 66.19 64.35
48.18 44.61 46.22 46.93 47.62 46.80 48.40 45.44 46.91 50.99 52.00 51.79 52.09 53.38 54.53 55.14 55.34 55.63 58.47 59.60 61.41 64.97 68.82 69.89 70.20 69.95 69.54 69.21 67.64 67.98 67.87 68.20 67.33 67.80 69.12 68.44 68.46 68.00 67.30 66.62 65.61 65.48 64.53 63.47 63.63 63.74 66.18 65.55 63.74
43.59 44.07 40.26 45.74 47.59 48.43 48.33 42.27 48.65 51.95 51.02 51.10 52.50 53.37 54.06 54.76 54.96 55.80 58.44 59.67 61.64 64.71 68.09 69.86 69.40 69.02 69.23 68.74 67.42 66.06 67.40 67.99 66.74 67.29 67.76 67.80 67.64 67.35 64.98 64.11 64.15 64.66 63.60 63.42 63.09 62.86 64.79 63.40 63.59
41.69 36.51 40.26 42.47 47.59 46.64 46.79 44.53 49.46 51.85 51.50 50.66 51.80 53.15 53.80 54.20 54.64 55.86 58.32 59.48 62.17 65.91 68.21 69.20 69.05 68.06 68.52 68.55 65.66 65.29 65.99 65.59 65.97 66.77 66.54 66.96 66.18 65.90 65.15 64.91 63.38 63.74 63.18 62.69 62.35 62.04 64.66 62.83 61.51
37.18 39.10 41.33 41.04 44.20 45.80 44.88 44.37 47.06 49.42 50.49 50.89 51.77 52.37 53.16 53.92 54.24 56.01 58.22 60.67 63.58 66.70 68.43 69.32 68.41 68.39 68.25 66.88 64.92 65.58 64.21 64.48 64.88 64.72 65.05 66.13 66.19 64.66 65.27 63.75 62.47 62.77 61.94 61.65 61.87 61.55 63.84 62.95 62.29
41.19 39.50 38.35 41.48 43.50 42.23 41.60 42.96 44.65 47.17 48.10 48.84 51.17 51.90 53.10 54.42 55.68 56.75 58.65 60.82 64.38 67.04 67.96 68.44 67.58 67.74 66.96 65.57 64.18 63.71 63.82 64.08 64.14 64.41 64.28 64.24 64.81 65.63 65.14 63.10 61.95 61.59 61.56 60.87 61.40 60.92 61.61 61.76 61.82
39.75 38.36 37.18 41.12 43.79 43.73 43.35 43.68 46.56 47.66 47.54 48.96 49.61 51.52 53.17 54.52 55.07 55.67 57.66 60.54 64.57 66.22 67.52 68.04 67.02 66.99 66.40 65.73 64.80 64.22 63.83 64.78 64.94 64.93 64.56 63.99 63.84 64.48 62.84 62.65 61.27 61.66 60.57 59.58 59.76 60.58 60.19 61.27 61.95
39.91 38.36 38.67 39.39 43.75 45.13 43.22 41.92 44.71 48.06 49.08 50.14 51.18 51.74 52.97 54.52 54.64 55.09 55.90 59.81 64.34 65.34 67.16 67.43 66.91 66.40 66.00 65.78 64.97 64.10 62.70 63.82 62.64 63.58 64.28 63.72 64.58 64.54 64.08 61.88 60.87 60.66 59.90 58.77 59.31 60.09 59.78 58.92 60.98
37.32 43.10 42.26 40.82 39.67 36.01 44.63 35.64 42.99 45.62 47.25 49.34 50.68 51.71 52.37 54.01 55.09 55.49 55.71 58.80 63.18 64.95 67.19 67.48 66.96 66.17 66.00 65.71 64.08 62.67 61.62 60.00 62.59 62.99 63.74 63.79 63.93 64.23 63.60 61.34 60.76 60.19 59.73 58.86 59.50 60.91 60.63 60.29 59.12
40.26 44.02 42.11 41.35 38.13 38.35 39.47 37.86 41.11 46.34 45.47 48.14 50.37 51.12 52.17 54.12 55.30 55.12 55.78 57.44 62.61 65.15 66.40 67.28 67.02 66.31 65.94 65.60 65.29 63.59 62.35 62.70 63.32 62.66 62.29 62.04 62.38 61.51 61.01 60.90 60.25 59.70 59.51 59.12 59.40 60.09 60.64 61.03 60.17
44.19 41.60 41.45 41.28 38.58 31.90 38.10 38.98 39.55 44.30 46.41 48.80 51.29 52.91 53.29 54.45 55.65 56.26 56.44 57.17 61.36 64.76 66.60 66.54 66.10 65.59 65.78 66.00 65.12 63.78 62.84 62.23 62.30 61.69 61.25 60.53 60.48 59.78 59.14 59.98 60.29 60.40 59.95 59.23 59.50 60.59 61.49 61.65 61.79
42.14 38.65 31.18 31.31 32.08 31.47 41.00 38.63 41.25 46.29 49.34 49.73 50.52 52.46 55.23 56.95 57.32 57.14 56.65 57.58 59.93 63.29 65.27 65.66 65.73 63.99 65.42 65.17 64.31 63.65 63.09 62.92 60.85 61.64 60.90 60.00 58.37 58.47 58.21 58.46 58.66 58.82 60.09 60.49 60.55 60.39 61.24 61.60 60.96
39.91 38.34 31.52 25.74 28.33 32.14 40.58 36.13 41.59 49.47 51.00 51.91 53.20 54.06 54.70 56.08 59.31 59.17 58.21 59.01 60.96 63.11 64.56 64.99 64.80 62.63 64.57 64.75 64.04 63.54 63.41 62.52 62.86 62.91 61.86 60.87 59.83 59.65 58.80 58.39 58.23 58.00 58.72 59.20 60.27 61.09 61.48 61.58 61.60
39.60 36.07 41.12 34.90 36.91 32.60 36.01 40.64 47.51 49.36 49.00 50.64 51.21 52.73 52.27 53.41 55.45 59.07 58.82 60.85 61.93 63.49 62.85 62.87 63.79 60.96 63.06 64.09 63.90 62.94 62.46 61.66 61.79 62.21 62.35 62.13 62.11 61.31 60.84 58.98 57.49 56.95 57.40 57.94 58.51 58.66 59.66 60.87 60.73
41.98 43.78 34.64 36.27 27.26 27.46 35.44 37.61 38.24 42.98 45.42 47.44 47.39 47.63 48.38 48.70 49.31 54.58 59.40 60.98 62.32 62.90 60.90 60.76 61.97 59.98 61.44 63.60 63.40 61.70 62.09 61.84 62.02 62.27 61.39 60.65 61.12 61.05 61.27 60.34 59.07 57.31 56.68 57.08 56.68 56.61 56.77 56.53 57.17
40.19 38.46 39.17 38.41 36.62 30.05 30.05 34.91 42.84 41.36 43.38 43.12 44.44 45.65 44.07 43.68 43.99 48.82 53.06 60.55 61.57 59.40 58.92 59.67 59.51 59.82 60.02 60.52 61.74 60.52 60.64 61.48 61.81 61.29 61.31 60.57 61.30 60.63 59.97 60.23 59.53 58.35 57.03 56.33 55.83 56.35 55.31 55.00 55.23
42.66 40.70 39.35 33.17 32.45 36.34 35.56 35.71 43.21 44.25 42.91 42.82 44.11 42.76 41.58 41.43 41.37 43.20 46.68 49.00 56.62 56.95 57.56 58.09 59.30 58.47 59.09 59.79 60.26 59.99 60.31 60.13 60.65 60.21 60.92 61.20 60.24 60.00 59.56 59.53 59.41 58.93 58.41 57.88 57.19 56.05 55.53 54.95 54.82

GFSSGP_sfc_wetblb_084.txt.gz
Wetbulb
62.63 61.55 60.74 57.51 46.31 46.55 43.45 45.49 50.29 49.61 50.48 53.41 54.64 53.99 52.54 53.68 55.50 53.77 70.16 72.23 73.54 72.07 72.31 72.42 72.36 73.19 73.58 73.81 74.12 73.95 73.83 74.02 74.12 74.18 74.23 74.31 74.36 74.23 74.25 73.86 73.70 74.28 74.64 74.52 73.74 73.71 72.82 72.53 72.66
59.83 60.30 58.27 52.50 43.54 40.90 43.26 48.89 48.52 50.73 52.74 55.55 55.32 54.23 53.05 52.47 58.20 64.37 67.45 71.38 72.62 71.50 71.90 72.22 72.17 72.62 73.21 73.21 73.49 73.91 74.04 74.20 74.09 74.06 74.13 74.08 74.23 74.08 73.70 73.42 73.36 73.95 74.04 73.77 73.44 72.98 73.10 72.61 71.90
58.99 59.10 52.17 47.84 44.40 41.34 43.30 48.95 51.06 52.49 53.65 53.33 52.24 54.26 54.91 55.06 58.42 64.63 70.51 71.92 72.07 72.02 71.76 72.22 71.51 72.10 72.84 72.93 72.97 73.33 73.78 73.69 73.57 73.60 74.01 73.85 73.92 73.50 73.52 72.79 73.16 73.48 73.97 73.50 73.35 73.22 72.67 71.51 70.66
55.58 56.17 52.84 44.98 43.11 46.75 47.32 49.61 51.68 51.85 53.03 53.94 53.04 50.83 57.26 62.39 63.69 66.95 70.79 70.92 70.65 71.60 72.42 69.51 70.39 71.45 72.47 72.78 72.88 73.04 73.28 72.94 72.91 73.06 73.41 73.85 73.85 73.49 72.96 72.15 72.57 73.44 73.70 73.20 73.22 72.66 71.46 70.40 69.95
54.47 53.86 45.78 43.92 44.25 47.27 49.93 51.35 52.01 50.69 51.11 52.82 53.30 50.96 53.54 60.44 64.03 68.95 70.13 70.16 71.00 72.48 72.53 70.85 69.79 71.09 72.08 72.75 72.73 72.73 72.65 72.44 72.63 72.78 73.02 73.30 73.19 72.63 71.96 71.79 72.19 72.74 72.31 72.50 72.43 71.91 70.51 69.95 69.58
50.88 51.83 44.00 42.12 44.81 48.36 50.59 52.11 51.51 50.90 51.13 52.18 52.38 51.83 53.24 59.70 63.06 67.11 70.07 71.22 73.20 72.95 73.54 71.54 70.56 70.84 71.19 71.64 71.83 71.51 71.73 72.12 72.19 72.22 72.46 73.17 72.46 71.02 70.37 70.74 71.01 71.07 70.57 70.40 70.31 70.22 69.91 69.63 69.42
50.64 48.41 44.20 44.77 45.44 47.28 50.08 53.70 51.27 50.53 50.64 50.43 53.55 51.86 55.47 57.05 65.96 67.85 69.95 71.86 73.16 74.08 73.95 72.08 70.95 70.49 70.25 69.97 70.23 70.56 70.92 70.71 71.43 71.50 70.93 71.40 69.74 69.01 69.87 69.30 68.70 68.89 69.19 69.16 69.16 69.60 69.35 69.23 68.62
53.70 50.35 45.11 46.26 45.39 45.98 51.33 51.90 52.44 50.94 49.99 55.23 54.17 49.80 50.69 59.98 65.74 69.73 71.11 70.19 71.55 73.49 74.02 73.08 71.89 71.26 70.79 70.55 69.34 69.85 70.60 70.22 70.32 70.64 69.93 68.72 68.86 69.11 68.74 68.17 66.73 67.56 67.70 68.31 69.15 68.77 68.72 67.92 67.09
54.93 46.13 43.51 44.69 45.72 47.60 52.00 50.51 53.30 53.62 51.32 52.10 52.76 53.24 56.60 62.17 62.79 67.30 67.54 68.79 69.94 71.38 72.45 73.22 72.51 72.01 72.21 71.69 70.36 69.64 70.11 69.74 68.95 69.34 68.30 67.05 69.23 68.40 68.21 67.29 67.36 67.58 66.66 66.75 68.00 67.79 66.82 65.90 65.66
48.72 46.11 45.34 49.26 49.96 49.05 50.78 50.76 51.43 51.00 50.66 50.98 51.72 55.07 56.84 59.61 60.50 61.19 64.75 65.63 68.21 69.50 70.81 71.54 71.31 72.23 72.38 70.80 70.97 70.47 70.51 70.11 69.80 69.40 68.89 69.64 69.26 68.19 67.37 65.97 66.67 66.71 66.30 66.42 67.00 66.66 65.48 65.15 65.11
47.24 44.56 48.49 49.46 50.30 50.61 49.56 49.61 51.82 50.04 48.79 51.68 51.74 53.42 55.40 57.11 58.13 60.34 60.75 64.53 66.72 68.95 70.05 71.35 70.71 72.19 71.94 70.41 71.56 71.13 70.46 70.12 69.74 69.67 69.16 69.30 69.12 66.84 65.01 63.47 64.42 65.66 66.53 66.08 66.35 65.47 65.66 65.98 64.90
45.20 47.67 48.33 48.69 50.30 49.86 48.35 50.25 49.27 50.01 50.61 53.11 53.45 54.36 54.79 54.43 57.14 58.35 58.86 61.19 65.85 67.54 69.35 71.44 70.43 70.68 70.97 70.32 70.22 70.41 70.44 70.12 69.26 69.31 68.79 68.45 67.72 65.28 64.78 64.16 64.47 65.26 65.53 65.85 65.59 65.00 65.95 65.90 65.62
45.06 46.54 48.20 49.72 49.35 49.56 49.67 47.81 47.54 48.62 51.62 52.95 53.19 53.61 53.53 54.09 54.76 56.54 56.49 58.20 61.89 65.99 68.41 69.90 70.60 70.46 70.67 70.56 69.75 70.11 70.19 69.02 68.90 69.07 68.70 68.19 67.45 65.97 66.56 65.67 65.04 65.32 65.53 65.48 64.89 64.82 65.15 65.01 64.80
47.13 47.02 46.74 47.58 47.52 47.94 46.37 46.65 47.27 48.41 50.56 50.55 51.06 51.62 52.86 54.08 54.45 54.85 54.92 55.93 60.12 64.01 67.63 69.98 70.26 70.46 70.07 69.03 69.14 69.13 69.67 69.69 69.19 68.72 68.18 67.74 67.14 66.15 65.62 65.41 65.18 64.84 65.20 65.35 64.49 64.17 64.01 63.72 63.78
47.70 44.11 45.90 46.51 46.96 46.02 47.63 44.08 44.71 49.14 50.17 49.88 50.67 51.96 52.13 53.37 54.62 54.45 55.01 56.04 59.31 62.98 66.48 69.43 69.79 69.73 68.72 68.03 68.22 68.01 68.68 68.61 68.27 67.84 67.95 67.70 67.01 66.09 64.99 64.37 64.33 64.34 65.38 64.59 63.67 63.43 63.58 63.29 63.70
43.66 43.45 38.22 43.89 45.21 46.34 45.69 40.31 46.21 49.90 49.98 49.49 50.61 51.42 52.40 53.26 54.33 55.41 56.32 56.26 58.28 61.62 64.49 69.55 69.34 68.43 68.30 67.80 67.25 66.91 66.32 67.55 67.13 67.49 67.31 67.14 66.67 66.26 65.08 64.11 64.20 65.00 64.48 63.18 62.61 62.36 62.55 62.49 62.26
41.71 36.28 38.67 41.05 45.67 45.46 45.09 42.39 47.47 50.68 50.39 49.90 51.01 51.24 52.34 53.31 54.36 55.53 56.37 55.96 57.00 59.96 64.31 68.56 68.59 67.88 68.24 68.04 66.66 65.90 65.48 66.79 66.55 66.53 66.78 66.67 65.84 65.63 65.02 64.33 64.40 63.87 63.32 62.44 62.27 62.09 62.07 61.13 60.96
36.94 37.91 39.75 39.10 42.87 44.41 43.01 42.96 46.59 48.77 48.10 48.30 49.41 51.09 52.19 52.81 54.25 55.82 56.10 55.96 57.09 59.50 66.74 69.01 68.16 67.37 67.75 67.09 65.17 64.55 64.53 65.49 65.93 65.39 64.99 65.46 65.28 65.07 64.95 63.64 63.60 63.27 62.44 62.18 62.12 61.70 61.64 61.14 60.28
41.14 39.16 37.62 40.60 43.46 41.59 41.48 41.77 43.78 46.27 46.64 46.72 47.34 48.97 51.16 52.28 54.78 55.53 56.48 56.20 59.08 63.62 66.92 68.38 67.00 66.54 66.81 64.19 62.93 62.71 61.81 63.14 63.35 63.99 64.11 64.69 64.62 64.87 64.19 63.35 62.81 62.83 62.00 61.65 61.51 61.10 60.23 59.91 59.76
40.72 38.06 37.43 40.43 42.53 42.17 41.73 41.65 45.31 47.28 47.97 48.14 47.34 48.37 50.03 52.31 53.68 55.47 55.96 58.23 62.04 64.86 66.42 67.74 66.80 66.83 66.48 64.81 63.77 63.66 63.04 63.34 62.95 63.41 63.61 64.34 64.38 64.45 63.55 62.91 62.08 62.04 61.34 61.36 60.81 60.50 59.23 59.68 59.89
40.19 37.81 37.56 37.79 41.21 43.12 41.88 39.92 42.76 46.32 47.04 48.58 49.57 49.96 49.80 51.03 52.90 54.52 55.67 56.92 62.42 64.63 66.16 67.26 66.35 66.73 66.13 65.20 64.32 63.42 63.41 62.89 61.72 62.11 62.85 63.28 63.81 63.54 63.55 62.92 61.51 61.26 61.30 60.45 60.65 60.14 59.25 57.77 58.80
36.72 42.19 41.21 40.47 38.68 33.74 42.08 31.78 40.42 43.36 45.64 48.12 49.18 49.68 50.20 50.80 51.78 54.71 55.59 56.10 62.02 63.70 66.97 67.41 66.78 66.14 65.85 65.30 63.41 61.74 60.41 59.84 61.00 61.04 62.77 63.06 63.69 63.04 63.09 62.36 61.54 61.23 61.02 60.46 60.12 60.85 59.82 58.73 56.69
38.53 43.19 41.91 40.82 38.64 37.74 37.38 34.07 38.47 43.57 43.31 46.06 48.79 50.96 51.22 52.06 52.93 54.35 55.44 56.39 62.49 63.90 66.27 67.12 66.39 65.53 65.15 64.78 63.55 61.88 60.54 61.09 61.24 61.49 61.64 61.77 62.05 62.94 63.17 61.43 61.05 60.54 60.52 59.69 59.87 59.87 59.57 59.34 57.78
44.49 41.58 40.72 40.27 38.01 30.75 36.09 35.11 35.69 39.85 44.49 47.73 50.74 52.42 54.71 53.53 53.22 54.33 56.35 56.75 60.95 63.44 65.81 66.57 65.62 64.64 64.60 64.50 63.23 62.50 61.09 60.56 60.29 60.18 59.95 60.94 60.14 59.89 60.65 61.22 60.54 60.42 60.20 58.94 59.22 60.03 59.76 59.45 58.59
42.12 38.09 29.74 28.36 29.16 28.34 38.24 35.94 38.90 45.51 48.07 49.14 49.84 52.04 54.01 54.93 55.73 57.20 58.21 55.49 57.11 62.51 64.66 65.85 65.12 63.83 64.45 63.93 64.03 62.81 62.49 61.24 60.82 60.28 60.33 59.55 58.75 58.43 58.83 59.38 59.56 59.29 59.54 59.35 58.58 59.27 59.44 59.27 58.38
39.19 38.12 31.16 23.23 25.87 29.49 37.57 32.78 39.74 47.95 50.48 50.16 50.50 50.77 51.68 51.41 51.79 53.43 55.34 54.24 58.86 62.82 64.76 64.91 64.60 63.64 63.96 63.98 63.29 62.89 62.17 60.99 61.09 61.42 60.96 59.71 58.98 58.68 59.17 58.79 58.93 59.08 59.62 59.36 59.31 58.81 59.39 59.18 58.69
38.94 35.15 40.53 33.83 35.04 30.13 34.23 38.33 44.58 45.97 46.69 47.46 47.16 47.76 47.47 47.79 48.80 50.42 52.53 54.24 60.06 62.65 64.01 64.10 64.23 63.22 63.75 63.54 62.94 62.18 61.71 61.18 60.76 61.04 61.23 60.91 60.10 59.76 58.79 58.34 57.87 58.11 58.25 59.42 59.34 58.59 58.57 58.70 58.83
41.21 43.05 34.28 34.21 25.39 24.89 32.35 35.14 35.94 39.47 41.82 44.60 44.55 44.89 45.48 45.50 44.93 46.63 47.64 50.72 61.67 63.25 62.87 62.58 62.33 62.16 62.63 62.67 62.89 61.83 61.20 60.96 61.03 61.04 61.01 60.80 60.97 60.09 59.23 58.54 57.56 57.11 57.37 57.57 57.71 57.87 58.12 58.18 58.24
39.03 37.66 38.25 37.67 34.85 27.65 26.87 31.94 39.17 40.06 42.48 42.86 44.26 44.15 42.79 41.81 41.62 42.33 43.93 47.05 51.83 60.03 60.51 59.78 60.34 60.02 60.83 60.95 61.04 60.88 60.26 60.38 61.03 61.14 60.86 60.17 60.68 60.03 59.95 59.10 57.62 56.57 56.53 56.95 56.83 56.49 56.43 56.15 55.55
42.05 39.38 39.57 32.20 30.27 34.56 33.37 33.21 43.89 44.46 44.97 44.64 43.37 43.04 41.56 40.03 39.77 40.16 40.62 43.05 45.75 47.96 54.35 58.77 58.92 59.23 59.30 60.50 59.85 59.75 59.89 60.17 60.01 59.65 60.04 60.07 59.54 59.77 59.42 59.31 58.69 57.62 56.63 56.27 55.97 55.57 55.33 55.23 54.69

GFSSGP_sfc_wetblb_087.txt.gz
Wetbulb
58.49 58.25 55.42 51.98 40.28 36.49 32.82 38.56 45.18 45.14 46.04 48.20 51.89 51.05 48.94 49.41 55.01 51.36 67.63 70.40 70.76 70.27 71.50 71.92 72.21 73.33 73.71 73.54 73.36 73.25 73.68 73.99 74.09 74.23 74.21 74.17 74.10 74.17 73.92 73.75 74.01 74.49 75.01 74.61 73.86 73.36 73.34 73.08 72.50
55.81 57.21 52.81 46.81 35.63 29.93 33.76 43.39 43.76 46.82 49.36 51.66 53.05 50.93 50.03 50.46 60.80 64.74 65.99 70.61 70.67 70.77 71.26 71.62 71.99 72.61 73.36 73.35 73.27 73.19 73.85 74.18 74.16 74.11 74.26 74.16 74.04 74.14 73.86 73.41 73.44 74.38 74.71 74.59 73.60 73.27 72.95 72.37 71.93
55.50 56.07 45.53 40.07 34.91 33.62 33.71 42.73 45.71 48.67 50.57 50.49 49.26 50.63 52.78 53.39 62.44 65.30 67.68 69.87 70.08 69.43 70.90 71.47 71.49 71.87 72.44 72.76 73.00 72.99 73.36 73.56 73.64 73.74 74.18 74.24 74.03 73.81 73.53 73.00 73.27 74.08 74.31 74.36 73.40 73.36 72.93 71.68 70.87
51.44 49.31 46.49 36.95 35.12 39.19 41.81 44.51 46.42 47.31 49.29 49.49 48.28 49.28 53.97 61.78 63.14 67.23 69.18 69.83 68.72 68.72 70.90 69.99 70.48 71.38 72.09 72.48 72.49 72.80 72.82 72.44 72.62 73.04 73.64 73.90 73.72 73.75 73.07 72.40 73.04 74.12 73.93 73.62 73.52 73.41 71.94 70.54 70.04
46.93 44.64 37.80 34.76 38.23 41.63 45.73 47.53 48.22 47.56 48.26 49.88 49.67 49.17 50.68 59.96 67.45 67.79 67.33 68.94 68.46 68.95 69.45 69.83 69.70 71.00 71.88 72.32 72.38 72.38 72.38 72.09 72.28 72.80 72.86 73.15 73.17 73.05 72.42 72.02 71.87 72.99 72.90 72.10 72.41 72.22 70.90 70.20 69.70
41.07 43.50 34.66 35.81 39.64 44.24 46.61 48.12 48.18 48.73 49.52 48.60 48.64 48.86 49.06 56.62 64.51 66.02 66.56 68.67 70.18 69.22 69.01 69.39 70.62 70.80 71.10 71.54 71.53 71.36 71.80 71.84 71.77 72.02 72.41 72.86 72.55 71.85 71.23 71.25 70.51 70.61 70.02 69.92 70.61 70.25 70.24 69.72 69.42
41.81 39.28 36.76 37.31 40.06 43.18 47.10 50.14 47.66 48.27 49.23 47.26 50.71 48.73 50.00 59.96 63.62 65.70 66.87 68.99 70.92 70.58 68.70 68.63 69.32 70.39 70.24 69.64 69.88 69.99 70.83 71.33 71.46 71.41 71.42 71.65 70.70 69.52 69.97 69.94 69.11 68.40 68.20 68.18 68.74 69.33 69.53 69.45 68.71
45.97 42.88 39.54 41.08 40.78 41.97 48.11 49.75 50.40 48.50 46.25 53.77 51.64 46.65 45.25 58.59 63.09 65.41 66.98 68.01 70.04 70.17 69.07 67.86 67.61 68.20 67.93 68.17 68.90 69.50 69.69 69.58 70.08 70.55 69.78 69.54 69.09 69.60 69.18 68.43 68.44 68.54 67.40 66.83 67.82 68.38 68.97 68.92 67.55
49.38 41.23 39.57 41.52 42.76 44.63 49.59 48.27 50.50 50.04 47.94 49.30 50.31 49.78 57.42 61.07 62.63 62.11 62.86 64.86 67.91 69.64 69.64 68.56 67.97 67.95 67.77 67.46 68.85 69.57 70.17 69.74 69.33 69.42 68.24 66.78 67.43 67.28 67.93 65.94 66.81 67.31 65.34 66.83 67.50 67.79 67.16 66.67 66.51
41.05 39.98 41.59 46.13 47.00 46.25 48.45 47.53 47.24 47.81 48.19 49.07 48.57 52.10 57.02 58.39 59.57 60.38 60.32 60.95 65.66 66.87 69.30 68.97 68.85 68.71 68.69 69.88 67.64 67.21 68.69 67.77 67.50 67.75 66.49 67.14 66.15 65.98 66.67 65.35 66.79 66.61 66.54 66.67 66.81 67.11 66.01 65.57 64.20
40.29 38.69 43.31 46.60 48.96 48.80 47.18 46.46 47.37 45.29 45.47 48.52 48.24 50.15 51.76 55.09 54.81 55.35 58.93 60.83 65.31 67.45 69.38 68.72 68.08 69.16 68.82 67.79 67.59 67.81 67.72 67.36 67.07 66.61 66.06 66.78 66.48 65.28 65.62 65.24 65.68 65.41 66.11 65.45 66.11 65.69 65.53 65.06 63.92
40.12 44.15 44.53 45.31 47.23 47.06 45.43 46.77 46.37 45.69 46.73 49.34 49.25 49.48 50.43 50.61 52.95 54.00 54.78 56.21 59.31 67.20 68.54 68.62 68.40 69.28 68.44 67.68 68.27 68.13 67.90 67.19 66.67 66.31 66.27 66.78 65.37 63.95 63.01 62.45 62.90 64.24 64.89 65.07 65.04 64.69 65.05 64.57 64.00
41.00 42.53 44.65 45.78 45.78 45.36 46.73 44.91 44.99 44.71 47.02 47.88 48.94 49.57 48.30 49.60 50.54 53.58 55.21 55.96 57.26 63.75 68.23 68.48 68.25 68.62 68.30 66.72 66.69 66.44 67.41 67.37 66.83 66.20 66.36 66.44 64.79 64.23 63.01 61.85 62.87 64.08 64.87 65.11 64.39 64.06 64.73 64.77 64.08
43.00 43.51 43.48 44.35 44.23 44.49 44.04 43.36 42.97 45.70 46.20 46.62 47.35 47.78 48.76 48.88 49.87 49.35 51.10 51.96 54.12 57.15 67.11 68.90 68.10 68.55 68.35 66.29 65.78 65.72 65.97 66.00 66.22 66.11 66.09 66.31 65.63 63.97 63.45 63.03 62.86 63.46 64.43 65.28 64.81 64.06 63.69 63.98 64.37
45.11 40.25 42.03 42.56 42.41 42.83 44.39 41.34 41.94 45.91 46.52 46.16 47.11 48.36 48.56 49.13 49.83 49.05 50.41 50.03 51.54 56.05 62.22 68.29 67.79 68.06 67.86 66.36 65.75 65.29 65.17 65.71 65.34 65.71 65.82 65.91 65.60 64.88 63.81 63.74 63.56 63.66 64.28 64.31 63.42 62.54 62.49 62.86 63.73
40.06 39.56 33.95 39.69 42.07 43.30 40.93 36.27 43.15 46.03 45.59 45.31 46.79 47.71 48.38 49.40 50.02 50.57 50.21 51.69 52.09 53.26 61.50 68.16 68.49 67.13 66.26 66.18 65.21 64.70 64.59 64.67 64.17 64.67 65.14 65.27 65.00 65.67 64.00 63.42 63.25 63.74 63.55 63.40 62.65 62.48 61.49 62.05 62.23
36.14 30.77 33.59 37.63 43.27 42.21 40.51 38.10 43.21 45.43 46.73 45.48 44.86 45.20 46.90 48.92 49.73 50.58 51.55 52.65 53.28 52.42 61.23 67.06 66.98 65.93 65.45 65.49 64.88 63.64 64.15 63.87 63.40 63.83 64.31 64.67 64.31 64.14 63.38 62.73 62.71 63.65 63.25 62.49 61.63 60.83 61.36 61.40 61.65
30.93 31.87 32.54 33.09 37.63 40.23 37.63 37.40 41.92 43.61 43.69 44.05 43.76 45.41 46.34 47.42 49.14 51.95 52.66 53.32 53.74 52.15 62.70 66.76 66.30 65.79 64.74 64.93 63.51 62.21 63.37 64.41 62.69 62.44 63.25 65.58 64.17 64.02 62.40 61.73 61.92 62.53 61.92 60.88 60.48 60.91 61.29 61.42 61.27
37.13 35.26 34.23 36.76 40.25 38.54 37.56 37.61 39.96 42.96 43.57 43.95 43.98 45.47 45.72 46.74 49.57 52.06 52.74 53.95 52.02 51.83 65.42 65.95 65.35 65.34 64.32 63.17 61.70 61.06 60.64 63.37 61.45 61.51 62.45 62.54 62.45 62.98 61.34 61.74 62.89 62.37 61.03 61.55 61.08 61.11 60.48 60.23 60.70
37.65 34.91 33.19 36.39 39.69 39.23 37.37 36.40 39.43 43.36 43.87 44.46 45.41 46.26 46.12 47.16 48.47 51.97 52.26 51.70 51.29 56.58 65.55 65.68 65.21 64.92 63.41 63.02 62.05 60.05 59.71 62.08 60.27 60.43 61.44 63.54 62.30 62.05 61.70 62.39 62.05 61.74 61.46 61.17 61.16 60.56 60.00 59.95 60.21
37.36 34.94 34.66 35.06 38.29 39.25 37.17 35.68 38.29 43.05 44.70 45.96 46.67 47.68 48.19 46.81 47.03 50.22 51.78 51.75 52.43 61.78 64.88 64.72 64.70 64.65 63.20 62.30 61.92 60.98 60.07 59.37 58.87 59.79 60.39 62.45 63.36 62.46 62.24 62.02 61.95 61.75 61.57 60.78 60.73 60.47 59.62 58.20 59.40
34.12 39.90 39.52 37.43 35.20 30.11 37.50 28.10 36.93 41.03 41.90 44.31 48.45 48.40 46.65 47.94 48.48 49.79 51.20 51.08 56.74 64.07 65.41 64.52 64.52 64.29 62.73 62.32 60.90 60.37 59.53 58.30 58.38 59.38 61.40 60.87 61.59 62.39 62.51 62.38 61.89 61.44 61.46 60.97 60.72 60.76 59.85 59.09 57.25
36.75 40.72 38.38 37.14 34.41 32.47 34.38 30.48 34.32 40.49 39.36 42.20 47.44 50.79 48.82 47.60 46.90 48.48 49.73 51.62 57.55 63.63 64.73 64.27 64.33 64.13 62.98 61.99 60.78 59.64 57.87 57.72 57.95 58.72 59.70 60.37 61.04 61.53 61.32 61.06 61.36 60.94 61.15 61.05 61.05 60.27 59.48 59.36 58.30
41.77 39.51 38.27 37.03 33.59 26.26 33.03 32.00 32.32 37.15 40.10 46.05 48.91 49.30 48.90 49.06 50.13 51.57 52.77 54.11 54.55 62.61 64.38 63.89 63.55 63.32 62.65 61.55 60.59 59.86 58.20 57.83 57.85 57.70 58.55 58.43 59.73 60.52 60.87 61.04 61.08 61.23 60.81 60.47 60.65 60.46 59.82 59.18 58.72
38.02 33.70 25.56 23.27 23.75 23.81 36.56 32.89 35.96 43.04 45.92 46.53 46.68 47.20 47.40 47.85 47.43 48.13 48.52 49.69 52.03 54.31 62.81 63.06 62.55 61.96 62.08 60.85 60.65 59.98 59.17 57.47 57.48 58.31 58.56 58.85 57.73 57.42 58.31 60.14 59.98 60.15 60.41 60.33 60.53 60.04 59.47 59.26 58.43
35.32 33.86 26.05 21.14 22.32 26.37 35.52 29.52 36.57 41.82 46.25 47.08 47.03 46.95 46.32 45.03 45.26 45.76 46.54 46.85 49.19 54.00 61.75 62.76 61.67 61.28 61.34 61.04 60.65 61.15 59.53 58.55 58.94 59.51 59.18 58.20 58.33 57.78 58.13 58.65 59.71 59.62 60.03 59.59 59.78 59.82 59.43 59.34 58.54
36.18 31.49 37.78 31.02 32.18 26.67 30.81 34.84 42.44 43.71 44.26 45.14 45.04 44.39 42.62 42.19 42.25 43.63 45.36 45.90 48.86 57.85 61.08 61.82 61.65 61.49 61.55 61.23 61.43 60.70 59.25 59.04 58.50 58.73 58.97 58.90 58.92 58.94 58.29 58.47 58.57 59.21 59.01 58.81 58.72 58.76 58.81 58.71 58.42
38.30 39.95 27.79 31.07 24.41 23.04 30.04 33.20 34.46 37.98 40.36 42.95 42.48 41.48 40.83 40.50 40.42 41.87 42.60 44.07 47.37 50.67 57.33 59.03 61.11 61.08 61.49 61.83 61.10 60.16 59.42 59.05 59.78 60.50 59.87 58.50 58.72 58.81 58.36 57.79 57.77 57.69 58.23 58.97 58.44 57.82 58.34 58.39 58.10
35.33 34.14 34.83 34.55 32.33 25.26 24.22 29.62 38.84 39.51 41.78 42.21 41.84 40.85 39.12 38.63 38.87 39.51 40.34 41.99 44.65 47.02 49.27 51.65 58.89 59.52 60.91 60.84 60.20 59.48 59.47 59.91 60.42 60.28 60.20 59.97 59.19 58.61 58.28 58.02 57.14 57.02 56.98 57.39 58.43 57.96 58.01 57.44 57.28
38.07 36.71 35.95 28.41 28.10 31.07 30.53 31.34 42.32 43.05 43.74 42.88 40.72 40.08 38.59 37.87 38.13 38.16 38.24 38.80 40.42 42.71 44.38 47.15 51.19 58.28 58.93 59.46 59.04 58.87 59.18 59.86 59.75 59.51 59.08 59.79 59.48 59.47 58.48 58.16 57.28 56.78 56.70 56.80 56.56 56.84 57.36 56.74 56.22

GFSSGP_sfc_wetblb_090.txt.gz
Wetbulb
57.19 56.12 53.78 50.49 39.35 34.23 30.50 36.65 40.90 42.21 43.06 45.95 49.90 49.04 47.64 48.29 52.78 46.92 66.93 69.82 69.74 69.95 71.61 72.42 72.10 72.99 73.25 73.28 73.25 73.39 73.88 74.14 74.05 73.97 73.91 74.01 74.20 74.13 74.02 74.17 74.22 74.47 75.04 74.44 73.84 73.52 73.87 73.19 72.59
53.82 55.60 50.85 44.00 34.13 28.90 31.81 38.07 41.02 44.57 46.62 48.71 50.13 49.88 48.00 48.87 61.79 65.39 65.92 69.67 69.67 70.22 71.08 71.70 72.29 72.54 72.82 72.71 72.78 73.28 73.89 73.75 73.93 73.88 73.84 73.95 74.12 73.87 73.62 73.68 73.81 74.28 74.68 74.27 73.86 73.67 73.49 72.62 71.86
53.49 54.31 44.60 39.72 32.10 31.25 31.65 39.24 43.79 45.81 47.97 47.72 47.82 49.15 51.15 53.29 64.24 65.89 68.27 69.60 70.20 70.03 70.88 71.43 71.64 72.12 72.66 72.54 72.54 72.82 73.15 73.27 73.45 73.65 74.06 74.07 74.09 74.00 73.67 73.11 72.78 74.36 74.73 74.22 73.73 73.49 72.45 71.57 70.70
50.16 47.99 44.60 35.81 33.50 36.32 37.80 42.22 43.06 44.89 47.16 48.11 47.85 47.14 52.34 59.57 64.63 66.94 69.62 69.69 68.67 69.51 70.59 70.34 70.41 71.53 72.38 72.55 72.44 72.71 72.56 72.25 72.49 72.96 73.83 74.01 74.02 73.85 73.29 72.70 73.09 74.31 74.10 74.02 73.72 73.11 71.21 70.48 69.98
45.06 42.56 35.80 32.46 34.86 39.02 42.85 45.48 46.60 45.94 46.50 47.69 47.99 47.49 49.28 60.94 66.63 68.87 68.21 68.17 67.16 68.44 69.43 70.05 69.67 70.88 71.77 72.45 72.52 72.18 72.09 71.76 72.05 72.47 73.03 73.40 73.56 73.29 72.78 71.95 72.58 73.23 72.45 72.08 71.98 71.25 70.10 70.07 69.75
39.97 40.05 32.55 33.18 36.70 41.40 44.26 45.78 45.57 47.22 48.55 48.07 46.76 47.68 47.86 63.02 66.44 67.19 67.90 66.85 67.56 68.17 68.79 69.40 70.70 70.84 70.93 71.17 71.19 71.13 71.29 71.36 71.69 71.89 72.24 72.82 72.56 72.19 72.04 71.65 71.15 70.90 69.95 69.75 70.29 69.99 69.48 68.96 69.48
37.76 36.22 32.79 33.23 36.78 39.81 45.00 47.30 45.75 47.04 47.67 47.01 49.27 46.41 49.28 58.12 64.08 65.79 67.72 68.22 68.03 68.06 68.07 68.41 69.13 70.32 69.83 69.27 69.38 69.60 70.35 70.85 70.96 71.04 71.15 71.66 71.21 70.79 71.08 70.87 70.45 69.71 69.32 69.02 69.03 68.80 68.88 68.66 68.39
43.48 40.01 35.24 36.11 38.83 38.08 45.76 47.30 47.97 47.35 45.70 51.57 50.23 45.36 44.19 58.69 63.78 66.30 68.35 68.22 67.91 67.39 67.44 67.49 67.51 67.91 68.18 68.82 68.55 69.11 69.74 69.85 70.12 70.39 70.17 69.71 69.89 70.15 69.80 69.27 69.35 68.73 68.67 68.58 68.51 67.85 67.89 68.09 67.34
45.32 36.69 34.23 37.00 40.24 42.72 48.91 47.02 49.46 47.91 46.76 48.77 49.70 48.66 55.42 61.27 64.39 64.60 66.00 66.93 67.64 67.29 66.52 66.92 66.97 66.83 66.71 67.23 68.59 69.47 69.80 69.44 69.06 69.33 68.77 67.60 68.30 68.05 68.16 67.33 68.15 67.17 67.08 67.60 67.62 67.24 66.30 66.66 66.68
39.61 35.09 38.36 43.95 45.12 43.75 46.92 47.42 47.68 45.85 46.30 47.71 48.25 51.62 57.47 59.71 62.12 62.37 63.04 65.01 66.03 66.49 66.35 66.36 66.41 66.42 66.42 68.58 67.06 67.17 68.64 67.69 67.71 67.78 67.08 66.83 65.93 66.02 66.21 65.86 66.77 65.83 65.68 66.39 67.11 66.84 66.20 65.93 65.68
38.22 37.65 41.70 43.05 44.66 45.53 45.81 46.74 48.93 45.60 43.78 46.55 46.83 48.59 50.84 54.75 55.81 58.82 60.77 64.97 65.59 67.58 67.49 67.20 66.88 66.95 66.99 67.67 66.17 66.26 67.87 66.76 66.08 65.98 65.25 65.13 65.79 66.38 64.68 64.00 65.49 64.35 65.83 64.89 65.77 65.88 65.68 65.25 64.43
37.72 42.37 43.04 43.45 45.26 44.35 43.16 45.67 44.69 44.24 45.75 48.46 48.16 47.95 47.85 49.46 53.48 53.00 57.25 58.91 65.21 67.05 68.02 67.89 67.80 67.89 67.89 67.96 66.56 66.22 66.51 66.15 65.74 65.18 65.52 66.02 65.27 64.93 64.87 64.65 64.15 64.06 63.77 63.87 63.80 64.08 65.12 64.84 64.78
39.58 42.28 44.16 44.86 44.70 44.45 44.92 43.06 43.45 43.82 45.29 46.57 46.70 47.16 46.30 46.88 49.22 52.18 52.76 54.68 61.80 65.59 67.86 67.72 68.40 68.42 68.34 67.56 66.81 66.72 66.49 66.40 65.91 64.96 66.18 66.18 64.53 63.05 63.78 62.70 63.68 64.02 64.16 64.21 62.96 63.36 64.65 64.72 64.36
41.19 40.94 40.93 42.21 42.23 42.62 41.91 41.54 40.89 43.82 45.31 45.39 45.51 45.89 46.34 46.53 47.26 47.39 50.30 52.33 53.00 65.45 67.19 67.98 67.37 68.66 68.22 67.49 66.86 66.61 66.97 66.47 65.36 64.98 65.82 65.39 64.73 63.12 62.59 61.54 63.11 63.55 63.84 64.01 63.60 62.46 63.35 64.18 64.21
43.36 38.86 40.33 40.50 40.13 39.85 40.73 39.23 39.11 43.27 44.01 43.53 45.10 46.44 46.88 47.86 47.56 46.56 47.43 50.33 53.76 54.34 66.76 67.49 67.24 67.96 67.71 66.82 66.75 66.05 65.46 66.02 65.80 65.14 65.33 65.26 63.91 63.07 62.12 61.55 61.74 63.28 63.64 63.59 63.99 62.72 62.56 62.37 63.64
38.43 37.20 31.97 38.04 40.70 41.96 39.15 35.02 41.30 43.75 43.19 43.30 44.83 45.41 46.23 46.82 48.04 49.17 47.76 47.76 51.14 52.71 63.83 67.82 68.09 67.43 66.95 66.46 66.32 65.49 64.87 65.12 65.39 65.07 65.19 64.94 64.47 63.94 62.96 62.39 61.60 62.74 64.23 63.80 63.08 62.55 61.48 60.98 61.29
33.61 28.71 32.42 35.83 40.43 39.92 38.23 36.17 40.71 43.01 43.66 42.11 42.89 42.69 44.33 45.52 47.15 47.74 50.04 48.75 49.89 51.01 57.42 66.88 67.33 66.87 66.63 65.74 65.92 64.95 64.20 63.97 63.67 64.55 64.71 64.34 64.50 64.24 63.44 62.89 62.88 62.87 63.25 63.29 62.40 61.79 61.36 60.16 60.43
28.58 29.95 29.80 30.27 35.17 37.86 36.60 35.98 40.08 41.27 40.67 41.75 41.10 41.03 42.13 44.19 45.57 49.25 50.49 51.25 51.37 51.85 58.42 66.60 66.98 66.73 66.17 65.52 64.59 63.90 63.80 63.24 64.44 63.23 64.20 63.83 64.05 63.40 62.96 62.57 62.27 63.57 63.00 62.02 61.72 60.86 60.29 60.29 60.81
34.79 32.89 31.61 34.89 38.02 35.77 35.32 35.31 38.47 41.04 39.93 40.51 42.41 43.60 44.56 45.55 47.78 47.21 50.26 50.27 51.08 51.56 61.20 65.32 65.89 65.59 65.21 64.14 62.87 62.24 62.23 62.56 61.80 62.58 62.13 63.22 63.45 63.21 62.71 61.31 62.11 63.52 61.93 61.23 60.49 60.07 59.60 60.03 61.26
34.89 32.33 31.86 35.95 38.15 36.80 36.45 35.81 39.47 39.81 39.88 42.38 43.52 43.94 44.99 46.50 48.12 48.73 47.75 49.22 49.12 50.12 60.20 64.92 65.18 64.70 65.01 64.30 63.54 62.22 61.54 61.49 63.07 60.84 60.83 61.62 61.28 61.82 61.75 61.69 61.65 62.42 60.86 60.81 60.53 59.95 59.27 59.12 60.93
35.02 32.76 32.58 34.02 37.16 36.49 33.74 34.08 37.52 40.20 41.78 43.92 45.15 46.10 48.66 48.38 48.97 48.67 49.18 47.48 48.82 50.15 62.32 64.41 64.83 64.33 64.26 63.67 60.92 60.24 58.94 58.83 60.29 61.06 59.13 60.29 61.03 61.24 61.50 62.17 62.40 61.74 60.96 60.36 60.88 60.16 59.28 58.15 59.19
32.40 38.99 37.74 35.72 32.18 27.72 35.29 26.17 34.28 38.38 40.22 42.62 43.80 46.90 47.01 47.26 48.87 49.49 49.81 50.85 49.61 51.15 62.34 64.71 64.88 64.23 63.38 62.31 61.15 60.11 59.30 58.18 59.58 60.91 58.28 59.16 60.64 60.59 61.27 62.22 61.77 61.44 61.65 60.75 60.28 60.51 59.91 59.89 57.16
35.47 39.63 37.11 35.33 31.49 30.02 32.33 27.54 31.07 39.42 40.77 42.91 46.21 47.05 46.95 46.49 46.86 47.51 48.85 50.16 51.72 58.43 62.83 64.52 64.63 63.29 62.32 62.43 61.11 59.75 58.43 57.37 58.65 58.40 57.84 58.04 58.56 59.87 61.35 61.75 61.66 61.27 61.08 60.94 60.33 60.35 59.79 59.95 58.02
40.03 37.37 36.10 34.60 31.38 25.33 31.21 28.78 29.07 37.62 39.40 41.28 45.16 46.15 46.36 45.41 45.29 46.55 48.57 49.06 48.87 52.18 62.47 63.85 63.73 62.34 62.10 61.76 60.68 59.53 58.59 57.31 57.71 58.00 57.94 59.14 59.61 59.83 60.61 61.59 61.65 61.39 60.98 60.82 60.62 60.74 59.86 59.60 59.11
36.51 31.85 24.35 22.64 21.69 22.38 33.29 30.25 32.52 39.46 41.99 42.73 44.33 45.17 44.57 44.43 43.64 44.64 45.94 46.76 47.98 50.61 53.75 62.96 62.70 61.09 61.50 60.54 60.05 59.43 59.14 58.24 57.86 57.57 57.72 58.74 59.06 59.61 60.43 60.71 60.77 60.83 60.95 60.83 60.96 60.59 60.05 59.69 58.57
33.27 32.41 25.25 20.60 20.85 24.48 33.58 26.39 34.46 42.69 43.85 44.52 46.48 45.12 43.50 42.05 42.27 42.95 44.57 44.84 46.89 50.25 55.32 62.47 61.89 60.10 60.15 59.75 59.30 59.39 58.85 58.24 57.99 58.39 58.99 58.43 58.61 58.72 58.92 59.79 60.19 60.22 60.36 60.56 60.81 60.65 60.07 59.68 59.00
34.21 29.78 35.83 28.52 29.89 25.33 28.16 33.92 40.39 43.31 43.12 44.47 45.19 43.41 40.52 39.97 40.68 41.29 42.55 42.72 44.96 47.44 52.30 58.91 61.77 61.03 59.91 59.73 59.54 58.90 58.69 57.66 57.75 58.07 58.68 58.14 58.71 57.95 57.49 57.86 58.14 58.95 59.32 59.52 59.47 59.91 59.18 59.32 58.97
37.79 38.78 26.66 26.53 21.33 21.03 26.97 30.85 33.00 38.07 40.31 43.30 42.66 40.25 38.08 38.43 38.92 39.21 40.01 41.00 43.67 46.04 48.58 54.62 59.16 60.23 60.20 59.86 60.06 59.34 58.86 58.68 59.15 58.51 57.85 58.29 58.34 58.42 57.63 57.80 57.92 58.42 58.54 58.64 58.76 58.95 59.06 58.54 58.58
30.28 30.01 32.58 31.97 29.71 23.40 21.13 25.04 39.20 39.16 41.18 42.18 40.14 38.68 36.02 36.21 37.07 37.22 38.19 39.95 41.84 44.04 45.60 48.87 52.56 59.64 59.53 59.74 59.47 58.43 58.51 59.54 59.62 58.80 58.41 58.62 58.41 58.39 57.89 57.53 57.66 57.24 57.58 58.14 57.72 57.60 58.00 57.95 57.80
35.23 33.65 35.50 28.99 26.49 28.75 26.87 27.81 42.26 41.77 42.71 39.90 37.36 37.13 35.95 35.53 35.96 36.39 36.64 37.26 39.07 39.45 42.54 44.44 46.95 50.62 58.53 59.10 58.85 58.82 59.46 59.76 59.35 59.43 59.51 58.95 58.31 58.18 58.09 57.88 57.28 57.22 57.04 57.06 57.56 57.14 57.30 57.10 56.60

GFSSGP_sfc_wetblb_093.txt.gz
Wetbulb
56.46 54.01 52.06 48.73 38.60 33.37 29.09 34.24 38.46 38.02 40.30 44.17 47.97 46.85 46.40 46.22 49.87 43.55 65.63 68.29 69.43 69.73 71.52 71.66 72.14 72.90 73.15 73.09 72.99 72.98 73.42 73.51 73.73 73.89 73.99 74.10 73.99 74.15 73.99 73.86 73.78 74.40 75.12 74.38 73.80 73.49 73.30 73.26 72.88
52.17 53.91 48.76 41.61 32.86 27.62 30.14 35.78 39.29 40.57 44.75 46.85 47.66 47.16 46.23 47.25 61.42 64.29 65.40 69.05 69.54 70.37 71.18 71.57 72.05 72.56 73.00 72.89 72.97 73.09 73.60 73.78 73.53 73.73 73.96 73.96 73.81 74.01 73.92 73.61 73.74 74.27 74.57 73.70 73.57 73.67 73.31 72.60 71.65
52.12 52.04 43.93 39.34 30.96 28.74 31.28 37.24 40.95 43.13 45.82 45.55 45.26 47.44 49.09 49.09 62.93 65.17 67.08 68.96 69.50 70.08 71.11 71.51 71.80 71.91 72.54 72.54 72.61 72.75 73.21 73.14 73.02 73.21 73.66 73.87 73.96 73.91 73.87 73.14 73.18 74.32 74.34 74.30 72.91 73.06 72.31 71.48 70.56
49.18 47.37 43.12 34.80 32.04 34.21 36.54 38.87 40.64 43.72 46.10 45.76 44.79 45.01 49.22 59.87 64.84 66.27 68.80 69.32 68.86 69.63 70.74 70.56 70.87 71.55 72.08 72.31 72.43 72.65 72.48 72.18 72.42 72.79 73.40 73.80 73.83 73.66 73.52 72.90 73.11 74.38 74.32 73.75 73.58 73.02 71.32 70.35 69.89
43.72 41.98 34.62 31.25 33.05 36.98 40.72 43.15 44.39 44.26 45.03 46.47 47.70 45.60 47.15 57.65 65.27 68.19 68.31 68.99 68.11 68.64 69.41 70.37 70.04 71.09 71.80 72.40 72.29 72.16 71.78 71.51 71.91 72.45 72.85 73.12 73.54 73.47 72.62 72.10 72.98 73.24 72.67 72.25 71.66 71.12 70.47 70.00 69.92
39.24 39.08 31.67 30.26 34.20 39.20 41.96 43.24 43.78 45.64 46.62 46.79 45.27 45.79 46.70 60.81 66.24 67.08 67.76 67.27 68.21 68.14 69.18 69.81 70.87 71.16 71.21 71.61 71.33 70.91 70.98 71.22 71.40 71.83 72.30 72.85 72.73 72.40 72.05 71.87 71.91 71.15 71.01 70.38 70.60 70.04 69.74 69.73 69.60
36.33 34.79 31.16 31.59 34.70 38.10 42.99 45.48 44.01 45.00 45.87 44.93 48.08 44.50 47.66 59.72 64.61 66.50 65.39 65.04 67.01 67.85 68.55 69.02 69.88 70.42 70.04 69.59 69.72 69.59 70.01 70.62 70.75 70.84 71.22 71.69 71.27 71.01 71.51 71.36 71.18 70.98 69.75 69.53 69.54 69.32 69.26 69.38 68.81
42.38 38.00 32.56 34.91 35.96 36.42 43.74 45.98 46.46 46.41 43.55 50.12 49.36 44.11 45.60 53.85 63.23 66.85 66.87 65.98 65.57 65.94 66.55 67.42 68.73 69.23 69.36 69.09 68.62 69.05 69.54 69.70 69.84 70.40 70.10 69.88 69.85 70.49 70.51 70.33 70.39 69.85 69.30 69.18 69.24 68.67 67.96 68.08 67.49
43.73 35.86 31.49 34.97 38.13 39.85 46.66 44.82 47.04 48.38 46.28 46.82 47.82 47.56 52.51 60.94 65.63 65.97 65.51 65.25 64.67 65.45 64.87 67.09 67.60 68.12 68.32 68.81 68.78 69.38 70.02 69.79 69.43 69.86 69.41 67.96 68.82 68.53 68.71 68.17 68.80 68.86 67.71 68.09 68.43 67.67 67.40 66.66 66.24
38.41 33.69 36.11 41.90 42.56 42.36 45.01 45.06 46.40 44.94 46.44 46.70 46.84 49.49 51.20 57.43 59.36 63.14 64.02 63.86 64.02 64.49 64.93 65.64 66.32 66.75 66.24 67.99 67.49 67.42 68.64 68.80 68.26 67.94 67.53 67.47 66.54 66.18 66.21 66.84 67.62 67.38 66.71 67.34 66.64 66.33 64.82 65.71 65.07
36.98 36.67 40.34 42.15 44.11 42.85 41.58 43.28 46.35 43.64 42.90 45.68 45.70 47.18 48.83 48.82 53.85 57.04 59.19 64.33 65.08 65.77 65.58 65.46 65.50 65.95 66.41 67.08 67.33 67.94 68.55 66.01 66.29 66.23 65.93 65.30 65.63 66.79 63.75 64.91 64.73 63.49 65.11 64.21 65.40 64.64 64.37 63.87 64.92
36.34 39.79 40.92 40.24 43.02 41.63 41.24 43.45 42.15 43.18 44.00 46.92 47.63 47.18 46.44 47.65 48.70 49.99 55.83 57.37 63.61 65.63 65.93 65.83 65.43 65.71 65.89 66.61 66.66 66.84 67.00 66.88 65.45 64.91 64.53 66.18 66.24 65.63 64.67 64.17 64.61 62.60 64.23 63.66 64.33 64.58 64.62 64.53 64.50
37.37 39.94 41.74 43.31 43.20 42.71 43.51 41.26 41.78 41.86 44.84 45.07 45.62 45.90 44.66 46.28 47.17 47.92 49.69 54.47 58.64 62.85 66.53 66.12 65.61 65.47 65.83 65.55 65.57 65.61 66.26 66.53 65.45 64.12 65.64 66.42 65.04 64.30 64.73 64.50 63.79 63.28 63.25 62.77 61.99 63.31 63.71 63.37 64.31
39.42 39.09 39.32 39.87 40.34 40.00 40.66 40.18 38.89 41.74 44.63 43.46 43.49 43.67 44.98 45.62 45.30 45.99 46.73 47.55 52.43 59.83 65.85 66.62 66.50 66.37 66.62 66.32 65.44 65.28 65.50 65.48 64.93 64.39 66.24 65.82 64.68 63.67 63.64 62.81 62.96 62.66 63.01 63.05 61.52 62.32 62.69 62.73 63.79
42.20 37.81 38.75 39.66 39.01 39.30 40.31 37.81 37.02 41.67 41.64 40.79 41.86 43.40 43.92 44.48 45.04 44.81 46.92 47.49 48.86 54.81 64.90 66.78 66.93 67.52 67.11 66.75 66.01 65.42 65.57 65.46 64.96 64.64 65.95 65.15 64.75 62.87 62.53 61.93 62.62 62.62 63.32 63.28 61.00 60.53 61.48 63.06 63.46
36.64 35.83 31.58 36.70 39.23 40.59 37.38 33.92 39.61 42.66 40.68 40.78 41.72 43.33 44.09 44.02 44.88 45.44 45.14 46.94 49.09 49.71 61.20 66.83 67.61 67.69 67.11 66.71 66.41 66.12 65.55 65.53 65.06 64.62 65.60 65.16 63.72 62.41 62.09 61.78 62.32 62.85 63.10 63.17 62.56 61.23 61.78 62.18 62.92
31.91 27.94 30.74 34.24 38.66 37.56 35.95 34.94 38.52 41.74 41.54 40.36 41.08 40.97 42.20 43.92 44.45 45.23 46.70 45.94 47.24 48.63 53.22 64.63 66.91 66.71 67.20 66.42 66.37 65.84 65.00 65.64 65.32 64.78 65.21 65.32 63.71 62.76 62.01 61.58 61.76 62.56 62.36 62.14 62.55 62.02 61.54 60.33 61.09
27.66 28.12 26.37 28.79 35.13 34.76 34.26 35.30 40.02 39.61 38.77 39.80 39.13 40.12 41.46 42.06 43.52 45.86 47.30 47.34 47.63 48.22 49.34 61.74 66.53 66.70 67.09 65.74 64.45 64.26 63.60 63.55 64.87 64.60 64.65 64.70 64.46 63.78 63.35 62.60 61.86 62.14 61.81 61.97 61.92 61.42 61.64 60.04 60.60
32.83 30.78 29.20 31.71 35.94 33.61 34.64 35.30 37.22 39.17 37.35 37.74 40.53 41.61 41.91 43.10 47.61 50.29 47.45 47.54 48.33 46.76 47.87 57.93 64.84 66.13 66.17 64.85 64.09 63.81 63.47 63.38 63.51 63.90 64.21 63.76 64.20 63.77 63.39 62.76 61.94 61.77 61.50 61.24 61.82 61.53 60.08 59.05 60.77
32.29 29.76 29.69 33.34 36.92 34.18 32.82 34.49 38.29 38.16 38.09 38.68 40.12 41.74 45.40 46.80 47.78 49.52 50.34 51.43 47.10 48.48 49.66 56.82 64.16 65.51 65.84 65.30 64.72 63.58 64.61 63.85 63.61 63.48 63.62 64.06 62.94 62.87 62.99 62.05 61.57 62.28 61.97 61.79 60.72 60.43 59.10 59.50 60.58
32.19 30.20 31.22 31.55 35.03 35.28 33.00 32.58 35.59 38.38 39.97 46.08 46.35 46.88 47.06 46.36 45.58 46.80 48.63 49.04 49.76 48.85 50.01 59.83 63.32 65.06 65.44 65.28 62.42 60.21 60.89 61.04 61.10 61.70 62.53 62.31 61.74 61.65 62.43 61.12 62.41 62.01 61.55 60.81 60.34 60.23 59.59 58.49 60.09
29.67 36.78 36.10 34.66 31.03 26.71 33.38 24.44 34.45 35.64 41.68 43.89 45.00 44.60 45.00 45.86 45.99 45.98 46.90 47.93 48.35 49.10 51.31 60.03 63.61 64.38 65.15 64.26 61.84 60.62 61.04 60.33 61.92 62.49 62.54 60.87 60.57 60.83 60.92 60.78 61.94 62.16 61.40 60.24 60.23 60.70 59.88 58.60 58.00
34.24 38.54 36.26 34.59 30.83 29.82 30.42 24.89 30.48 37.96 38.44 40.72 42.29 44.61 44.48 44.84 44.65 44.17 46.76 47.46 47.87 49.47 51.02 59.07 63.62 64.05 64.60 63.12 62.48 60.94 60.14 60.01 58.76 59.56 60.29 59.18 59.73 60.67 61.71 62.13 61.82 61.06 60.99 60.78 60.57 60.57 59.96 59.37 58.26
39.28 36.60 34.78 32.61 30.36 23.70 29.64 27.06 25.39 34.69 37.79 40.65 43.46 45.62 44.81 44.13 43.14 44.48 45.58 46.50 46.37 48.46 51.48 59.44 62.40 62.97 63.43 62.60 61.34 61.07 58.98 57.85 58.06 58.70 58.74 58.06 58.77 60.27 60.92 60.87 61.42 61.39 60.66 60.74 60.01 60.05 59.89 59.87 59.51
36.00 31.40 23.77 22.10 21.77 21.93 30.57 27.54 29.09 38.17 41.50 42.32 43.30 44.78 43.37 43.13 42.16 42.54 42.13 42.72 44.01 45.76 48.93 56.75 63.17 62.63 62.00 62.08 60.52 59.79 58.34 58.37 57.97 58.07 58.12 57.78 58.43 58.65 59.52 61.15 60.99 60.72 61.06 60.71 60.69 60.13 59.79 59.69 59.01
32.34 31.27 24.77 20.24 20.93 22.89 30.95 24.62 30.32 42.01 43.79 45.70 46.61 43.18 42.42 40.82 40.72 40.74 40.81 41.26 42.24 44.63 47.16 52.19 62.81 61.65 61.78 61.13 60.17 59.42 58.69 58.48 58.26 58.10 57.95 58.31 58.68 59.11 59.64 59.65 60.40 60.95 60.66 60.75 60.72 60.34 60.30 60.09 59.51
32.93 28.34 33.86 28.97 27.20 24.16 26.40 30.69 38.64 42.20 42.38 44.50 42.72 40.63 38.67 38.61 38.99 38.96 39.59 40.39 41.70 42.93 45.31 47.84 60.05 60.69 61.21 60.27 59.68 59.03 58.78 58.10 57.57 57.57 58.65 58.86 58.82 58.73 58.93 59.96 60.01 59.73 60.05 60.11 60.13 59.99 59.77 59.75 59.50
32.62 35.93 25.60 26.75 22.84 20.40 24.70 26.49 27.42 36.08 38.88 42.52 39.46 37.31 36.43 37.06 36.95 37.28 37.71 38.69 41.06 42.03 43.92 46.57 51.99 60.15 60.06 59.88 59.38 58.94 58.42 58.12 57.57 57.82 57.02 57.16 56.48 56.90 57.74 57.50 57.72 57.94 58.30 58.67 58.95 59.07 59.70 59.54 59.30
28.43 29.80 30.92 32.36 29.36 23.31 20.12 22.09 36.07 36.95 39.92 38.35 37.01 36.16 35.29 35.09 35.00 35.62 36.20 37.70 39.67 41.61 42.12 44.34 47.73 57.88 59.19 59.30 59.06 58.30 57.73 57.65 57.60 57.28 56.60 56.58 56.66 57.22 56.94 57.49 56.88 56.38 57.46 57.69 57.74 57.92 58.30 58.30 58.36
30.94 32.14 32.39 26.17 24.60 26.71 27.06 25.04 39.13 38.53 38.69 37.69 35.78 35.53 35.37 34.56 34.36 34.74 35.24 35.82 37.04 38.87 40.93 42.24 43.86 48.54 54.61 59.43 58.68 57.96 58.13 58.29 58.07 56.90 56.76 57.02 56.60 56.26 56.14 57.16 57.26 57.34 57.18 57.38 57.16 56.78 57.02 57.26 57.06

GFSSGP_sfc_wetblb_096.txt.gz
Wetbulb
55.46 52.47 50.93 46.65 37.03 32.97 28.28 32.74 35.56 38.52 38.84 42.34 44.85 45.17 44.10 45.05 46.09 44.13 63.37 67.74 68.52 69.13 70.76 71.43 71.83 72.99 73.17 72.97 73.00 73.13 73.50 73.78 73.97 74.34 74.40 74.46 74.39 74.21 73.98 73.95 74.08 74.53 75.13 74.50 73.85 73.75 73.67 73.41 72.70
50.99 52.26 47.96 40.89 31.93 27.37 30.28 34.35 36.43 39.19 42.21 45.17 46.27 45.27 44.36 45.49 52.54 62.11 64.68 68.23 68.89 69.60 70.37 70.79 71.94 72.10 72.88 72.62 72.79 73.03 73.63 73.81 73.69 73.98 74.18 74.33 74.31 74.23 73.93 73.64 73.55 74.40 74.80 74.53 73.62 73.64 73.51 73.23 71.67
50.88 50.41 42.60 38.58 29.44 28.57 30.61 35.15 38.18 42.19 45.08 44.80 44.02 45.63 46.81 47.27 58.14 63.79 66.48 68.64 69.47 69.67 70.55 71.03 71.62 72.13 72.67 72.55 72.58 72.74 73.03 73.01 73.09 73.37 73.91 74.02 74.23 74.19 73.85 73.18 73.79 74.55 74.62 74.08 73.66 73.58 73.34 71.55 70.82
48.68 46.68 41.60 34.11 30.86 34.01 34.78 36.73 39.54 42.70 44.50 44.36 43.32 44.32 47.89 51.49 60.49 65.43 68.20 68.98 69.02 69.51 70.45 70.41 70.86 71.58 72.06 72.53 72.64 72.77 72.43 72.04 72.19 72.80 73.56 73.93 73.93 74.02 73.68 73.06 73.45 74.43 74.43 74.33 74.03 72.65 72.09 70.44 70.22
43.31 41.25 32.83 30.30 31.89 35.47 39.14 40.89 42.49 42.55 43.89 45.10 44.85 44.61 45.22 49.73 64.20 67.51 67.66 68.57 68.24 69.04 69.87 70.39 70.10 71.13 71.81 72.49 72.46 72.27 71.72 71.38 71.85 72.41 72.81 73.31 73.38 73.50 72.93 72.57 72.74 73.66 73.64 73.33 73.03 72.03 70.85 70.26 70.19
38.96 38.57 30.42 28.79 32.06 37.38 40.54 41.51 42.79 43.97 45.06 45.84 43.98 44.04 45.14 54.12 63.35 65.89 67.50 66.54 67.87 68.47 69.42 70.16 70.99 70.99 71.10 71.46 71.44 70.99 70.92 71.16 71.27 71.90 72.19 72.86 72.74 72.38 72.33 72.15 72.04 72.50 71.97 71.49 71.23 70.67 70.16 70.09 70.08
35.68 33.54 29.43 29.53 33.43 36.85 41.33 43.49 42.99 43.42 45.02 44.12 46.89 43.62 45.72 49.78 59.57 65.57 64.56 65.72 66.79 67.53 68.45 69.87 70.58 70.74 70.07 69.44 69.53 69.62 70.13 70.38 70.58 71.06 71.37 71.71 71.26 71.10 71.63 71.67 71.57 71.52 70.69 70.46 70.35 69.80 69.52 69.75 69.34
37.85 35.31 29.63 32.82 34.70 35.79 42.38 44.08 45.06 45.10 43.46 49.20 47.92 42.86 43.45 50.15 63.87 66.21 65.62 64.98 64.95 66.90 68.33 68.82 69.36 70.19 69.44 69.20 68.81 69.13 69.24 69.62 69.91 70.45 70.36 70.07 70.20 70.47 70.86 70.59 71.00 70.71 69.66 69.69 69.66 68.96 69.09 68.89 68.09
42.18 34.01 29.62 32.57 36.21 37.46 44.44 42.83 45.03 46.81 45.76 46.10 47.03 46.70 49.33 58.32 65.07 64.99 63.87 63.49 63.20 64.70 65.32 67.41 67.71 68.40 69.04 69.49 68.79 69.53 69.98 69.62 69.29 69.87 69.38 68.25 68.52 68.81 69.05 68.94 69.59 69.53 68.17 68.39 68.65 68.27 67.74 67.35 66.90
38.63 32.60 33.65 39.61 40.38 40.05 43.46 43.04 45.23 44.00 44.66 45.52 46.15 48.27 49.99 53.32 60.47 62.06 62.29 61.49 61.04 62.14 64.47 66.47 66.67 67.05 67.46 68.12 68.65 68.36 69.72 69.90 69.80 69.75 68.47 67.61 67.19 66.96 67.26 67.42 68.27 68.09 67.26 67.75 66.99 67.39 66.45 66.08 65.29
34.97 33.11 38.61 41.75 44.33 41.50 39.67 41.49 43.57 40.79 40.65 44.07 44.24 46.01 47.11 47.58 47.87 59.03 60.42 62.71 63.98 64.13 63.86 65.13 65.39 66.20 66.10 66.47 67.50 68.18 67.90 68.22 68.16 67.77 67.30 66.21 66.44 66.59 64.78 65.71 65.08 65.24 66.70 65.80 65.70 64.49 63.67 63.54 64.70
33.56 38.05 40.29 40.71 43.26 40.78 39.30 40.01 40.74 40.78 42.92 45.48 45.68 46.09 45.25 45.41 45.87 48.39 56.81 59.81 61.57 65.54 65.00 64.97 64.80 65.23 65.65 66.61 66.61 66.89 67.05 66.86 66.97 66.51 65.58 67.14 67.21 66.69 64.55 65.27 63.21 62.57 62.79 63.68 63.62 63.92 62.91 62.78 64.01
36.43 38.92 40.83 41.72 41.66 40.90 41.83 39.88 40.29 40.17 43.46 44.02 44.29 44.59 43.56 44.13 44.92 46.08 46.89 49.94 56.00 62.04 65.31 65.65 64.87 64.88 65.16 65.65 66.10 66.22 66.43 66.71 66.90 66.06 66.06 67.57 66.85 66.11 65.31 64.85 63.93 61.64 62.35 63.16 63.38 63.13 63.63 63.09 64.36
38.30 38.14 39.01 39.56 39.40 39.20 38.68 38.57 38.43 41.16 42.81 42.23 41.79 42.24 43.12 43.64 44.27 44.06 44.10 45.08 46.87 55.88 62.48 66.37 65.55 65.47 64.60 65.29 65.15 65.32 65.70 66.18 65.79 65.98 66.70 67.04 66.39 65.56 64.73 64.46 63.96 63.48 63.41 62.88 62.58 62.30 63.16 63.71 63.94
40.66 36.78 38.47 39.32 39.07 39.04 38.70 35.17 36.27 41.12 39.73 40.41 40.81 41.78 41.86 42.59 43.26 43.07 44.69 44.62 45.81 49.11 55.89 63.97 66.07 65.58 64.74 65.15 64.51 64.52 65.02 65.01 64.76 65.21 66.01 65.81 65.41 64.76 63.98 63.14 62.93 62.83 63.13 62.25 60.06 61.76 62.26 62.12 62.72
35.06 34.23 30.99 36.80 37.85 40.30 37.99 32.47 39.25 40.91 39.23 39.93 40.47 41.05 41.97 42.08 43.10 43.14 43.40 43.74 45.26 45.45 49.26 56.21 66.19 66.14 65.45 65.14 65.51 64.57 64.34 64.55 64.65 65.00 65.30 65.07 64.74 64.03 63.01 62.28 62.68 62.78 62.82 62.80 61.44 61.49 61.76 61.99 61.43
30.77 26.43 29.27 33.62 38.23 36.93 34.35 32.46 38.23 41.08 40.29 38.72 38.82 39.00 40.00 41.77 42.68 43.85 45.68 44.64 45.20 44.83 46.69 52.89 63.75 66.14 66.30 65.85 66.01 65.48 64.36 64.80 64.39 64.79 64.94 64.47 64.07 63.33 62.55 62.10 62.14 62.77 62.80 62.41 61.83 61.42 61.58 61.08 61.20
26.27 26.99 26.24 28.67 33.93 33.73 32.79 33.32 37.37 38.99 37.72 38.15 37.62 37.70 38.03 40.90 44.13 49.47 50.49 51.00 51.24 49.62 45.03 49.02 59.79 65.56 66.48 66.90 66.14 65.88 65.09 65.14 65.53 64.54 64.76 64.32 63.74 62.36 62.14 62.13 61.79 62.45 62.26 61.91 62.07 61.17 61.43 61.23 61.26
32.15 29.76 28.71 30.27 34.86 32.73 32.88 33.95 35.48 38.39 36.04 36.04 36.69 39.39 44.55 45.66 47.84 48.43 49.15 50.13 50.34 49.81 47.55 45.87 53.98 64.23 66.25 66.57 64.88 64.13 63.54 64.48 65.05 64.91 64.52 64.32 64.00 63.49 63.37 62.32 61.13 61.79 61.41 61.47 61.34 61.33 60.46 59.77 61.12
31.04 28.36 27.82 31.48 34.72 32.70 31.92 32.94 36.24 36.94 36.13 38.76 42.66 43.84 44.59 45.49 46.93 47.91 47.84 48.45 48.93 48.83 49.57 49.36 49.69 61.24 65.38 65.90 65.76 64.37 64.82 64.67 64.98 64.87 64.62 64.88 64.24 63.83 63.51 62.60 61.86 61.20 61.08 61.08 61.15 60.95 59.95 60.18 61.28
30.84 29.01 29.67 30.19 33.21 34.08 31.36 29.43 31.71 36.45 40.91 44.32 44.40 44.36 44.76 44.55 44.83 45.43 46.15 47.41 47.82 47.44 48.01 49.69 50.69 58.33 64.61 65.45 65.61 61.46 62.83 61.82 61.32 62.56 63.05 63.54 63.92 63.37 63.36 62.60 61.77 61.55 61.69 60.81 60.99 60.84 60.04 58.77 60.15
28.16 34.66 34.17 32.52 29.79 25.52 32.53 22.95 29.83 35.31 38.93 41.71 42.64 42.11 43.50 43.91 44.70 44.22 44.53 45.35 46.23 46.89 47.70 49.05 52.02 54.47 64.32 65.52 64.70 62.92 62.43 61.08 62.23 62.10 62.67 62.82 63.22 62.86 63.03 62.08 61.79 61.22 61.90 61.57 61.03 61.13 60.27 59.37 57.94
32.13 37.25 34.66 33.05 29.52 27.49 28.16 25.04 26.82 36.09 36.39 39.28 41.05 43.77 43.79 43.07 43.07 41.86 43.46 43.89 45.49 46.40 46.47 49.00 51.41 55.72 63.40 64.92 64.04 62.33 61.91 61.93 61.84 62.22 58.41 61.19 61.81 62.18 62.20 61.74 61.12 61.73 61.72 61.41 60.78 60.45 60.12 59.77 58.64
38.25 35.47 33.93 31.15 28.99 22.18 28.17 25.97 24.01 30.92 37.32 39.24 41.99 44.59 44.73 42.78 42.44 42.31 42.91 43.32 43.26 45.09 45.70 47.41 50.52 58.22 63.32 64.36 63.55 61.47 61.44 58.52 60.49 61.19 60.63 61.13 60.84 61.29 61.79 61.78 61.52 61.25 60.88 60.67 60.64 60.63 60.18 59.59 59.55
35.05 30.40 23.48 20.83 20.95 21.25 29.57 26.24 28.80 34.96 40.15 41.23 42.35 42.57 41.89 41.11 40.21 40.24 40.00 39.96 40.97 42.39 43.85 45.89 48.56 54.83 63.20 63.31 62.87 61.53 60.42 58.84 59.92 60.60 60.53 60.15 60.09 60.33 60.55 60.70 60.22 60.27 60.65 60.83 60.33 60.26 60.14 59.98 59.52
32.83 31.09 24.58 19.18 20.80 21.91 30.20 24.13 29.32 40.11 42.36 43.95 43.21 41.09 39.94 38.18 38.96 38.64 38.85 38.79 39.38 41.20 42.53 43.90 46.63 49.90 62.40 62.25 62.16 61.54 58.49 58.29 58.18 59.04 59.44 59.69 60.00 60.25 60.54 60.15 60.14 59.83 59.62 60.66 60.44 59.88 59.82 59.64 59.42
32.74 27.41 32.41 26.58 27.13 23.62 25.68 29.35 35.49 40.81 41.13 41.96 39.06 38.25 36.80 36.25 36.53 36.95 37.81 37.85 38.22 39.83 41.65 43.21 45.01 48.84 60.61 61.05 60.65 59.41 58.55 57.90 58.00 58.24 58.84 59.64 59.77 59.02 59.04 59.25 59.28 60.41 60.43 60.21 60.22 59.83 59.63 59.60 59.49
32.39 34.97 26.62 26.84 21.29 20.22 23.34 25.50 26.65 34.66 37.05 37.93 36.68 35.42 35.35 35.09 34.96 35.17 36.06 36.82 37.80 39.27 40.63 42.92 44.66 47.72 59.95 60.11 60.26 59.39 58.93 58.21 58.26 58.16 58.02 58.42 58.56 58.59 58.40 58.62 59.19 59.67 60.05 60.03 59.87 59.69 59.78 59.49 59.66
26.65 26.62 29.95 29.73 28.40 23.01 20.02 21.34 35.48 35.13 36.16 35.21 35.16 35.55 34.63 33.40 33.84 34.05 34.38 36.04 36.82 38.14 39.60 40.55 43.19 46.38 51.56 59.20 59.32 58.48 57.82 57.88 58.04 57.96 58.02 57.49 57.37 57.75 57.81 57.93 58.24 57.76 57.80 58.00 58.16 58.35 58.49 58.42 58.93
30.85 31.80 30.34 23.20 23.11 25.48 25.70 23.97 37.14 35.66 35.46 35.72 35.07 35.00 34.50 33.60 33.47 33.46 33.55 34.47 34.99 35.82 37.13 38.21 40.82 44.55 47.42 51.52 57.80 57.62 57.60 57.98 57.44 57.30 57.10 56.40 56.20 55.92 56.60 57.24 56.50 56.48 56.46 57.10 57.02 56.78 57.32 57.30 57.28

GFSSGP_sfc_wetblb_099.txt.gz
Wetbulb
59.49 56.52 56.74 53.23 44.46 43.12 39.03 40.06 42.88 43.25 44.04 47.79 48.14 48.34 48.55 49.77 47.65 47.18 67.69 69.85 70.55 71.19 73.11 73.15 72.24 72.97 73.22 73.12 73.05 73.30 73.92 74.66 74.86 74.86 74.33 74.13 74.05 73.89 73.81 73.83 74.09 74.78 75.37 75.58 74.42 74.09 74.62 74.75 73.70
55.58 55.63 54.10 48.82 40.97 38.20 40.18 41.10 41.87 44.50 46.41 48.96 49.16 49.22 48.37 48.59 52.58 57.47 67.72 70.23 71.02 71.66 72.90 73.20 72.32 72.68 72.89 72.80 72.86 73.18 74.01 74.52 74.67 74.67 74.62 74.24 74.06 73.79 73.88 73.79 73.76 74.59 75.19 75.02 74.27 74.14 74.17 73.53 72.28
55.40 53.55 50.12 46.77 39.67 38.81 39.86 41.16 44.12 45.73 48.68 48.41 48.85 49.63 50.10 50.76 55.91 60.66 69.90 71.37 71.26 71.62 72.58 72.94 71.61 71.99 72.59 72.66 72.74 72.95 73.27 73.31 73.76 74.08 74.62 74.56 74.40 74.21 73.97 73.42 73.66 74.75 74.92 74.82 74.16 74.44 73.96 71.94 71.09
54.23 53.27 48.33 41.67 39.81 40.60 40.67 43.31 44.85 46.11 48.18 49.24 49.23 48.10 51.83 53.81 60.52 65.59 70.04 70.83 71.05 71.54 72.33 71.38 70.76 71.42 72.28 72.32 72.66 72.74 72.45 71.98 72.41 73.05 74.02 74.24 74.39 74.33 73.68 73.13 74.09 74.78 74.77 74.75 74.42 74.12 72.79 70.68 70.39
50.67 48.36 41.91 39.48 39.26 41.53 44.08 44.58 45.91 45.89 46.94 48.52 49.11 47.91 49.82 54.13 62.08 67.90 69.77 70.45 70.51 71.47 72.39 72.69 70.25 71.19 72.10 72.38 72.54 72.18 71.84 71.60 71.94 72.50 73.05 73.54 73.88 73.86 73.09 72.80 73.24 74.13 73.79 73.70 73.52 72.78 71.31 70.41 70.20
46.05 46.38 39.18 37.67 40.32 41.77 44.90 46.60 47.06 46.91 47.87 49.50 48.17 49.39 51.01 54.02 60.88 66.45 69.85 69.80 70.61 71.15 72.14 72.73 71.46 71.31 71.32 71.52 71.52 70.98 70.86 71.12 71.37 71.95 72.44 73.11 73.05 72.63 72.62 72.57 72.55 72.55 72.67 72.08 71.94 71.02 70.76 70.23 70.26
43.68 42.43 38.91 38.30 38.64 41.03 43.96 47.68 45.77 46.93 48.26 49.02 50.14 48.41 52.32 54.14 62.91 68.19 67.88 69.37 70.16 70.90 71.73 72.58 73.05 72.48 70.33 69.56 69.63 69.47 70.15 70.41 70.77 71.04 71.54 71.83 71.54 71.36 71.95 72.12 71.57 71.99 71.55 71.08 70.92 70.41 69.86 70.12 69.91
44.50 43.78 37.23 38.93 39.02 40.36 46.05 47.75 49.20 48.69 48.25 51.97 51.36 47.56 49.20 54.06 63.09 68.29 68.12 68.70 69.36 69.58 70.42 70.81 71.65 71.78 72.38 72.84 68.95 69.00 69.33 69.42 69.98 70.33 70.32 70.12 70.57 70.85 70.87 70.95 71.27 71.45 70.17 70.38 69.69 69.62 69.53 69.47 68.96
46.70 40.24 36.75 38.58 39.49 41.69 47.30 46.91 49.93 51.82 50.06 49.93 50.95 51.64 53.16 54.84 62.03 66.50 67.14 66.67 68.17 68.24 67.70 69.28 70.07 70.39 71.13 71.33 71.79 69.96 69.87 69.51 69.24 70.24 69.42 69.26 72.50 72.72 72.41 71.06 70.10 69.44 68.62 68.87 68.60 68.77 68.46 68.00 67.53
45.37 39.84 38.83 43.26 44.37 44.07 46.48 46.57 47.61 47.31 47.92 48.13 49.28 51.73 52.90 53.25 53.41 58.85 63.91 66.13 66.11 67.13 67.10 68.11 68.50 68.95 69.83 69.33 70.12 71.89 71.96 71.89 71.68 71.86 72.26 72.36 72.54 72.67 71.91 70.52 68.72 68.54 67.57 67.98 67.24 67.44 67.26 66.97 70.17
41.59 38.78 42.21 44.28 46.54 47.23 46.11 45.93 48.15 46.58 44.73 47.21 47.59 49.37 51.21 51.29 52.30 53.11 56.50 65.41 67.30 67.18 67.78 67.52 67.09 68.11 68.31 68.05 68.40 69.54 69.85 69.93 70.37 70.36 70.49 71.90 72.07 71.77 71.70 72.10 71.32 71.89 68.71 70.71 68.69 69.24 69.80 69.60 69.53
38.07 41.24 42.92 44.05 46.11 45.75 44.64 46.92 44.47 45.07 46.06 49.61 49.70 50.06 48.80 49.58 50.74 51.56 52.01 55.36 63.54 67.91 67.88 68.30 67.94 66.45 67.09 67.28 67.53 68.23 68.28 68.78 68.92 68.77 69.60 69.15 69.70 70.05 70.04 69.63 70.42 70.91 70.00 68.97 70.14 69.14 69.34 68.83 68.92
40.34 41.89 43.91 44.49 44.70 44.57 45.11 43.62 44.42 44.62 47.66 48.68 47.48 47.60 48.17 48.27 49.51 50.92 51.16 52.10 53.66 57.60 65.68 68.59 68.14 67.34 66.95 66.48 67.07 67.35 67.76 67.64 67.77 68.30 68.71 69.69 68.57 68.09 68.13 68.29 68.22 69.37 69.07 68.24 68.18 68.02 67.94 67.78 68.00
42.08 41.90 42.79 43.14 43.24 42.71 42.06 43.42 42.38 45.16 47.40 46.54 45.97 46.59 47.37 47.70 48.95 49.60 50.79 51.21 52.38 53.42 55.21 66.67 68.39 68.35 67.93 67.99 66.95 66.56 67.20 67.99 67.43 67.57 67.91 68.99 68.53 68.14 67.31 66.48 66.48 66.40 66.86 66.74 66.50 65.81 66.38 66.78 66.84
42.90 39.89 41.87 42.47 43.61 42.99 43.87 40.70 40.27 46.27 44.99 44.97 46.36 46.89 47.26 47.76 48.37 48.57 49.61 49.63 50.89 51.62 52.49 55.33 65.98 69.31 68.21 67.71 68.01 67.49 67.24 67.06 66.33 66.61 67.83 68.09 68.28 67.96 67.01 66.39 65.90 65.84 65.86 65.68 64.40 63.97 64.50 65.35 66.55
39.12 38.85 35.22 41.00 41.88 42.63 42.99 37.03 43.32 44.86 44.10 44.58 45.36 46.13 46.25 46.79 46.70 48.97 53.19 53.86 55.29 54.93 54.27 54.11 54.82 66.71 68.79 68.49 67.28 68.03 67.33 66.72 66.21 66.12 66.88 67.72 67.54 67.16 66.24 65.88 65.55 66.35 65.26 64.11 63.21 63.07 62.88 63.79 63.31
35.85 32.84 34.26 37.47 41.94 41.18 40.34 37.05 42.82 45.58 44.13 43.52 44.70 45.24 44.52 46.52 52.48 53.46 53.82 54.26 54.99 55.48 55.51 54.68 54.15 58.15 67.08 68.48 68.83 68.19 67.55 67.14 66.39 66.50 66.12 67.01 66.84 65.74 65.39 64.85 64.99 66.16 64.86 64.13 63.03 62.72 62.78 62.40 62.74
31.97 32.49 34.43 34.71 38.52 38.66 37.94 37.27 41.21 43.24 42.69 43.08 44.04 43.47 47.65 50.38 51.07 52.23 52.92 53.30 54.10 54.84 55.07 55.25 55.38 54.64 63.57 67.91 68.15 68.01 67.26 67.83 67.73 66.39 65.72 66.34 66.59 65.01 64.54 64.35 64.52 65.32 64.53 63.42 62.97 61.53 62.59 62.95 62.50
35.87 33.97 33.46 36.23 38.82 36.08 36.83 37.97 40.19 43.07 42.17 42.54 43.17 48.29 48.80 49.26 50.93 51.92 52.36 52.64 52.96 53.88 53.49 54.13 54.40 55.90 56.78 66.49 65.86 64.50 63.64 65.22 65.98 66.65 65.91 66.02 65.72 64.65 63.65 63.42 63.66 64.22 63.52 63.07 62.76 61.82 61.66 61.44 62.45
35.13 33.07 32.37 35.73 37.66 36.69 38.04 37.67 40.96 42.11 42.03 43.16 47.70 47.42 47.82 48.56 49.60 50.16 50.71 50.95 51.09 51.09 51.98 52.24 53.37 54.42 55.17 62.70 66.47 66.11 64.50 65.23 66.66 66.42 65.55 65.79 65.08 64.30 63.22 63.14 63.07 63.20 62.95 62.80 62.52 61.75 60.61 61.18 62.14
33.78 32.33 33.13 34.20 36.98 38.83 36.60 36.03 37.41 40.17 44.36 47.28 48.00 47.31 47.81 47.70 47.25 48.01 48.10 48.80 49.50 49.11 49.88 50.49 51.76 52.94 54.88 57.32 65.68 66.38 65.72 65.79 64.36 64.93 64.49 65.19 65.37 64.08 63.63 63.84 63.63 62.67 63.09 61.85 62.39 62.27 60.74 59.36 61.15
31.88 36.84 36.85 35.21 33.93 31.34 37.36 29.27 35.15 39.37 41.04 45.15 45.50 46.62 47.79 47.37 47.10 47.07 46.57 46.82 47.36 47.86 48.07 47.61 49.55 52.17 54.56 57.69 63.25 64.30 62.25 61.15 64.03 65.04 64.83 64.56 63.87 63.25 63.02 63.59 64.03 63.05 62.58 62.12 62.76 62.81 61.65 61.07 59.13
35.03 39.08 36.67 35.91 33.56 32.83 33.62 31.43 34.28 38.01 39.01 42.60 44.75 46.92 46.63 46.37 45.37 44.70 44.92 45.24 45.71 45.11 44.55 46.02 47.52 49.56 53.10 57.89 61.86 65.04 63.13 64.75 65.81 65.70 63.53 63.46 64.43 62.85 59.92 59.41 62.77 62.72 62.60 62.98 63.38 61.74 61.42 61.37 60.36
40.29 37.22 36.74 35.08 34.05 27.65 32.94 32.08 31.93 36.22 39.85 41.99 44.58 46.28 44.70 43.97 43.47 43.73 44.31 43.41 42.39 43.29 43.54 44.20 45.66 47.28 50.78 58.11 61.79 64.37 63.72 63.98 64.02 63.60 62.88 64.20 63.09 60.43 60.18 61.73 62.55 62.82 62.38 63.00 63.64 62.80 61.78 61.17 60.97
38.08 34.75 27.48 25.50 25.60 25.39 32.42 30.56 34.64 38.63 42.06 43.53 44.34 43.64 42.76 41.81 40.72 40.85 40.77 39.58 39.87 40.42 41.46 43.06 44.48 45.56 49.07 52.90 63.40 64.01 63.68 63.97 64.12 63.61 63.01 62.43 61.56 60.04 60.45 62.50 62.08 61.96 62.88 62.93 63.82 61.86 62.35 61.07 60.60
34.65 34.55 28.33 21.02 23.04 26.53 31.94 28.42 34.61 41.89 45.27 44.20 42.44 41.44 40.68 39.55 39.37 39.35 39.18 39.19 38.37 39.23 39.96 41.34 43.07 44.20 48.06 51.17 63.36 63.84 62.72 62.59 64.21 64.37 62.75 62.40 61.91 62.07 62.49 62.24 62.85 62.66 62.85 61.81 61.74 61.34 61.41 61.58 60.52
34.13 31.79 35.66 29.74 30.26 27.30 30.82 33.45 39.00 42.72 42.30 41.32 40.28 39.43 38.46 37.66 38.01 38.06 38.45 38.59 37.61 37.96 38.92 39.92 41.72 43.47 47.58 51.75 63.04 62.99 61.33 60.67 61.06 64.21 64.23 63.43 62.60 61.78 61.27 62.32 61.46 61.33 60.75 61.21 61.82 60.69 60.86 61.04 60.80
35.59 37.07 30.86 31.58 22.66 21.27 27.23 29.60 31.85 36.29 37.64 38.58 38.48 37.84 37.41 37.07 37.10 37.21 36.99 37.15 36.98 37.92 38.67 39.63 40.88 43.12 46.61 50.57 61.66 60.47 60.64 60.81 60.42 61.14 60.43 61.02 61.00 59.82 61.24 61.04 60.78 60.30 60.56 61.93 61.53 60.37 60.61 60.36 60.50
30.03 29.90 32.54 32.60 30.83 24.85 23.04 27.86 37.19 36.50 36.93 36.72 36.67 36.83 36.61 36.21 36.29 35.95 36.10 36.69 36.43 36.78 37.53 38.12 39.51 42.08 45.47 47.02 58.43 60.00 59.93 59.08 59.22 59.39 60.60 60.27 59.65 59.54 59.42 59.61 59.88 60.36 60.56 60.86 60.16 60.14 59.99 59.59 59.63
33.46 31.69 31.35 25.88 24.38 27.21 26.79 27.93 39.22 38.25 37.56 37.36 35.99 36.36 36.04 36.18 35.91 35.80 35.15 35.35 34.80 34.87 35.58 36.09 38.16 39.48 43.79 45.05 50.89 58.37 58.97 59.43 59.48 59.07 59.54 59.70 58.32 58.58 58.82 59.04 59.07 58.81 59.29 59.07 58.91 58.53 58.73 59.01 58.17

GFSSGP_sfc_wetblb_102.txt.gz
Wetbulb
61.16 59.60 61.12 57.79 49.10 47.74 46.61 46.32 48.71 48.15 48.17 51.12 51.96 51.14 51.18 52.89 50.54 50.77 61.55 73.35 73.19 73.29 75.77 74.38 72.51 73.07 73.22 73.62 73.60 74.13 74.90 75.05 75.00 74.56 74.37 74.52 74.49 74.07 73.94 74.12 74.25 74.85 75.58 75.70 74.85 74.14 74.26 75.33 74.68
58.47 57.81 58.30 55.11 46.29 45.27 47.25 48.74 46.58 48.49 50.01 52.35 52.38 52.62 51.89 51.42 55.49 59.55 64.24 71.62 73.50 73.56 75.35 75.30 72.30 72.70 73.08 73.06 73.24 73.86 75.02 75.13 74.99 74.70 74.54 74.58 74.49 74.19 74.07 73.98 73.96 74.78 75.65 75.63 74.39 74.38 75.12 74.61 73.41
57.85 58.25 53.82 50.72 47.80 45.58 47.22 47.23 48.64 49.22 51.15 50.97 51.41 53.64 52.89 52.43 57.67 60.64 66.02 71.50 73.33 73.66 74.82 74.77 71.93 72.07 72.71 72.75 72.76 73.19 74.02 74.29 74.44 74.52 74.59 74.58 74.41 74.24 74.25 73.63 74.06 75.07 75.57 75.45 74.43 74.79 74.54 72.69 72.00
55.82 54.90 53.20 46.82 46.67 49.19 47.61 48.55 49.17 49.20 50.87 51.77 52.12 50.79 54.46 58.17 59.08 62.46 68.17 73.12 73.19 73.72 74.48 72.18 71.09 71.77 72.11 72.57 72.56 72.81 72.97 72.98 73.42 73.87 74.39 74.66 74.51 74.39 74.04 73.49 74.16 75.25 75.29 75.07 74.95 74.67 72.79 71.29 71.01
56.53 53.68 47.62 46.48 47.80 50.09 49.77 49.83 49.77 48.83 49.77 50.57 52.22 50.63 52.77 57.29 60.32 64.68 68.20 72.42 72.91 73.78 74.41 74.92 69.82 71.31 71.87 72.37 72.33 72.32 72.14 72.06 72.70 73.35 73.62 74.02 74.14 74.04 73.39 73.01 73.85 74.24 74.56 74.37 74.15 73.38 71.75 70.73 70.51
50.65 52.13 45.52 45.50 48.08 50.04 49.72 51.21 50.73 50.08 50.73 51.20 51.29 51.66 53.99 57.66 58.87 64.05 68.27 71.92 73.52 74.13 74.74 75.08 71.94 71.38 71.33 71.52 71.72 71.14 71.15 71.36 71.88 72.54 72.98 73.70 73.58 73.22 72.94 72.96 72.74 73.45 73.39 72.91 72.74 71.77 70.98 70.48 70.32
49.07 48.25 46.29 46.89 47.10 47.73 48.91 51.52 49.95 50.23 50.30 51.20 53.27 50.72 54.82 56.54 58.88 63.87 68.27 71.82 73.22 74.22 74.40 74.65 74.91 73.49 70.75 70.11 70.13 69.94 70.25 70.60 71.02 71.39 71.96 72.43 71.99 71.98 72.22 72.44 72.66 72.20 71.88 71.62 71.89 70.91 70.44 70.34 69.99
50.10 48.58 45.61 46.22 45.27 46.24 50.15 50.29 51.38 50.81 50.40 54.89 54.57 50.18 51.80 57.23 58.03 61.54 66.89 70.43 72.44 73.36 74.11 73.96 73.99 73.59 74.72 74.48 69.62 69.46 69.76 69.92 70.12 70.72 70.68 70.44 70.86 71.37 71.54 71.50 71.83 71.91 71.36 71.31 70.59 69.76 69.97 69.79 69.44
50.54 44.70 43.66 45.82 45.50 46.95 49.11 48.55 52.18 54.08 52.17 52.98 53.96 53.86 55.70 56.59 57.22 57.96 61.47 66.20 71.40 71.92 72.94 72.79 72.35 72.39 72.73 74.07 73.47 70.73 70.24 69.81 69.65 70.55 69.86 69.76 73.53 74.13 73.63 71.59 70.60 71.19 69.69 69.83 69.22 68.66 69.06 68.75 68.51
47.62 44.68 45.46 48.62 48.35 47.10 48.51 49.10 49.79 49.05 49.37 50.19 52.14 54.58 55.11 55.53 56.07 56.20 56.83 59.57 69.17 70.53 71.68 72.80 72.59 71.67 71.72 70.96 72.31 73.65 74.06 73.56 73.44 73.25 73.58 73.52 73.62 73.75 72.51 71.28 69.43 69.65 68.66 68.81 68.84 68.04 67.77 68.39 72.01
47.09 44.02 48.30 47.21 48.10 48.52 47.98 48.22 50.25 48.55 47.20 50.10 50.14 51.72 53.71 54.32 55.21 55.91 56.10 56.47 61.78 68.97 71.33 71.94 72.52 73.23 73.00 71.31 71.75 71.37 72.11 72.68 73.01 73.90 73.78 73.67 73.43 73.61 73.08 72.87 72.81 72.97 69.66 71.91 70.26 70.59 71.16 70.85 70.92
42.67 45.61 46.30 47.01 47.52 48.08 46.69 48.63 47.30 48.13 48.71 51.05 51.31 52.56 52.95 52.78 53.65 54.37 54.90 55.89 56.67 59.98 66.01 71.09 71.93 72.34 72.60 72.26 71.06 70.91 70.64 71.04 70.64 71.33 72.28 72.51 72.17 72.72 72.60 71.71 72.08 72.09 72.06 71.39 71.60 70.57 70.98 71.02 70.45
43.81 44.78 45.79 46.66 46.47 46.66 47.32 46.15 46.84 47.82 50.84 51.82 51.83 51.51 52.02 52.02 52.56 54.10 54.75 55.45 56.27 56.55 58.63 64.73 71.08 71.71 71.95 71.85 71.25 71.30 70.47 71.14 71.45 70.86 70.81 70.96 70.86 71.17 71.84 71.32 71.69 71.55 71.47 71.49 70.72 70.48 70.15 70.42 69.60
45.58 45.57 45.99 47.36 47.48 47.74 45.89 46.47 47.43 48.28 51.11 50.66 50.87 50.70 51.16 51.26 52.13 53.10 54.07 55.24 56.44 56.99 57.58 59.12 63.99 70.34 71.52 71.08 71.22 70.78 70.81 71.35 70.25 69.60 69.73 70.41 70.45 71.35 69.89 70.04 69.92 70.94 70.61 70.73 70.48 69.80 70.06 69.72 69.55
46.18 42.73 44.92 46.02 46.48 45.72 47.59 44.27 45.23 49.38 50.76 49.11 49.55 50.40 50.78 51.30 51.97 52.29 55.14 57.57 58.74 59.66 60.37 61.03 60.12 63.83 69.61 70.75 70.79 70.55 70.45 70.36 70.48 69.31 69.86 69.68 70.27 70.73 70.08 68.83 68.88 69.74 70.35 70.37 69.93 69.43 69.38 68.61 68.27
42.83 43.89 40.47 45.51 46.40 46.90 46.02 41.81 46.33 48.84 48.16 48.06 48.94 49.98 50.27 50.85 51.62 55.54 57.69 58.24 59.44 60.10 60.40 61.19 61.48 61.34 62.93 68.49 69.62 70.68 70.76 70.60 70.28 70.04 69.21 69.56 69.60 69.78 69.60 68.07 68.54 68.35 68.69 67.73 67.27 66.38 65.53 65.55 67.12
42.39 38.74 40.97 42.55 46.74 45.86 45.13 42.47 45.98 48.24 47.38 47.23 48.80 49.90 49.78 51.11 54.93 56.45 57.34 57.99 58.31 59.00 59.93 60.54 61.71 61.64 61.00 62.79 67.97 69.30 70.86 70.67 70.57 70.00 69.59 70.12 69.41 69.27 69.28 68.14 68.08 68.18 67.25 67.03 65.92 65.25 64.96 64.65 66.13
38.85 39.20 41.07 40.63 43.94 43.81 42.89 42.53 44.97 46.46 47.40 47.46 49.05 49.35 50.19 52.40 53.83 55.66 56.67 57.48 58.03 58.31 58.95 59.31 60.54 61.05 61.93 61.25 63.61 67.69 68.26 69.66 70.26 69.66 69.09 69.67 69.82 68.89 68.69 68.26 67.64 67.31 66.07 66.77 66.05 64.89 64.38 64.40 64.29
40.74 40.38 40.07 42.08 44.07 40.82 41.32 41.24 43.45 46.92 47.89 47.78 48.34 49.31 51.45 53.07 54.79 55.99 56.62 57.07 57.23 57.66 57.21 57.52 58.22 59.44 59.94 60.08 59.18 64.49 65.88 67.65 68.12 69.66 69.69 69.41 69.28 68.80 68.22 67.40 66.51 66.09 65.39 65.51 65.19 64.23 62.71 63.21 64.60
39.83 38.30 38.66 41.47 42.66 40.68 41.10 41.94 45.06 46.63 47.21 47.32 47.70 50.82 51.36 52.45 53.15 54.39 54.95 55.64 55.79 55.71 56.28 56.03 56.30 57.07 57.72 58.88 59.80 61.95 65.69 66.60 67.18 68.76 70.10 69.17 68.39 68.71 67.50 66.36 65.11 65.42 65.19 64.71 65.09 64.68 61.61 62.67 63.79
38.03 37.31 37.89 37.28 41.33 42.93 41.95 40.58 43.16 44.52 46.26 49.11 50.74 51.24 51.76 51.15 51.39 52.39 52.62 53.39 53.97 53.64 53.92 53.70 54.23 55.00 56.06 57.59 58.97 59.79 64.79 66.58 66.51 66.77 67.82 68.63 68.24 67.60 67.06 65.86 64.54 64.69 64.98 64.76 65.30 64.10 62.39 60.52 62.04
35.08 40.07 38.70 38.51 38.36 35.52 41.96 35.10 40.28 42.67 44.77 47.43 49.51 50.25 51.20 50.98 51.27 51.37 51.18 51.21 51.27 51.79 51.90 50.56 51.09 52.46 53.23 55.28 57.11 58.97 59.95 63.41 65.41 66.01 66.60 66.95 66.67 66.22 66.04 64.67 64.27 63.94 64.76 64.58 64.93 64.58 64.14 63.07 60.01
37.44 40.89 39.52 39.99 38.77 38.54 38.68 35.34 39.55 42.53 41.60 45.62 48.50 49.87 49.99 49.99 49.83 49.44 49.38 49.64 50.11 49.84 48.51 46.79 47.30 48.85 49.67 50.92 52.43 57.11 59.51 65.29 66.00 65.96 65.25 65.25 65.31 65.11 65.35 64.43 64.73 64.06 64.47 64.34 64.89 65.30 65.45 64.40 61.94
41.60 39.24 39.97 40.34 38.64 31.77 36.96 36.52 37.75 39.76 42.45 45.35 48.42 48.78 48.45 48.46 48.87 48.76 49.11 49.10 49.10 49.25 47.55 44.71 44.28 44.94 47.09 48.68 50.69 53.97 60.03 62.34 65.17 65.03 63.79 63.76 63.87 64.33 64.76 65.05 65.53 64.74 63.87 63.76 63.35 64.25 65.50 64.60 63.48
38.93 35.59 28.82 27.00 27.66 28.75 37.46 35.93 38.47 42.58 45.10 46.47 47.48 47.19 47.29 47.84 47.35 47.17 46.86 46.60 46.83 46.21 45.72 43.07 42.10 42.44 44.45 46.05 48.80 53.84 60.44 61.48 65.18 64.91 64.43 62.71 62.71 63.35 63.96 65.29 62.67 63.15 63.61 63.97 63.59 63.28 65.17 64.48 63.10
36.56 35.93 29.29 22.72 26.64 31.25 36.54 32.06 38.43 46.17 47.73 47.56 46.86 46.31 46.66 46.50 46.28 46.03 45.43 45.23 45.11 44.25 44.60 42.27 40.11 40.66 42.83 45.48 49.00 53.72 62.94 63.37 66.47 64.97 64.43 63.61 63.76 64.73 66.58 64.20 62.19 62.26 63.20 63.66 63.86 63.39 65.48 65.32 64.56
37.49 34.53 40.32 33.38 34.22 31.75 34.93 37.83 43.21 43.65 43.53 44.17 44.43 44.77 44.72 44.77 44.54 44.20 44.66 44.09 44.00 42.96 42.95 40.06 39.33 40.15 41.97 45.20 47.69 53.35 65.58 65.92 64.87 64.49 64.47 64.05 66.85 66.63 65.03 63.26 62.11 62.06 62.62 63.72 63.19 64.27 64.63 63.24 62.01
40.17 42.00 33.10 34.88 25.55 25.09 32.35 34.13 36.45 38.78 40.43 41.61 42.05 42.89 43.54 43.63 43.33 43.10 43.01 42.55 42.93 42.39 42.76 39.55 39.14 39.42 40.84 43.82 46.79 51.91 63.39 63.98 64.36 64.49 64.48 62.91 65.69 64.73 64.02 62.79 63.02 62.43 62.58 63.25 63.58 63.63 62.74 61.07 61.89
35.74 35.80 36.82 36.41 34.25 27.57 27.11 33.12 40.16 39.56 39.75 39.96 41.53 42.32 42.59 42.38 41.79 41.41 41.73 41.78 41.96 42.14 41.37 37.81 37.77 37.94 39.34 41.90 45.65 49.01 61.30 62.76 63.15 63.11 62.84 61.98 63.06 63.78 62.54 62.32 61.23 60.66 61.58 62.42 61.73 61.08 62.17 61.89 60.15
35.15 34.59 34.47 30.19 29.05 32.41 31.39 31.89 42.16 41.44 40.48 40.22 40.64 41.11 41.07 41.26 40.59 40.71 40.91 40.61 40.49 40.55 39.37 36.89 36.32 36.48 37.88 39.90 43.07 46.43 48.42 54.89 59.95 60.22 60.64 61.69 61.16 62.29 62.47 62.07 60.30 60.35 61.24 61.18 61.48 61.24 60.89 60.56 59.67

GFSSGP_sfc_wetblb_105.txt.gz
Wetbulb
62.86 61.02 60.81 58.49 50.82 50.47 48.32 50.21 52.08 50.22 50.27 53.09 53.18 52.25 52.80 53.93 52.32 51.51 63.41 70.38 74.04 74.01 76.81 74.37 72.54 73.30 73.88 74.01 74.29 74.49 74.44 74.49 74.54 74.48 74.39 74.53 74.58 74.33 74.19 74.46 74.57 75.11 75.43 75.52 74.94 74.82 74.54 74.63 74.97
62.23 58.91 58.78 56.04 48.43 46.98 48.83 52.62 49.28 51.30 52.62 53.25 53.19 53.05 52.84 52.39 56.36 59.51 63.05 67.75 71.51 74.26 75.79 75.24 72.52 72.71 73.49 73.49 73.98 74.34 74.80 74.67 74.61 74.40 74.46 74.58 74.56 74.28 74.10 74.35 74.36 75.03 75.28 75.68 75.20 74.54 74.65 75.07 74.08
60.00 59.27 55.07 52.16 49.78 47.26 48.63 51.02 51.33 52.02 52.54 52.49 52.11 54.67 54.39 54.13 57.50 60.23 66.00 70.14 72.62 73.07 75.25 75.98 72.10 72.05 72.83 73.00 73.40 74.09 74.53 74.46 74.34 74.27 74.54 74.61 74.53 74.41 74.25 74.08 74.04 74.83 75.53 75.40 74.67 74.31 74.95 73.64 72.71
57.13 56.63 55.27 49.08 48.17 51.57 51.78 52.97 51.26 51.06 52.52 53.17 52.98 51.42 55.73 59.23 59.32 62.38 66.85 70.17 73.56 73.70 75.03 72.18 71.29 71.66 72.52 72.71 73.00 73.59 73.85 73.47 73.64 73.86 74.36 74.56 74.46 74.36 74.20 73.67 74.15 74.99 75.77 75.45 74.88 74.95 73.90 72.11 71.75
57.65 55.28 49.54 48.77 49.44 52.16 54.25 53.47 52.68 51.58 52.05 52.41 53.12 52.16 53.76 58.92 60.16 62.28 65.89 69.92 73.19 74.49 75.07 74.93 70.63 71.38 72.15 72.55 72.74 72.87 72.77 72.92 73.21 73.61 73.78 74.04 74.18 74.08 73.66 73.22 73.94 74.45 74.99 74.97 73.87 73.30 72.27 71.28 71.03
52.31 53.71 48.16 47.14 49.81 52.92 54.42 53.86 53.38 52.65 53.01 53.42 52.71 52.78 54.59 59.94 59.13 61.02 65.83 70.02 74.28 75.20 75.20 75.72 71.94 71.55 71.47 71.70 71.62 71.65 71.60 72.22 72.79 73.10 73.37 73.92 73.62 73.27 73.09 72.92 73.45 73.48 73.53 73.03 73.34 72.53 71.51 70.90 70.72
50.88 51.17 48.24 49.21 49.46 51.19 53.17 54.71 52.47 52.52 52.65 52.88 55.04 51.59 55.94 57.89 60.38 60.44 63.67 69.22 73.29 75.05 75.84 75.93 75.53 73.25 71.33 70.83 70.49 70.20 70.67 71.24 71.81 72.25 72.63 72.97 72.58 72.33 72.51 72.77 72.96 73.08 72.70 72.14 72.35 71.42 70.92 70.58 70.26
52.37 51.07 47.81 49.21 48.46 49.46 53.86 52.87 53.69 52.58 52.24 56.42 55.76 51.75 53.36 58.24 60.12 60.05 61.16 65.53 71.71 74.25 74.59 75.49 75.48 74.70 74.46 73.91 70.36 69.98 70.04 70.23 70.82 71.32 71.44 71.36 71.61 71.70 71.78 71.78 72.30 72.41 72.01 71.34 71.78 70.88 70.28 69.90 69.49
53.40 47.03 46.01 48.30 49.13 50.66 53.42 50.02 54.00 54.85 53.58 54.40 55.61 55.44 57.02 58.66 58.55 58.31 59.50 62.04 69.44 72.75 73.47 74.60 74.50 74.47 74.68 74.74 73.10 70.70 70.73 70.34 70.22 70.91 70.56 70.16 74.26 74.25 73.78 71.75 70.87 71.44 70.31 70.01 69.77 68.81 69.12 69.02 68.88
50.04 47.35 48.19 52.19 51.78 50.74 51.91 51.27 51.72 51.97 52.00 52.26 53.05 55.99 57.29 56.77 56.84 56.78 57.54 58.47 62.38 70.48 72.12 73.10 73.14 73.16 73.49 73.66 74.74 73.82 73.29 72.82 72.69 72.49 72.88 73.16 73.55 73.98 73.16 71.74 69.91 70.39 69.48 69.45 69.01 68.68 68.00 68.47 71.43
50.57 46.77 51.50 52.20 52.73 51.59 50.39 50.20 52.05 50.19 49.31 51.84 51.88 53.89 55.61 55.70 56.07 56.52 56.89 57.99 58.28 64.32 71.96 73.06 73.59 73.47 73.04 73.01 73.16 73.18 73.88 73.42 73.62 73.74 73.69 73.50 73.39 73.91 73.04 72.93 72.63 73.23 70.14 72.28 70.91 71.06 71.48 71.18 70.57
47.26 49.55 49.49 50.55 51.57 49.91 48.96 51.35 50.07 50.81 50.93 53.22 53.49 53.62 53.72 54.13 54.94 55.50 55.82 57.13 57.63 58.80 64.35 71.69 72.95 73.26 73.94 74.11 73.07 73.43 73.35 73.57 73.35 73.48 74.87 74.23 73.22 73.40 73.07 71.78 72.27 72.47 72.26 71.79 71.91 71.26 70.93 70.56 70.56
48.64 49.23 50.12 50.10 49.25 49.06 49.29 47.87 48.23 48.88 51.72 53.21 53.56 53.34 53.03 53.58 54.30 55.48 55.98 56.22 57.65 57.64 59.16 61.55 68.81 71.90 73.09 73.18 73.51 73.11 72.88 72.79 73.03 72.72 73.40 73.19 72.40 72.95 72.34 71.99 71.60 72.00 70.91 72.01 71.48 69.96 70.26 70.58 70.20
49.09 48.64 48.57 49.54 49.23 49.39 47.18 47.70 48.71 49.97 52.22 51.81 52.16 52.26 53.03 53.24 53.86 54.41 55.19 55.74 57.20 58.69 59.17 60.84 61.47 65.42 70.64 71.88 72.79 72.33 72.49 72.48 72.37 72.29 72.05 72.04 72.27 72.11 71.51 71.64 71.06 70.54 71.48 72.14 71.36 70.97 70.28 70.24 70.50
48.72 44.92 47.43 48.01 48.88 48.50 49.72 46.40 47.19 50.85 52.08 51.08 51.93 52.58 52.90 53.24 53.74 53.85 55.41 57.53 58.64 60.09 60.83 62.15 63.31 62.50 63.88 69.48 70.89 71.66 71.98 71.57 71.10 71.37 72.35 70.89 71.18 72.32 72.40 70.48 70.58 70.55 71.48 71.74 70.99 71.12 71.17 69.93 69.29
46.32 46.61 42.35 48.48 49.41 49.33 48.26 42.97 49.80 51.85 51.01 50.66 50.97 51.92 52.03 53.00 52.75 54.85 58.35 58.51 59.47 60.00 60.95 62.44 62.74 63.55 64.11 63.61 66.16 69.70 70.34 71.54 71.07 71.32 71.76 71.24 71.21 72.16 72.14 70.58 69.36 70.27 70.84 70.72 70.05 70.17 69.32 68.61 68.53
45.32 39.98 43.53 46.26 50.70 48.48 47.61 44.63 49.53 51.86 49.90 49.47 50.55 51.02 51.93 52.16 53.68 57.38 58.03 58.47 59.18 60.05 60.59 60.87 61.94 62.43 63.38 63.92 63.42 65.61 70.31 70.92 71.36 71.72 71.86 71.78 71.22 71.23 71.62 70.52 69.18 70.44 69.72 69.60 68.58 68.93 68.52 67.64 67.73
40.34 41.27 44.75 43.58 48.32 47.32 46.43 45.40 48.72 49.81 49.12 48.85 49.86 50.87 51.78 51.50 54.28 56.90 57.36 58.68 59.41 60.10 60.38 60.43 60.60 61.25 62.17 62.58 63.10 62.99 64.58 69.61 70.95 70.72 71.97 72.37 71.76 71.55 71.27 69.64 69.39 69.22 67.53 68.43 67.17 66.42 67.24 66.39 66.58
43.95 42.40 43.40 45.99 48.95 46.26 44.67 45.10 47.11 48.83 48.64 48.28 49.48 50.50 50.99 52.63 55.58 56.43 57.37 58.29 58.80 59.09 58.75 58.82 58.84 59.84 60.09 59.89 60.34 61.04 60.20 65.34 68.41 69.65 70.82 72.24 71.54 71.66 70.24 69.13 69.49 68.90 66.56 67.96 66.23 66.04 65.64 64.84 66.07
42.26 41.00 41.28 44.18 46.86 45.17 44.22 43.68 46.00 47.45 47.61 49.21 49.94 50.28 51.66 53.33 54.10 54.85 55.78 56.78 56.86 56.87 57.29 56.96 57.16 57.80 58.10 58.51 59.18 60.27 61.58 62.76 66.18 68.97 69.96 71.07 70.00 70.13 68.47 68.61 68.54 68.32 66.58 67.66 65.70 65.42 64.06 64.33 64.53
38.59 38.14 39.42 38.07 42.54 45.13 43.07 40.91 44.07 47.59 49.15 49.80 49.73 51.82 53.35 52.80 53.05 53.44 54.29 55.17 55.56 55.14 54.97 54.64 54.77 55.22 56.77 57.48 57.65 58.70 60.68 61.75 62.94 67.68 68.16 69.17 70.66 70.26 68.63 68.82 68.51 67.31 67.02 65.74 65.46 65.52 63.56 61.86 63.20
32.76 40.89 39.91 39.56 38.71 34.54 43.43 34.82 43.33 46.00 45.46 46.89 50.02 51.65 52.57 52.95 52.76 53.04 53.25 53.44 53.87 54.17 54.41 53.95 53.55 53.32 54.21 55.39 54.74 54.68 56.27 58.19 60.73 64.93 67.26 68.18 69.55 68.36 68.51 69.10 67.26 66.45 66.69 65.80 65.39 65.42 64.68 64.76 61.09
36.87 40.44 38.81 39.95 36.69 38.15 39.06 37.66 41.56 44.74 42.92 45.42 49.02 51.37 52.30 51.99 51.77 51.92 52.38 52.48 53.25 53.44 52.96 52.84 51.94 51.54 52.45 52.40 51.81 50.90 52.50 57.06 61.26 63.01 66.91 68.28 68.81 67.89 68.08 68.43 66.87 65.68 65.58 65.50 64.81 64.93 65.23 65.68 63.39
40.15 38.13 38.34 39.45 38.10 30.49 35.72 37.19 39.28 40.99 43.55 46.00 49.18 50.86 50.76 50.62 51.49 51.86 52.27 51.80 51.66 52.20 51.78 50.92 50.00 49.26 49.76 47.96 47.69 47.95 49.41 52.43 57.70 61.62 64.83 67.09 68.14 66.74 66.59 66.13 65.87 65.71 66.59 64.93 64.50 65.59 66.45 66.23 65.23
37.62 34.18 26.98 25.72 27.49 29.20 38.75 36.36 38.28 42.97 46.18 47.74 48.52 49.39 49.76 50.45 50.09 49.90 49.30 49.27 49.39 49.34 49.55 47.98 46.61 45.88 46.01 44.18 44.66 46.56 48.50 50.63 54.79 59.26 63.18 66.73 66.44 64.77 64.24 64.90 64.30 65.31 64.96 61.52 60.55 62.38 64.83 65.95 64.93
36.15 34.02 28.25 22.08 23.32 27.86 36.53 31.68 37.24 46.57 49.49 49.57 49.77 49.59 49.15 48.69 48.86 48.51 48.30 48.15 47.52 47.55 47.14 45.08 44.47 43.72 43.54 42.66 43.13 45.44 47.49 50.52 55.22 59.64 63.26 65.18 65.94 65.61 63.91 64.33 64.06 64.55 64.55 63.88 64.44 65.13 65.59 65.19 64.44
36.02 33.32 38.61 32.52 34.61 31.35 33.21 37.83 43.22 45.12 45.26 47.04 47.02 47.34 46.92 47.23 47.52 47.22 47.38 47.01 46.58 45.88 45.04 43.49 43.30 43.42 41.32 41.11 41.81 44.07 46.86 51.03 58.87 63.36 65.65 66.10 66.91 65.76 64.33 64.30 63.95 64.24 64.71 64.31 64.55 63.25 63.76 64.65 65.42
39.62 42.07 32.10 33.34 25.69 25.31 32.58 33.52 35.39 40.16 42.34 44.62 43.80 44.10 44.95 45.99 45.96 46.33 46.31 46.11 45.99 45.50 44.55 43.46 43.02 41.64 40.23 40.43 40.68 43.60 45.87 49.62 60.75 64.71 65.16 65.67 66.48 66.24 65.72 64.80 63.76 62.75 62.58 64.30 64.04 62.00 63.54 63.87 65.49
37.42 36.18 36.48 35.93 33.31 27.67 27.27 31.50 41.49 41.35 42.44 42.32 42.76 43.21 43.27 43.95 44.18 44.96 45.30 45.71 45.36 44.82 44.05 42.17 40.72 40.16 39.12 38.89 39.96 41.88 44.27 47.41 52.19 62.86 64.28 65.24 66.20 65.73 64.78 64.35 62.81 62.38 62.48 60.80 61.05 62.39 61.63 62.42 63.36
38.26 37.00 36.22 30.25 29.05 31.99 31.51 31.99 43.15 43.52 43.24 42.02 41.71 41.91 42.95 43.49 43.32 43.99 44.27 44.42 43.65 42.63 42.23 41.26 39.12 39.07 38.55 37.83 38.55 40.04 41.50 43.69 46.47 50.26 57.60 64.18 64.50 64.65 64.61 62.84 63.29 62.94 62.05 62.62 58.66 57.81 60.09 61.13 61.86

GFSSGP_sfc_wetblb_108.txt.gz
Wetbulb
61.00 59.59 59.26 57.15 49.21 49.40 46.35 48.42 52.80 50.46 50.48 53.26 53.39 51.88 51.28 52.75 51.66 50.71 65.64 68.18 71.77 74.93 73.83 72.97 72.66 73.50 74.11 74.44 74.61 74.44 74.17 74.57 74.46 74.48 74.59 74.57 74.72 74.61 74.60 74.60 74.49 75.07 75.72 75.72 74.94 74.75 74.67 74.82 74.49
59.50 60.42 57.62 53.83 47.39 44.57 46.52 51.78 49.94 50.79 52.43 53.57 53.20 52.81 51.72 51.53 56.54 58.92 62.80 68.02 71.47 74.40 75.20 73.48 72.39 72.93 73.47 73.68 74.10 74.35 74.69 74.62 74.46 74.50 74.57 74.61 74.47 74.47 74.40 74.39 74.18 74.82 75.52 75.50 74.74 74.59 75.05 74.74 74.00
60.04 60.11 52.70 50.76 47.84 44.83 46.62 51.48 51.28 51.63 52.96 52.50 51.80 54.59 54.15 54.47 58.66 59.77 65.30 68.92 72.22 73.17 75.99 74.47 71.85 72.35 73.13 73.30 73.64 74.02 74.28 74.10 74.19 74.11 74.72 74.64 74.42 74.28 74.39 74.19 74.08 74.82 75.35 75.37 75.47 74.85 74.77 73.92 72.89
56.70 55.49 53.83 47.89 46.02 49.55 50.66 52.94 52.61 51.49 52.50 53.37 52.96 51.07 55.43 59.68 59.54 61.55 65.53 68.58 72.44 74.07 75.60 71.00 71.00 71.94 72.85 72.97 73.53 73.73 73.71 73.45 73.48 73.57 74.41 74.59 74.40 74.38 74.11 73.71 74.16 74.83 75.57 75.30 75.15 74.65 73.97 72.52 72.00
56.66 53.93 48.11 47.03 47.38 50.27 52.69 54.10 53.94 51.42 52.50 52.88 53.30 51.24 53.22 58.62 60.71 61.90 65.09 69.23 72.60 74.91 74.15 72.96 70.51 71.49 72.27 72.89 73.32 73.36 73.30 73.10 73.04 73.28 73.76 74.22 74.31 74.02 73.82 73.26 73.78 74.28 74.90 74.79 74.54 74.13 72.72 71.88 71.31
51.61 52.98 46.28 44.97 47.71 51.39 53.68 55.12 53.75 52.69 53.20 53.31 52.60 52.28 53.85 59.88 59.82 61.28 63.93 69.35 73.94 75.05 75.57 73.01 71.89 71.63 71.67 71.87 72.00 71.95 72.26 72.45 72.67 72.96 73.34 73.83 73.76 73.25 73.25 72.83 73.14 73.55 73.84 73.44 73.04 72.37 71.82 71.07 70.92
49.31 49.04 46.27 47.41 48.07 49.85 52.48 56.28 53.02 52.60 52.66 52.65 55.24 51.79 55.96 58.12 60.75 60.97 63.24 66.46 73.33 75.63 76.79 74.70 73.58 72.37 71.14 70.90 70.72 70.57 71.38 71.90 72.24 72.45 72.61 72.81 72.48 72.30 72.58 72.42 72.80 73.21 72.82 72.38 72.34 71.83 71.19 70.64 70.39
51.30 49.46 46.09 47.40 47.07 47.82 53.23 54.15 53.98 52.44 51.89 56.28 56.29 51.10 52.36 59.32 60.76 61.49 61.84 62.13 69.93 74.44 75.18 75.61 74.43 73.20 72.44 71.93 70.59 70.23 70.52 70.89 71.32 71.86 71.68 71.55 71.61 71.96 71.98 71.77 72.19 72.58 72.22 71.87 72.06 71.14 70.56 70.08 69.40
53.63 45.90 43.76 46.21 47.84 49.89 54.02 52.34 53.71 54.91 52.95 54.16 55.05 54.89 56.92 59.17 59.07 58.80 60.09 61.10 64.74 72.60 73.50 73.83 73.43 73.18 73.45 72.92 71.66 70.65 70.86 70.73 70.61 71.31 71.23 70.27 73.20 72.60 72.28 71.26 70.77 71.78 70.65 70.34 70.89 70.43 69.53 69.06 68.88
49.39 45.64 46.34 50.92 52.00 51.12 52.54 51.79 52.46 51.57 51.90 52.31 53.42 56.37 57.75 58.18 57.99 57.21 57.06 58.35 62.95 66.44 72.89 73.16 72.73 72.58 73.11 73.41 72.51 71.69 71.57 71.12 71.21 71.38 71.77 72.51 72.72 73.06 72.51 71.12 70.02 70.55 69.90 69.74 69.83 69.29 68.64 68.04 69.09
49.66 46.04 49.28 50.61 52.38 52.47 51.34 50.82 52.62 50.50 49.28 52.05 52.08 54.14 56.34 57.09 58.47 58.90 56.59 56.92 58.80 64.08 71.56 72.81 72.83 72.13 71.72 71.83 72.70 72.30 71.75 71.19 71.23 71.35 71.48 71.59 71.73 71.94 71.29 71.61 70.70 70.91 69.94 70.67 69.30 68.96 69.49 69.46 69.34
47.08 49.77 50.41 50.56 51.57 50.35 49.07 51.09 49.57 50.69 51.54 54.02 54.09 54.42 54.19 53.68 55.26 56.50 55.88 56.94 58.42 64.38 63.44 72.07 72.39 72.34 72.07 71.98 71.79 72.96 72.75 71.89 71.50 71.53 71.94 71.55 70.93 71.00 71.23 70.50 71.08 70.97 70.90 70.21 69.63 69.52 69.54 69.19 69.05
48.77 49.83 50.85 51.41 51.33 50.96 50.66 48.19 48.49 48.86 51.72 53.00 53.20 53.21 53.18 53.63 54.08 55.52 56.13 56.57 61.74 60.93 60.90 61.89 64.74 70.39 72.00 71.24 71.98 71.74 71.37 71.92 71.88 72.19 72.08 71.63 71.09 70.66 70.69 70.35 70.14 70.66 70.55 70.14 69.37 69.10 69.24 68.78 68.40
49.44 48.96 48.93 49.62 49.21 49.63 48.27 48.60 48.83 49.76 51.76 51.38 51.81 52.13 53.12 53.30 53.86 54.73 56.13 57.92 58.25 59.86 61.13 62.39 63.42 63.55 63.62 70.98 70.72 70.98 71.46 71.35 71.96 71.68 71.54 72.09 71.66 70.34 70.10 69.81 68.80 70.11 69.65 69.60 69.58 68.88 68.04 68.11 67.74
49.79 45.82 47.54 48.31 49.13 48.50 49.69 46.25 46.92 51.27 52.01 51.20 51.29 51.92 52.42 53.17 53.72 54.08 57.02 57.53 59.33 60.33 61.58 62.61 63.40 64.69 64.52 63.86 66.09 70.41 70.66 70.89 70.61 70.99 71.53 70.96 70.93 70.87 70.09 69.24 68.64 68.73 69.44 68.36 69.00 68.56 68.68 67.76 67.59
45.29 45.73 41.50 47.86 49.36 50.25 48.81 42.40 48.49 51.95 51.36 50.36 50.98 51.90 52.66 53.09 53.30 54.63 57.15 58.63 59.16 59.95 60.89 62.02 62.33 63.16 64.16 64.07 63.91 63.48 64.74 70.26 70.39 70.11 70.72 70.91 70.37 70.20 69.63 69.41 68.08 68.85 68.32 68.73 68.69 68.13 67.39 66.91 66.66
44.19 39.14 41.42 44.68 50.42 49.55 48.76 45.60 49.62 51.25 51.15 50.16 50.60 51.46 51.74 52.33 53.37 56.26 57.92 59.29 58.78 59.32 60.15 60.53 61.54 61.57 62.09 63.08 63.39 63.46 63.37 62.75 69.37 69.94 69.56 70.32 69.78 69.43 69.51 69.44 68.78 68.60 67.76 67.69 68.22 67.34 67.18 66.04 65.42
38.60 40.14 42.94 43.04 47.89 49.45 47.33 47.17 49.28 50.77 50.59 49.56 49.91 50.69 51.24 51.66 52.31 57.02 57.48 58.25 58.52 59.31 59.64 59.45 59.39 60.03 60.78 60.73 62.09 62.23 62.06 61.79 62.85 67.86 69.61 69.76 69.88 69.41 69.18 69.22 68.85 68.33 67.80 67.31 67.76 66.59 66.81 66.02 65.42
43.32 41.61 40.68 44.21 47.54 46.31 45.56 44.82 47.49 49.74 49.90 49.15 48.91 49.55 50.55 51.97 55.67 56.72 57.44 58.15 57.67 57.81 57.40 56.86 56.76 57.03 57.22 57.31 57.17 57.68 58.32 60.57 60.83 64.60 67.49 69.03 69.31 69.44 68.71 68.71 68.51 68.13 67.14 66.33 67.13 65.51 65.29 63.97 64.59
42.31 40.25 39.55 43.46 45.85 44.98 43.68 41.72 44.21 48.28 48.67 49.47 48.85 49.01 50.29 51.88 53.81 54.94 55.58 56.20 56.40 55.83 55.11 54.86 54.77 54.72 54.89 55.63 56.05 56.52 56.58 57.53 59.11 60.56 61.77 66.70 67.71 68.12 68.62 68.36 68.07 67.54 66.54 65.92 65.92 65.05 63.56 64.04 64.58
40.05 39.13 38.70 38.40 42.30 43.34 41.47 38.71 41.99 47.10 48.58 49.10 50.06 50.13 51.28 52.82 52.82 53.22 53.63 54.46 55.10 54.22 53.92 53.36 53.24 53.01 53.56 54.33 54.26 54.98 55.74 56.18 57.50 58.37 59.34 61.16 66.86 67.69 67.92 68.25 67.70 66.50 66.13 65.01 65.53 64.82 63.13 61.97 63.42
35.76 42.37 40.95 38.84 36.36 31.52 40.68 30.48 38.84 43.65 45.27 46.72 48.46 50.09 51.95 52.37 52.68 52.35 52.28 52.37 53.22 52.85 53.08 52.59 52.19 51.98 52.19 52.34 51.14 50.58 50.49 50.55 53.15 55.53 58.65 60.84 66.80 66.83 67.37 67.66 67.56 66.19 65.44 64.67 64.66 65.38 63.28 62.39 60.90
38.27 40.60 38.94 38.00 35.25 34.32 34.76 31.19 36.66 42.93 41.84 44.90 48.05 50.56 51.49 51.26 51.53 51.04 50.81 50.89 51.35 51.53 51.07 51.04 50.07 49.57 49.31 49.55 48.70 46.84 46.55 49.47 51.67 53.66 55.57 58.58 60.99 66.09 66.74 66.76 66.60 65.51 64.87 64.09 64.98 64.53 63.81 62.49 61.24
41.54 37.52 37.64 37.21 34.49 27.32 33.26 31.93 32.80 38.76 42.81 45.09 48.43 49.69 50.11 50.34 50.33 50.15 50.26 50.26 49.38 49.95 49.60 48.22 47.24 46.55 47.44 47.28 45.76 44.38 43.78 45.36 47.05 49.19 51.69 54.81 59.58 63.18 65.42 65.54 66.64 66.40 65.00 64.40 64.07 61.74 63.56 62.54 62.55
38.60 33.43 27.16 25.65 26.48 25.82 36.48 32.57 34.73 42.21 45.02 46.85 47.13 48.45 49.21 49.50 48.70 48.10 47.38 47.12 47.26 47.16 47.19 46.17 45.33 44.57 46.07 45.38 43.41 42.75 43.03 43.95 44.95 46.99 49.29 51.77 55.88 60.41 62.42 65.04 65.40 65.53 64.71 64.14 64.01 63.51 63.21 62.67 62.34
36.02 33.73 27.95 21.70 24.12 27.67 35.83 29.79 34.55 44.95 47.81 47.91 47.99 47.76 47.78 47.11 47.42 46.58 46.53 46.26 46.02 45.95 45.56 44.43 43.71 43.14 43.71 43.22 42.16 41.73 42.48 44.02 46.00 47.58 49.96 51.53 55.21 59.51 62.72 63.74 64.58 64.66 64.62 64.34 64.05 63.41 61.99 60.61 60.24
35.93 31.50 37.14 30.26 31.01 28.41 31.91 35.61 40.62 44.96 44.95 45.37 45.59 45.40 44.68 44.94 44.72 45.02 45.75 45.77 45.38 44.78 44.56 43.29 41.78 40.98 41.49 41.30 41.07 40.57 42.36 44.15 45.14 46.94 49.83 53.25 56.25 59.19 63.50 64.62 64.02 64.04 64.22 63.78 60.77 59.38 59.75 59.30 61.41
39.40 41.14 31.54 31.36 23.66 23.01 30.55 32.48 33.87 39.57 41.02 42.96 42.26 42.12 42.47 43.14 43.18 44.11 44.46 44.69 44.40 43.92 43.64 43.13 41.32 39.34 40.13 40.04 39.51 40.19 40.95 43.10 44.72 47.08 49.35 55.81 58.89 62.35 63.53 64.01 64.05 63.46 63.60 63.12 61.30 61.53 62.06 63.08 62.92
37.01 35.24 35.49 35.03 32.47 26.25 25.26 30.39 39.13 37.99 39.57 40.20 41.29 41.67 41.93 42.09 42.10 42.59 43.42 44.00 43.04 42.85 42.00 41.31 40.33 38.35 37.39 37.87 38.57 39.08 39.22 40.79 42.87 43.92 45.80 47.81 51.90 62.11 62.78 63.77 63.51 63.02 62.59 62.79 62.52 62.24 62.35 61.48 60.83
39.94 36.68 35.81 31.05 28.92 31.66 30.41 30.07 41.19 39.40 40.85 41.74 41.37 41.64 42.11 41.84 41.19 41.42 42.10 41.93 40.90 40.36 39.60 39.46 38.60 37.64 36.08 36.33 37.54 37.28 37.74 38.74 40.39 41.12 43.28 46.73 46.78 52.84 62.02 63.00 62.93 62.70 61.57 61.38 61.53 60.45 60.23 59.80 57.27

GFSSGP_sfc_wetblb_111.txt.gz
Wetbulb
57.24 54.89 53.82 50.95 41.96 40.60 37.91 42.23 45.59 44.35 44.88 47.79 50.17 49.33 47.07 47.27 50.80 48.14 61.93 66.46 71.78 71.25 72.49 72.43 72.45 73.64 74.23 74.12 73.48 73.40 73.97 74.32 74.32 74.29 74.20 74.29 74.17 74.17 74.09 73.88 74.13 74.82 75.55 75.11 74.78 74.48 74.23 74.53 73.98
55.75 57.15 52.47 46.72 39.25 35.00 38.67 45.72 43.29 45.58 48.77 50.21 51.44 50.22 48.96 50.07 56.31 58.88 60.19 65.77 71.36 71.85 71.97 72.13 72.08 72.92 73.49 73.63 73.55 73.27 74.21 74.38 74.14 74.15 74.36 74.33 74.22 74.14 74.08 73.63 73.57 74.56 75.62 75.46 74.50 74.25 74.53 74.22 73.18
56.94 57.71 46.19 41.65 37.88 36.40 39.26 45.25 45.32 48.04 50.35 49.73 48.74 51.43 53.01 53.46 57.17 59.11 63.12 67.63 70.57 72.93 72.02 72.20 71.64 72.07 72.87 73.08 73.40 73.46 73.56 73.55 73.64 73.94 74.41 74.24 74.10 74.25 74.26 73.59 73.53 74.60 75.79 75.70 74.62 74.88 74.75 73.29 72.45
51.90 48.84 46.46 39.34 38.26 43.05 44.40 48.36 47.84 48.39 49.17 50.13 48.66 49.60 52.67 58.47 57.58 60.10 65.24 69.26 69.92 71.94 72.48 70.65 70.63 71.70 72.46 72.89 73.06 73.23 73.07 72.76 72.88 73.46 73.99 74.19 74.26 74.28 73.95 73.29 73.69 74.71 75.12 75.41 75.73 74.62 73.46 72.36 71.79
51.54 45.72 38.76 37.52 40.02 44.40 48.52 50.66 49.32 48.76 49.27 49.59 49.38 49.34 50.76 56.05 58.57 60.53 64.93 69.59 69.55 71.81 71.42 70.85 70.25 71.10 72.07 72.64 72.99 72.84 72.70 72.41 72.43 72.97 73.33 73.66 73.94 73.64 73.29 72.77 73.30 73.88 74.50 74.72 74.36 73.46 72.93 71.70 71.04
44.64 44.66 36.47 35.21 40.83 46.87 48.95 50.18 50.58 50.76 50.84 50.43 49.42 49.94 50.03 56.55 56.33 56.76 61.32 67.66 70.41 72.05 72.08 71.00 71.46 71.27 71.32 71.74 71.97 71.99 72.08 72.01 72.03 72.28 72.91 73.53 73.14 72.71 72.59 72.50 72.75 72.92 73.27 73.22 72.78 72.37 71.70 71.18 70.59
41.35 39.17 36.56 38.93 42.38 45.27 49.15 52.08 49.37 49.71 50.65 49.63 54.06 49.63 51.48 54.65 55.60 56.26 56.11 60.18 70.21 72.12 71.47 70.87 70.97 71.43 70.74 70.21 70.35 70.47 71.28 71.54 71.72 71.69 72.17 72.47 72.04 71.74 71.97 72.19 72.34 72.45 72.27 71.98 72.14 71.72 70.87 70.39 69.91
44.64 40.83 37.83 39.79 41.20 42.29 49.47 51.44 50.14 49.87 47.50 55.23 54.09 48.51 47.10 53.60 55.61 55.13 54.50 54.86 69.86 70.91 71.52 70.75 70.56 70.45 69.73 69.50 69.63 69.95 70.56 70.85 70.92 71.32 71.21 71.03 71.07 71.45 71.51 71.19 71.57 72.01 71.70 71.59 71.53 70.79 70.45 69.63 68.99
45.41 36.78 37.87 38.92 41.31 44.62 50.52 48.78 50.28 50.30 49.74 51.67 52.28 52.37 54.27 56.08 54.85 52.93 52.37 53.99 62.45 69.88 70.11 71.68 71.05 71.02 70.00 69.75 70.02 70.10 70.53 70.47 70.61 71.24 70.74 69.89 71.31 71.44 71.61 70.77 70.43 71.23 70.23 70.28 70.56 70.10 69.45 68.91 68.37
41.62 36.29 39.10 44.83 46.86 46.42 48.65 48.32 48.67 48.17 48.91 50.02 50.33 53.95 55.62 55.79 53.37 52.00 50.97 51.14 52.78 65.73 68.85 69.63 70.89 70.71 71.01 71.50 69.57 68.81 69.91 69.71 70.02 70.63 70.79 71.54 70.82 71.11 71.78 70.32 69.58 69.89 69.54 69.59 69.61 69.25 68.53 68.08 67.97
43.42 41.05 45.49 47.15 48.83 49.49 47.87 47.95 49.92 46.34 46.16 48.97 49.33 51.51 53.21 53.22 52.24 51.87 51.14 50.97 51.92 65.67 69.87 69.81 70.32 70.70 71.44 71.27 69.37 69.18 69.22 68.83 69.05 69.01 70.07 70.32 71.26 70.95 70.92 70.55 70.12 69.59 69.74 69.82 69.08 68.49 68.24 67.95 67.84
43.48 47.33 47.88 48.17 49.39 48.46 47.77 49.62 47.71 46.80 47.40 50.32 50.12 50.91 50.50 50.77 50.53 51.83 50.82 51.47 51.89 52.10 66.75 70.21 70.11 69.51 68.59 69.81 71.38 70.59 69.36 68.69 68.72 68.90 69.25 69.59 69.07 68.84 70.11 69.58 69.42 69.32 69.72 68.96 68.76 68.31 67.97 67.97 68.28
44.98 46.65 48.60 48.98 48.67 47.51 48.41 46.34 47.16 47.60 48.22 49.57 50.12 50.53 49.57 49.99 50.05 50.48 51.12 51.12 50.49 52.98 55.67 58.07 66.39 67.35 69.16 68.95 69.34 70.30 70.11 69.44 69.37 69.28 69.52 70.08 69.00 68.80 68.51 69.21 69.63 69.48 69.57 69.00 68.35 68.10 68.28 67.99 68.00
47.24 47.67 47.74 48.28 47.51 47.86 46.86 46.92 46.71 47.49 48.71 48.11 48.96 49.16 48.86 49.96 50.22 48.95 49.29 49.15 53.06 55.00 56.30 56.86 58.02 58.90 60.39 62.33 65.73 67.63 67.75 68.38 69.48 69.46 69.54 70.02 69.97 68.97 68.84 67.95 68.23 69.21 69.62 69.24 68.66 67.81 67.75 67.67 67.68
47.16 42.29 44.28 45.19 45.02 44.72 47.17 43.77 44.75 48.96 49.03 48.17 49.07 49.89 48.79 49.03 49.72 49.38 50.52 52.13 54.00 56.07 56.72 57.35 58.35 58.32 59.16 61.09 60.54 60.82 65.06 68.55 67.30 68.17 68.92 70.07 69.57 68.74 68.68 67.75 67.18 68.73 69.35 68.62 68.43 66.90 67.36 67.00 66.84
41.99 41.32 36.53 42.83 45.42 47.09 45.68 39.79 46.63 48.12 47.42 47.24 48.90 49.04 48.94 48.67 49.82 50.26 52.56 52.73 53.91 55.67 55.63 56.60 58.38 57.46 57.31 57.65 58.70 59.60 60.33 60.61 63.98 67.60 67.88 68.37 69.34 68.79 68.13 67.39 66.16 66.17 68.52 67.25 67.53 67.06 66.05 65.93 65.54
38.23 33.33 35.85 39.75 45.93 45.78 44.91 41.86 47.90 49.37 49.81 48.21 48.33 48.06 47.29 47.65 50.45 52.12 52.63 53.36 54.30 54.59 55.18 55.04 55.47 55.43 55.78 56.27 56.84 57.68 58.23 58.59 59.78 61.97 66.29 67.61 68.80 68.75 68.46 67.30 67.10 66.29 65.93 66.72 66.73 65.67 66.24 65.22 64.88
32.06 33.82 36.28 36.74 41.30 43.91 42.13 42.51 46.44 49.04 48.91 47.56 47.03 44.77 45.74 46.48 50.60 53.03 53.75 54.12 53.79 53.50 53.46 53.68 54.03 53.48 53.69 54.41 55.01 55.32 55.57 57.02 57.91 58.16 60.56 66.40 67.70 68.72 67.60 67.51 67.43 66.52 65.96 64.74 65.52 66.15 65.58 65.79 65.14
38.97 37.39 36.10 39.59 43.79 42.06 41.00 41.28 41.49 45.09 46.19 46.58 45.53 45.43 45.05 50.57 52.23 53.33 52.96 52.50 52.41 51.72 51.55 51.57 51.35 51.12 51.61 51.49 51.33 51.95 52.38 53.78 54.81 56.22 57.59 58.51 64.93 67.53 67.84 67.33 67.05 67.78 66.75 66.15 65.71 65.51 65.00 62.04 64.22
38.52 36.10 35.72 39.47 42.85 41.20 39.17 37.97 41.50 43.85 44.97 46.72 47.63 45.40 46.42 50.97 51.16 51.64 51.33 50.66 50.22 49.61 49.60 49.72 49.63 49.40 49.73 50.41 50.49 50.55 51.27 52.59 54.12 55.51 56.62 57.12 58.12 60.61 67.03 67.34 66.94 67.25 66.49 65.42 64.87 65.02 62.94 62.40 63.76
37.80 35.87 35.79 35.44 39.31 40.43 37.95 35.65 38.65 43.24 45.80 48.16 49.28 48.14 48.75 50.02 49.54 49.38 49.52 48.60 48.44 47.63 47.60 47.90 47.88 47.87 48.03 48.18 48.60 48.13 48.37 48.95 50.26 51.55 52.53 54.07 56.02 57.88 60.60 66.36 66.81 66.82 66.09 65.34 64.53 63.42 62.94 60.78 61.51
34.14 39.69 38.21 36.77 34.61 29.76 36.86 27.83 35.50 39.47 41.12 45.08 48.06 46.91 48.38 48.69 48.72 48.10 47.48 46.34 46.34 46.21 47.14 46.40 46.46 45.64 46.77 46.51 45.24 43.79 43.24 43.21 45.77 47.24 49.98 51.25 53.07 54.86 57.76 61.10 65.44 66.37 65.73 64.14 62.69 59.27 59.45 57.19 59.86
36.41 39.52 37.26 36.16 32.98 33.49 32.60 30.19 33.09 38.98 38.63 42.56 45.54 47.31 47.45 46.97 46.27 45.42 45.32 45.42 45.88 45.51 44.24 44.52 44.98 44.81 44.98 44.71 43.90 42.28 41.26 42.65 44.49 45.52 46.51 48.22 50.23 52.96 55.40 58.67 62.52 64.25 64.90 63.99 59.94 58.09 60.01 61.73 61.32
40.72 37.04 36.08 34.99 33.82 26.21 31.14 30.97 29.75 33.75 38.92 41.83 45.89 47.03 46.11 44.90 45.01 45.25 45.88 45.87 44.03 43.66 42.48 42.59 42.97 42.94 43.68 42.84 42.51 41.24 40.44 41.34 41.98 42.93 44.04 46.05 48.13 50.23 52.92 56.93 60.90 63.50 63.82 63.58 62.45 61.13 61.34 61.42 61.46
36.62 32.15 24.68 21.21 24.85 22.39 34.46 31.61 31.84 38.63 43.20 45.26 45.38 44.59 44.41 44.68 43.29 43.39 43.34 42.93 42.98 41.66 41.48 42.43 40.99 39.67 40.99 41.28 41.51 40.70 39.90 40.84 41.14 42.74 44.13 45.67 47.36 49.16 51.15 55.12 58.51 61.40 62.79 63.06 62.69 62.77 62.48 62.08 61.18
33.55 31.47 24.62 19.42 20.75 26.37 33.73 28.26 33.08 43.89 45.47 44.65 43.89 43.18 43.15 42.84 43.28 42.66 42.60 41.66 41.10 41.64 41.14 39.41 39.13 37.47 38.51 39.90 39.71 39.91 40.12 40.82 41.39 43.46 44.48 45.26 46.91 49.84 51.80 53.56 57.40 58.63 61.45 62.79 63.01 62.58 61.13 59.54 61.34
35.05 30.17 35.09 29.07 28.88 24.14 27.43 34.21 40.74 39.37 42.30 42.64 41.30 41.39 40.21 41.03 41.60 41.80 41.56 40.70 40.60 40.08 39.90 38.64 38.47 37.00 36.64 37.98 38.34 38.80 39.63 40.16 40.42 41.58 43.77 45.74 48.41 50.52 53.74 53.13 55.55 55.11 57.48 58.84 62.00 61.74 60.00 58.51 56.34
37.05 38.33 29.21 30.35 21.92 20.88 27.76 31.10 28.59 33.57 34.85 38.79 37.85 38.42 39.14 40.20 40.51 40.86 40.27 39.58 39.53 39.18 38.90 37.74 37.36 37.93 36.46 36.63 36.89 38.03 38.32 38.87 39.49 40.85 42.62 43.40 45.52 47.86 50.39 55.79 56.56 58.29 56.02 58.64 61.54 61.21 60.28 59.65 59.23
34.58 33.05 34.90 33.90 31.88 24.57 23.71 29.45 33.91 32.23 36.50 36.74 37.34 38.30 37.87 38.19 38.38 38.59 38.20 38.04 37.88 37.50 37.14 37.28 36.51 36.81 35.62 35.49 35.98 36.44 36.56 37.58 38.17 39.25 40.40 41.29 43.20 45.49 48.48 51.13 59.62 60.60 60.89 60.89 60.62 60.58 59.73 59.14 58.42
38.93 35.00 34.82 27.89 27.02 29.95 29.05 29.44 38.81 37.76 38.27 39.45 38.45 37.42 37.34 37.15 36.62 36.37 35.99 35.97 35.57 35.29 35.69 36.24 36.19 35.60 35.98 35.40 35.33 35.54 35.92 36.40 36.35 36.99 38.35 39.73 40.53 42.79 44.95 49.57 56.19 60.63 60.22 60.40 60.70 59.94 59.86 59.38 59.43

GFSSGP_sfc_wetblb_114.txt.gz
Wetbulb
55.76 52.58 51.92 49.61 41.29 38.27 35.14 39.46 43.70 43.74 43.45 46.85 48.88 47.80 45.65 46.28 49.92 46.20 61.66 68.28 71.28 70.77 72.19 72.75 72.65 73.46 73.62 73.75 73.49 73.57 73.96 74.07 74.01 74.05 73.89 73.83 73.85 73.94 73.97 74.19 74.46 75.09 75.42 74.88 74.51 74.38 74.26 74.43 73.55
54.06 55.51 50.50 44.27 37.42 32.47 35.49 42.77 42.69 44.35 47.30 48.50 50.17 49.39 48.81 50.65 57.54 59.23 59.58 67.74 71.18 71.26 71.72 72.13 72.49 73.09 73.32 73.03 72.90 73.44 74.19 74.22 74.14 73.94 74.03 73.77 73.80 73.76 73.60 73.56 73.90 74.78 75.34 74.78 74.46 74.18 74.13 74.27 73.02
55.42 55.67 45.41 39.90 34.80 33.59 36.31 42.82 44.99 47.40 49.31 48.42 47.88 50.46 52.32 52.31 57.33 58.94 62.09 69.44 71.37 71.20 71.43 71.75 71.82 72.36 73.14 72.86 72.68 72.92 73.58 73.48 73.63 73.69 73.99 73.91 73.92 74.06 73.59 73.12 73.53 74.81 75.23 74.76 74.15 74.10 74.50 73.07 71.84
51.22 46.79 44.10 38.09 36.10 40.17 42.10 45.74 47.03 46.71 48.46 48.41 47.00 48.78 52.50 57.14 57.08 61.47 66.36 69.21 70.85 71.35 71.23 70.56 70.63 71.68 72.60 72.99 72.84 72.71 72.74 72.46 72.71 73.17 73.69 73.95 73.96 74.05 73.66 72.73 73.50 74.63 75.38 75.37 74.73 74.55 73.60 71.92 71.16
48.94 43.14 37.45 34.36 37.25 41.47 45.13 47.20 47.91 48.55 47.41 48.31 47.51 48.23 50.05 55.52 60.80 64.45 67.09 67.98 70.52 70.65 70.47 70.65 69.83 70.99 72.16 72.77 72.94 72.70 72.29 71.92 72.14 72.75 73.17 73.46 73.71 73.83 73.06 72.61 73.08 73.90 74.68 74.65 74.79 73.63 72.27 71.54 71.28
42.84 41.84 34.78 33.40 37.62 43.44 45.54 47.81 48.22 49.21 49.31 48.51 47.47 48.22 48.50 55.51 56.17 61.61 66.68 66.94 70.78 70.11 70.33 70.51 70.96 71.01 71.23 71.52 71.66 71.34 71.41 71.68 71.65 72.26 72.69 73.21 73.00 72.66 72.57 72.32 72.43 72.59 73.00 72.96 72.68 71.91 71.72 71.28 70.69
40.34 37.63 33.92 34.52 38.13 41.28 46.45 49.19 48.14 48.07 49.13 48.74 52.55 47.99 50.14 52.71 53.73 54.55 60.82 68.05 70.50 70.80 69.93 70.01 70.51 71.14 70.28 69.90 69.86 70.20 70.67 70.99 71.05 71.28 71.53 72.15 71.63 71.24 71.83 71.96 72.09 72.05 71.99 71.77 71.69 71.29 71.01 70.83 70.13
42.27 39.02 34.10 35.52 37.65 39.00 45.55 48.49 48.95 47.85 47.47 54.13 52.50 47.27 46.65 52.53 54.63 53.63 53.60 65.57 69.56 70.27 69.36 69.25 69.77 70.02 69.75 69.59 69.01 69.52 69.91 70.22 70.27 70.74 70.54 70.61 70.56 70.89 71.01 70.92 71.36 71.52 71.39 71.33 71.36 70.74 70.37 69.89 69.01
43.23 35.62 31.97 36.05 38.10 41.35 47.72 46.78 47.30 49.66 47.69 49.21 51.39 50.73 53.40 55.30 53.29 51.59 51.02 54.51 67.56 69.67 69.16 68.56 68.87 69.16 68.83 69.12 69.65 69.97 70.51 70.09 69.89 70.27 69.97 69.53 71.30 70.99 70.98 70.30 70.01 70.63 69.67 69.94 70.30 70.05 69.27 68.57 68.10
39.88 34.22 36.86 42.16 42.77 43.83 46.59 47.05 47.09 46.68 47.56 47.93 48.52 52.35 54.12 54.28 51.30 50.94 50.68 51.10 61.84 66.99 68.28 69.48 68.96 68.89 68.62 70.25 69.10 68.80 69.95 70.29 70.66 71.42 71.26 71.32 71.15 70.48 71.29 70.22 69.05 69.56 69.05 69.02 69.36 69.00 68.26 67.99 67.70
40.28 38.58 42.45 45.30 46.90 47.11 46.74 47.37 49.16 46.12 44.72 47.44 47.43 49.34 51.27 51.55 50.72 50.05 50.04 50.50 50.78 55.35 67.86 68.89 69.30 68.98 68.89 69.37 68.40 68.12 68.42 68.15 68.71 69.71 70.38 70.59 70.20 70.75 70.57 70.27 69.77 69.12 69.25 69.41 69.19 68.71 68.65 67.88 67.27
39.89 44.62 45.83 46.26 47.49 45.76 44.92 45.86 45.88 45.45 46.40 49.29 49.33 49.04 49.44 49.29 50.45 50.63 50.23 51.11 50.33 59.53 67.39 68.84 68.85 68.51 68.67 68.67 68.40 67.99 67.81 67.49 67.85 68.35 68.94 69.45 69.61 69.82 70.32 70.02 69.19 68.62 69.03 68.83 68.94 68.85 68.19 67.38 67.38
42.73 44.23 46.08 47.27 47.48 46.74 47.60 45.95 46.01 46.02 48.40 48.36 48.54 48.91 48.25 48.47 48.94 49.49 50.60 49.54 53.95 56.10 62.08 65.33 65.47 63.99 65.95 69.14 69.03 69.66 68.89 68.04 67.90 67.86 68.60 69.32 69.05 68.76 69.64 69.68 69.28 68.91 68.78 68.87 68.42 68.06 67.68 67.29 67.20
44.86 45.15 44.02 44.94 44.44 45.41 45.27 45.50 44.66 46.58 48.26 49.04 49.49 48.71 48.22 48.40 48.63 47.87 48.73 49.58 52.84 55.34 55.95 57.12 57.57 58.21 59.84 60.51 60.92 64.64 67.61 67.40 67.29 67.97 67.95 68.78 68.49 68.28 68.37 68.99 68.93 68.87 68.97 68.60 68.26 67.63 67.52 67.14 67.16
45.34 40.98 43.11 42.83 42.76 42.92 46.18 42.22 42.52 47.85 47.43 47.95 49.23 49.88 49.08 48.12 48.06 47.90 48.45 52.17 55.17 55.32 55.38 56.19 56.43 56.01 56.37 56.77 58.29 59.50 60.77 62.76 65.68 68.13 67.43 67.75 68.77 68.51 68.46 68.05 68.14 69.06 69.24 68.62 68.31 67.50 67.09 66.73 66.64
40.04 39.15 33.29 39.97 42.08 44.12 40.95 37.56 43.77 47.74 46.54 45.53 46.05 48.15 49.33 47.96 48.27 48.72 52.56 53.45 53.70 54.18 53.81 53.88 54.66 53.40 53.48 54.00 55.20 56.48 57.51 58.53 59.90 61.31 64.26 66.98 68.94 69.25 67.83 67.86 67.68 67.48 68.60 68.46 67.97 67.23 66.08 66.26 65.90
35.52 30.09 33.39 36.90 43.82 41.88 40.41 39.11 43.95 47.77 47.07 46.22 46.12 47.38 48.98 48.79 48.65 50.02 52.24 52.32 52.05 51.99 52.19 51.42 51.55 51.33 51.82 52.36 53.02 53.58 54.23 55.23 56.20 57.19 58.49 62.38 65.57 67.30 68.04 67.59 67.39 66.42 66.71 67.21 67.56 67.07 65.98 65.11 64.95
29.89 31.21 31.62 31.59 37.52 39.52 38.92 40.00 44.31 45.11 44.19 44.90 45.39 46.76 47.95 46.49 49.29 51.73 51.39 51.17 50.66 50.56 50.59 50.42 50.35 50.19 50.67 50.82 51.00 51.42 51.82 52.71 54.14 54.37 55.78 57.01 57.84 61.49 65.84 67.00 67.02 66.33 65.26 65.54 66.06 66.36 65.93 65.24 65.09
36.77 34.72 33.67 36.96 39.76 38.68 37.69 39.08 41.00 43.48 43.33 43.22 44.37 46.27 47.55 48.60 50.57 50.54 50.08 49.71 49.38 49.00 48.53 48.30 47.87 48.06 47.83 47.95 47.87 48.28 47.79 48.98 50.33 52.05 53.84 55.20 56.48 57.56 57.58 64.36 66.35 65.82 65.66 65.50 64.78 64.60 63.01 63.26 64.22
37.59 34.85 34.11 37.65 40.12 38.42 36.19 36.80 40.73 42.57 42.65 43.46 43.75 45.76 48.71 49.32 49.23 48.48 47.64 47.23 46.76 46.20 46.19 45.97 45.64 45.86 45.71 46.27 46.62 46.71 46.31 48.09 48.19 50.65 50.45 51.95 52.79 53.73 54.95 56.39 60.89 65.89 65.70 64.78 63.55 64.41 63.24 64.16 64.00
36.13 34.30 34.44 33.99 36.78 37.33 35.58 33.53 37.26 41.02 42.64 44.27 45.19 45.90 49.73 48.70 47.22 46.30 45.51 44.90 44.40 43.65 43.88 44.04 44.03 44.20 45.04 45.19 44.81 43.94 44.21 45.12 45.70 45.60 46.38 48.36 49.60 50.49 51.83 53.60 55.69 57.23 64.20 65.53 65.06 63.27 62.93 61.62 61.43
32.29 38.28 37.27 35.84 32.94 27.99 35.60 26.28 34.24 37.33 38.74 41.12 42.94 44.86 46.51 45.96 45.52 44.76 43.65 42.60 42.44 42.12 42.98 43.18 44.38 43.47 44.16 43.54 42.32 40.98 39.88 39.61 42.07 43.05 44.90 45.84 47.83 48.82 50.35 52.53 53.99 56.01 58.77 62.80 64.97 63.40 62.07 58.97 56.18
35.23 38.55 36.63 35.30 31.32 30.01 31.26 26.99 31.91 37.61 36.09 38.67 42.99 44.37 43.69 44.56 44.04 42.59 42.32 42.00 41.65 41.74 41.04 41.35 41.02 40.87 41.56 41.57 41.01 40.39 39.56 40.10 41.12 42.96 43.76 45.09 46.40 47.89 49.27 50.16 51.59 53.50 55.22 59.02 64.00 61.47 57.80 57.64 55.60
39.69 36.06 34.83 33.63 31.15 21.41 28.86 28.28 26.37 31.59 37.14 41.14 43.91 43.07 43.21 42.92 42.70 42.30 42.36 42.13 40.75 40.57 40.35 40.17 38.80 37.61 39.45 40.31 39.30 40.44 39.16 39.19 39.90 41.07 42.34 44.31 45.97 47.32 49.00 50.22 50.81 52.63 55.58 58.41 62.41 62.33 60.40 57.53 57.12
35.20 30.89 25.78 19.07 22.89 20.75 31.92 28.51 29.68 39.53 41.23 43.36 40.43 39.98 41.22 41.61 40.98 40.14 39.44 39.22 39.20 39.14 38.54 39.36 38.07 36.68 36.61 37.38 37.66 39.05 39.33 39.64 39.63 40.10 41.39 41.98 43.34 45.13 47.25 49.06 50.68 51.81 53.44 56.54 60.87 60.24 58.84 58.81 58.30
32.90 31.32 24.63 18.04 19.75 22.79 31.67 23.39 32.17 38.32 37.49 39.82 41.00 40.66 40.72 40.18 39.78 38.92 38.61 38.33 37.95 38.07 37.11 36.29 36.75 36.46 36.52 36.53 36.57 38.16 38.53 38.89 38.93 39.14 40.13 41.20 43.12 44.72 46.55 47.88 50.32 51.45 53.04 54.54 58.18 61.48 60.56 59.01 59.90
33.35 27.68 33.51 28.77 28.09 20.75 25.23 30.90 36.48 36.04 34.97 35.52 35.21 37.03 37.42 38.14 37.87 37.53 37.96 37.33 37.01 37.18 36.36 35.70 36.01 36.27 35.84 35.28 35.83 36.82 37.69 37.72 38.00 38.64 39.94 40.99 42.01 43.48 44.46 45.25 47.41 49.57 53.86 54.14 56.46 60.10 59.35 60.10 60.37
35.93 36.81 28.79 28.49 20.26 19.77 24.88 27.33 26.92 32.75 32.57 34.49 33.46 32.93 33.61 36.35 36.32 36.27 36.13 35.88 35.83 36.05 36.60 36.20 36.17 35.42 35.81 35.55 35.64 36.20 36.19 37.27 37.82 38.16 38.14 39.00 40.01 41.27 42.11 43.56 45.85 49.00 53.29 54.67 55.15 57.13 59.89 59.63 59.41
33.93 32.90 33.62 31.83 28.40 22.32 21.31 25.08 34.42 33.11 35.74 34.13 34.08 34.55 35.09 34.32 34.35 34.54 34.74 35.39 35.10 35.11 35.27 34.94 34.31 34.28 34.15 34.64 34.90 34.87 35.03 35.78 36.46 36.41 36.44 36.96 38.11 39.21 40.54 41.45 44.03 47.59 50.03 57.00 55.49 55.77 58.63 59.37 59.11
38.17 35.06 34.97 25.63 23.65 27.36 25.51 27.91 37.98 37.42 38.74 36.52 35.25 34.98 34.21 33.52 33.10 32.91 33.09 33.30 33.53 34.00 34.73 34.02 32.94 33.02 33.65 34.54 34.22 33.86 34.34 34.66 34.39 34.38 34.66 35.30 35.42 37.18 38.13 39.82 41.38 43.90 44.88 48.99 58.62 56.63 58.26 58.37 58.53

GFSSGP_sfc_wetblb_120.txt.gz
Wetbulb
54.46 50.59 49.73 47.41 41.00 37.44 33.68 36.96 39.42 41.49 43.43 44.53 45.91 44.66 44.13 46.19 50.74 44.89 58.70 63.71 69.65 70.30 71.96 71.84 72.47 73.25 73.44 73.29 73.11 73.23 73.80 74.01 74.14 74.37 74.51 74.49 74.47 74.39 74.19 74.28 74.44 74.89 75.39 75.73 74.62 74.53 74.25 72.86 72.35
52.98 52.61 47.94 42.55 37.71 34.07 34.71 38.56 41.01 42.63 46.73 47.49 46.44 46.46 47.52 50.06 56.48 58.23 59.87 68.59 69.85 70.70 71.47 71.49 72.35 72.91 73.20 72.97 73.10 73.16 73.90 74.21 73.98 74.03 74.22 74.22 74.32 74.26 74.07 74.14 74.14 74.85 75.29 75.33 74.65 74.15 74.38 73.15 71.41
51.94 50.66 44.15 38.36 34.27 34.47 34.83 39.34 43.22 45.99 47.72 45.98 44.52 47.97 50.61 50.87 56.59 59.23 60.07 69.63 69.92 70.17 71.42 71.86 71.97 72.24 72.87 72.65 72.72 72.99 73.18 73.26 73.23 73.44 73.96 74.10 74.08 74.18 74.06 73.80 74.03 75.00 75.46 75.27 74.37 74.50 74.42 72.49 70.66
49.32 46.08 42.34 37.70 34.51 36.99 37.22 42.31 43.16 45.64 46.74 46.92 45.38 45.63 50.79 54.82 57.15 58.79 66.18 69.66 68.86 69.42 70.75 70.66 71.02 71.73 72.48 72.61 72.56 72.61 72.61 71.95 72.37 72.62 73.32 73.93 74.03 74.03 73.66 73.22 74.02 75.03 75.02 75.19 74.75 74.51 73.37 71.51 70.52
45.19 41.94 36.50 33.98 34.06 37.66 42.01 44.12 44.81 44.92 45.12 46.23 45.78 45.52 48.61 54.38 60.28 64.17 68.16 69.63 68.31 68.57 69.49 70.19 70.10 71.03 72.13 72.35 72.44 72.27 71.96 71.63 71.91 72.30 72.67 73.01 73.57 73.74 73.16 72.88 73.66 74.24 74.43 74.20 73.83 73.59 72.18 71.07 70.34
41.83 40.42 34.20 32.60 34.57 39.49 42.57 43.82 44.53 45.39 45.75 46.51 45.62 45.80 46.96 52.60 58.74 63.12 65.11 67.34 69.29 68.69 69.04 69.89 71.19 71.35 71.27 71.39 71.39 71.11 71.05 71.34 71.45 71.76 72.11 72.74 72.69 72.53 72.39 72.43 72.95 73.26 73.14 72.91 72.62 72.01 71.38 70.89 70.32
39.98 37.28 33.59 33.48 35.98 37.56 43.34 46.09 44.33 44.27 45.08 45.48 48.14 45.60 48.26 51.21 52.70 56.65 62.00 65.01 68.07 68.90 68.51 68.61 69.56 70.84 70.52 69.85 69.91 69.53 70.23 70.67 70.74 70.89 71.30 71.58 71.27 71.20 71.55 71.83 72.16 72.55 72.38 72.20 71.76 71.46 70.85 70.82 70.31
40.11 37.97 32.61 33.24 35.25 36.46 41.96 44.20 45.84 45.07 44.00 50.17 49.31 44.09 44.67 50.42 52.54 51.26 54.02 64.50 66.28 67.66 67.33 67.22 67.84 68.99 69.02 68.86 68.99 69.22 69.49 69.60 69.80 70.30 70.19 70.05 70.25 70.67 70.77 70.66 71.05 71.50 71.57 71.32 71.67 70.83 70.29 70.22 69.62
40.65 34.50 31.94 34.94 35.75 38.92 43.61 42.75 44.33 46.88 44.92 46.47 47.35 47.13 49.75 52.66 51.98 49.54 48.48 56.55 65.05 67.76 66.95 66.61 66.97 67.73 67.71 68.05 69.02 69.67 70.14 69.87 69.42 69.78 69.54 68.16 69.74 69.06 69.57 69.71 69.77 70.41 69.62 69.89 70.52 69.93 69.37 68.99 68.81
38.23 32.79 34.81 39.16 39.54 39.32 41.96 42.84 44.02 44.41 45.03 45.25 45.31 49.04 50.71 51.03 49.74 49.27 48.49 48.73 56.66 65.01 66.72 66.40 66.42 66.87 67.21 68.99 68.12 68.32 68.97 69.06 69.74 70.79 70.43 70.59 70.69 70.43 69.51 69.08 68.86 69.24 68.68 69.08 69.37 69.17 68.48 68.30 67.96
35.54 34.75 38.26 40.45 42.28 41.91 41.31 43.10 44.65 42.05 42.54 45.49 45.88 47.56 48.98 47.86 47.19 47.85 49.04 48.40 49.06 61.39 66.32 66.99 66.24 66.63 66.83 67.75 67.12 66.87 68.00 69.60 70.07 70.35 70.42 70.51 70.26 70.03 69.83 69.73 68.79 67.82 68.54 68.32 68.48 68.57 68.52 67.82 67.28
36.26 40.09 40.77 41.70 44.06 42.48 41.91 43.33 42.29 44.28 46.10 48.00 46.95 47.34 46.63 46.31 46.93 46.85 46.95 48.45 48.29 48.45 62.33 66.41 66.58 66.74 67.08 67.62 66.64 66.69 67.75 68.45 68.77 69.40 69.68 69.47 69.04 68.90 68.83 68.97 68.88 68.96 68.81 68.48 68.11 68.97 69.15 67.84 67.41
39.49 41.23 43.42 43.83 43.50 42.80 44.02 42.27 43.12 42.76 45.58 46.13 46.69 47.19 46.55 46.84 47.06 47.62 47.08 46.54 47.50 47.60 61.75 67.19 68.81 68.36 68.07 68.23 68.54 67.18 66.26 66.82 67.50 68.14 69.06 69.44 68.68 68.05 68.18 68.65 68.63 68.45 68.65 68.29 68.15 68.47 68.59 68.54 68.00
41.43 41.53 41.11 41.99 42.85 42.17 40.98 41.21 40.03 42.71 43.92 44.68 45.58 45.87 46.69 46.82 47.50 46.55 47.31 47.46 49.06 56.73 58.57 56.62 58.81 61.28 60.61 59.90 60.63 61.10 62.48 64.29 66.42 66.24 67.05 67.87 68.03 67.64 67.82 68.14 68.36 68.18 68.11 68.24 68.07 67.80 67.86 67.36 67.90
41.93 37.95 39.68 40.46 39.32 40.48 40.52 36.73 37.16 42.13 43.58 43.56 43.76 45.28 45.79 46.48 46.69 46.19 46.80 45.63 52.48 53.48 53.01 53.00 53.85 54.33 54.92 55.24 55.64 56.22 57.84 58.97 59.77 61.12 62.14 63.22 63.71 62.70 65.22 67.42 67.91 68.28 68.34 66.85 68.09 67.26 67.53 67.30 66.96
37.79 36.11 31.71 37.47 39.61 40.48 39.60 32.75 40.25 42.62 43.90 43.18 43.76 44.47 45.69 45.72 46.18 48.41 48.95 49.28 48.66 49.03 48.85 49.31 51.21 50.91 51.25 51.56 52.90 53.93 54.16 54.65 55.29 56.07 58.60 58.36 59.95 60.54 61.53 60.75 63.24 67.44 68.61 67.64 67.28 67.08 66.67 66.69 66.34
33.76 26.99 30.44 34.62 39.72 38.54 37.10 34.23 40.83 44.30 43.81 41.83 43.42 41.96 42.31 43.07 46.48 46.42 46.75 46.30 46.19 46.19 46.61 46.16 46.76 47.29 48.26 49.08 49.90 50.03 50.00 50.91 50.90 51.80 52.61 53.61 55.47 56.27 56.09 58.94 60.84 62.72 64.99 66.67 66.47 66.72 66.13 65.66 66.04
27.29 28.47 26.30 29.74 35.03 36.69 35.65 36.31 39.94 41.09 40.12 41.36 41.99 40.91 41.06 44.53 44.36 45.32 44.55 44.64 44.06 43.87 44.38 44.76 44.67 44.84 45.85 46.48 47.24 46.75 46.43 47.60 47.54 48.56 48.31 50.15 50.52 51.51 51.63 53.40 54.81 56.06 60.20 64.51 65.24 64.37 65.20 64.80 65.10
33.63 30.48 29.17 31.65 37.19 35.49 35.52 36.18 36.95 39.55 39.29 38.66 39.56 39.54 40.51 43.39 43.84 43.00 42.34 42.06 42.20 42.47 42.38 42.65 42.04 42.58 43.17 43.41 43.39 44.23 42.68 44.89 45.19 45.15 46.13 47.26 47.42 48.45 48.33 49.81 50.88 53.24 54.37 55.39 59.59 64.07 61.79 61.36 64.07
34.61 31.42 31.20 34.49 37.62 36.13 33.78 33.45 37.25 38.10 38.47 40.42 40.67 41.25 42.75 42.34 41.33 41.17 40.53 39.77 39.10 38.89 39.24 39.18 39.86 40.77 41.22 41.83 41.98 41.84 41.91 43.81 44.06 43.09 44.19 44.93 45.62 46.89 47.34 47.29 48.35 50.11 51.46 52.26 53.37 58.79 63.00 62.57 63.64
33.36 31.82 31.94 32.30 34.33 34.61 33.24 30.16 32.26 37.64 41.75 42.78 40.91 40.90 41.26 39.54 38.84 39.68 39.98 39.54 39.19 38.29 38.39 38.09 38.23 38.50 40.24 40.49 41.35 41.27 41.09 41.32 41.26 41.13 41.97 43.15 45.31 46.68 47.03 47.36 48.24 48.63 49.63 50.11 52.25 54.42 56.20 61.54 62.05
29.91 36.18 35.38 33.08 30.39 24.38 32.83 23.51 31.11 34.62 36.58 40.78 39.70 39.35 39.87 39.67 39.66 39.43 38.39 37.78 37.48 38.88 39.73 39.41 39.10 38.64 39.07 39.03 39.62 38.98 38.52 38.61 40.67 41.20 41.51 42.27 44.53 44.51 46.20 48.84 49.67 50.00 50.38 50.27 50.71 53.08 53.90 57.25 59.92
33.02 36.66 34.65 33.53 29.25 27.20 28.03 24.83 26.59 33.78 33.10 37.67 38.41 38.19 37.90 38.17 38.36 38.04 38.32 37.95 37.51 37.74 37.96 38.83 39.35 38.43 37.59 37.10 38.25 38.02 37.29 38.94 40.14 40.44 40.34 40.81 41.67 44.02 45.40 47.27 47.59 48.00 49.25 50.47 51.11 51.72 52.06 53.74 56.03
37.79 34.87 32.73 31.18 28.10 23.51 27.85 26.91 23.27 30.27 32.69 35.01 35.80 36.23 36.65 36.73 37.06 37.34 37.82 38.15 37.64 37.45 36.96 37.88 36.99 36.93 37.08 36.75 37.30 36.83 36.87 37.54 38.07 38.58 38.78 39.57 41.20 42.40 44.02 44.32 44.90 45.60 47.05 48.22 50.01 52.37 52.71 53.04 53.95
33.99 31.93 24.26 20.12 21.53 21.63 28.37 25.39 26.95 33.17 35.33 35.81 34.66 35.32 35.86 35.90 35.62 35.75 35.22 35.09 35.96 36.33 36.09 36.31 35.32 34.66 36.29 36.34 36.57 36.49 36.30 36.55 36.89 37.09 37.52 37.94 38.59 39.56 40.48 41.83 42.48 43.11 44.56 45.92 47.55 48.77 50.31 52.20 53.07
30.80 32.00 27.73 19.59 17.91 20.28 28.06 22.02 29.58 35.49 36.06 36.37 36.10 35.57 36.07 34.64 35.11 34.29 34.38 34.42 34.77 35.29 35.06 34.07 34.21 34.22 35.25 35.78 35.81 36.42 36.56 36.35 36.04 36.38 36.47 36.56 36.80 37.41 39.18 39.81 40.93 42.39 43.29 44.62 46.29 47.68 49.78 52.04 53.14
32.21 31.00 33.19 29.19 27.78 23.63 23.98 29.49 33.66 36.12 34.57 35.60 35.85 35.74 35.08 34.63 34.50 33.60 34.37 34.13 34.38 34.49 34.18 33.00 33.42 33.81 34.54 35.40 35.74 35.64 35.69 35.82 34.93 35.08 35.25 35.22 35.68 36.54 37.17 38.07 38.59 40.46 41.74 42.59 44.33 45.98 47.57 49.81 53.08
34.06 35.43 27.69 28.67 21.76 19.15 22.12 23.83 23.96 31.05 32.18 33.16 33.68 33.78 34.49 34.78 33.85 33.44 33.22 33.59 34.03 34.49 33.87 33.24 33.42 33.20 34.05 35.02 35.44 35.18 35.25 35.44 35.14 34.64 33.77 34.02 34.50 35.27 35.59 36.06 37.11 38.18 39.16 39.98 40.87 41.84 43.49 45.52 48.48
31.69 30.58 31.60 30.45 28.20 20.68 19.68 21.26 27.91 32.10 33.44 31.99 33.07 34.62 33.36 32.53 31.71 31.35 31.93 32.75 33.59 33.50 32.87 32.39 32.83 32.72 33.40 34.06 34.66 34.67 34.47 34.89 34.69 34.38 33.86 33.89 34.30 34.31 34.40 35.15 35.75 36.02 36.41 37.79 37.90 38.65 40.48 41.35 44.02
37.00 33.86 32.56 27.10 22.74 25.44 19.29 20.90 35.73 35.50 35.55 35.68 35.13 33.79 33.09 32.25 30.52 30.21 30.61 31.01 31.59 31.04 31.71 31.32 32.25 32.28 32.82 33.56 33.19 33.11 33.61 33.82 32.96 32.19 32.01 32.12 32.13 33.33 33.25 34.23 34.66 34.66 35.04 35.46 35.50 36.26 37.57 39.57 41.89

GFSSGP_sfc_wetblb_123.txt.gz
Wetbulb
58.11 55.49 55.80 54.20 48.68 47.35 43.26 44.18 46.37 47.87 48.37 50.91 50.72 48.83 51.22 53.06 55.62 52.25 64.62 67.33 71.74 72.99 73.89 73.80 72.58 73.34 73.22 73.16 73.14 73.25 73.81 74.87 74.87 74.63 74.19 74.09 74.08 74.06 73.92 74.16 74.54 75.02 75.49 75.54 74.92 74.64 73.76 72.65 72.25
56.68 55.81 54.08 50.49 46.84 43.79 43.05 45.29 46.10 48.17 49.86 50.88 49.85 52.04 52.06 53.14 59.94 62.86 65.84 71.40 72.08 73.15 73.62 73.98 72.51 72.82 72.96 72.84 72.73 73.21 74.04 74.21 74.66 74.66 74.50 74.16 74.12 74.13 74.12 73.78 74.04 74.91 75.36 75.57 74.86 74.74 74.27 72.92 71.52
55.87 53.05 52.17 47.60 44.07 43.55 43.29 46.07 47.45 49.15 50.28 50.24 49.37 52.19 54.08 55.29 60.51 63.56 65.68 72.05 72.10 72.68 73.53 73.45 72.16 72.29 72.88 72.80 72.74 72.82 73.33 73.39 73.63 74.24 74.68 74.58 74.57 74.55 74.21 73.69 73.85 74.80 75.56 75.59 74.96 75.01 74.55 72.13 70.57
54.26 53.17 49.49 46.71 42.89 44.27 45.22 47.85 48.61 49.20 50.69 52.03 49.47 49.55 54.60 58.14 59.32 62.16 70.64 72.19 71.73 72.25 73.37 71.78 71.14 71.90 72.46 72.67 72.80 72.71 72.63 72.46 72.62 72.97 74.07 74.58 74.74 74.58 74.07 73.42 74.10 75.09 75.35 75.44 74.79 74.44 73.66 71.38 70.27
51.59 50.36 46.39 43.63 42.43 44.51 46.99 48.15 48.97 48.52 48.76 50.32 50.32 49.85 51.69 56.78 63.97 69.86 71.32 71.75 71.45 71.80 73.06 73.42 70.20 71.43 72.31 72.70 72.65 72.34 71.91 71.62 72.03 72.40 72.94 73.64 73.91 74.07 73.44 73.10 73.80 74.56 74.66 74.63 74.21 73.29 72.42 71.24 70.40
49.74 48.74 44.82 42.93 42.20 44.82 47.71 48.98 48.86 48.19 48.92 50.32 50.20 50.37 52.27 57.26 61.61 65.28 68.69 71.37 72.89 72.31 72.73 73.31 71.82 71.20 71.35 71.77 71.70 71.23 71.21 71.34 71.44 71.72 72.33 73.06 73.23 72.88 72.75 72.87 73.07 73.38 73.47 73.10 72.93 72.50 71.70 71.02 70.41
48.29 47.07 43.84 41.86 41.82 43.48 46.48 49.64 48.22 48.08 48.75 49.19 51.32 48.83 52.94 54.75 57.79 58.11 60.25 68.84 71.91 72.89 72.27 72.99 73.81 73.15 70.42 69.47 69.67 69.76 70.55 70.67 70.76 71.07 71.36 71.78 71.55 71.76 72.15 72.33 72.65 72.86 72.50 72.15 71.90 71.67 70.94 70.78 70.10
47.47 47.11 41.85 42.33 42.26 43.73 46.84 48.19 48.75 48.89 48.22 52.36 52.49 48.31 49.27 54.30 57.00 58.13 58.20 66.71 70.25 71.95 72.40 72.23 72.63 73.60 73.99 73.89 68.98 69.09 69.43 69.88 70.17 70.66 70.57 69.99 70.37 71.01 71.19 71.20 71.65 71.98 71.58 71.51 71.44 70.97 70.50 70.29 69.60
46.86 44.77 42.85 43.00 41.93 44.66 47.12 47.20 50.08 51.21 49.34 50.70 51.40 52.05 53.83 55.55 55.87 56.38 56.47 57.17 62.76 70.01 72.17 72.43 71.95 72.36 72.97 73.05 72.58 70.50 70.22 69.88 69.48 70.47 69.83 69.62 72.95 72.87 72.75 70.89 70.22 70.85 70.15 70.08 70.66 70.23 69.63 69.09 68.96
46.49 43.41 43.23 44.22 44.71 44.48 46.76 47.27 48.52 48.92 49.70 48.77 50.27 53.63 54.27 54.28 53.75 53.48 53.63 54.03 55.98 57.38 64.36 71.55 71.93 71.94 72.13 71.40 72.45 72.92 72.97 73.10 73.36 73.09 72.93 72.64 72.56 72.38 71.86 70.79 69.05 69.45 68.93 69.32 69.39 69.50 68.78 68.97 72.52
42.75 42.82 43.42 44.76 45.72 47.12 46.52 47.26 48.55 47.98 46.55 49.47 49.41 50.60 52.22 52.12 53.69 53.59 54.07 54.16 54.54 55.76 57.30 65.22 71.61 71.83 71.83 71.86 72.16 71.83 72.03 71.91 72.02 72.29 71.86 71.59 71.86 72.17 71.41 70.88 71.80 72.45 70.08 72.28 71.39 72.03 72.69 72.56 72.61
42.61 44.23 44.44 46.68 47.20 46.40 46.13 47.44 46.90 47.43 48.31 50.72 50.46 50.98 51.29 51.88 52.54 52.87 53.07 53.96 54.50 55.13 55.98 60.22 70.55 71.40 71.67 71.69 71.89 70.97 70.18 70.00 70.32 70.59 71.30 71.60 71.15 70.98 70.67 70.54 70.01 70.16 70.95 71.31 71.86 71.65 72.11 72.36 72.21
44.22 44.94 46.21 46.96 46.46 46.68 46.68 45.50 45.69 46.63 49.63 50.15 50.63 50.70 50.59 51.37 52.19 53.01 53.27 53.90 54.42 53.76 56.61 61.64 68.21 71.48 71.57 71.24 71.33 71.22 70.50 68.81 69.47 69.91 70.33 70.82 70.40 70.45 70.43 70.08 70.41 70.75 70.15 69.52 69.57 70.73 70.36 69.99 70.74
45.18 45.02 45.08 45.67 46.59 45.72 43.99 44.46 45.55 45.75 48.45 47.95 48.31 48.96 49.99 50.66 50.93 52.06 53.70 53.60 55.39 57.86 58.01 59.97 59.12 59.67 69.24 69.70 70.42 68.50 67.76 67.02 67.41 67.12 67.78 69.46 69.36 68.98 69.27 69.70 69.89 69.98 70.02 69.99 70.04 69.13 69.20 68.91 69.50
45.25 42.25 43.77 43.85 44.15 43.61 44.89 41.15 43.00 46.56 47.66 47.28 47.68 48.69 49.60 49.61 51.29 50.79 51.36 51.31 51.92 53.15 53.67 54.64 55.61 55.09 56.48 60.19 61.69 63.52 62.09 62.70 62.56 62.53 62.29 62.82 63.14 63.15 66.15 68.21 67.81 69.33 69.99 69.22 69.98 68.61 69.11 68.65 68.83
41.53 40.73 37.15 41.79 43.57 43.23 44.13 37.13 43.74 47.20 46.82 46.27 47.10 47.99 48.25 48.37 48.42 48.60 48.69 48.59 48.97 49.58 49.56 50.54 50.08 49.80 52.21 54.53 57.50 58.50 59.27 59.62 59.84 59.44 59.27 59.31 59.59 60.34 61.38 62.01 62.84 63.57 65.64 69.68 69.53 68.05 67.07 66.85 67.58
38.22 34.70 35.01 38.44 42.80 42.60 41.84 38.09 44.30 47.35 46.14 45.00 46.19 46.60 46.26 47.03 45.73 45.61 46.25 46.46 46.51 46.64 46.22 45.78 46.51 46.14 48.36 52.22 53.63 54.47 54.83 55.15 56.22 55.65 56.26 56.93 56.03 56.49 58.27 59.25 60.27 59.40 61.87 63.55 66.86 68.01 67.49 66.82 66.91
33.20 34.29 34.96 35.17 40.52 41.47 40.05 39.74 43.21 45.50 44.30 43.62 45.01 45.86 45.59 43.91 42.62 43.47 43.72 43.99 44.09 44.22 43.87 43.35 43.90 44.30 45.66 49.06 51.66 52.61 52.52 52.34 52.01 52.26 52.82 52.84 53.85 53.99 55.27 57.33 57.21 57.59 59.04 60.92 64.31 64.31 66.37 66.64 67.61
36.61 35.22 34.73 37.75 41.30 38.91 38.76 39.48 41.51 43.42 44.36 42.61 44.24 44.70 43.65 42.31 42.99 43.55 43.44 43.59 43.30 43.40 42.89 42.37 41.62 42.46 43.25 45.17 45.78 48.22 48.55 50.10 49.15 49.60 50.23 50.54 51.49 52.38 53.31 53.50 54.35 55.64 56.38 57.74 58.89 59.80 62.40 64.67 65.85
38.01 36.03 36.14 38.45 40.64 39.90 39.01 38.45 40.81 42.93 42.10 40.92 40.87 40.71 40.63 40.76 40.98 40.90 40.51 40.86 41.72 42.09 42.21 41.90 40.80 40.96 41.62 43.49 45.12 45.41 45.91 48.37 48.16 47.67 48.42 48.85 49.86 51.07 51.40 52.11 52.40 52.66 53.44 55.14 56.49 57.60 58.98 63.77 64.24
36.51 35.91 35.62 35.79 38.79 39.39 37.84 35.53 38.10 40.65 42.72 41.05 40.90 41.19 40.40 39.22 38.46 38.64 38.67 38.54 38.63 39.01 39.69 40.04 39.58 39.68 40.07 41.97 44.05 44.62 45.65 45.60 45.92 45.99 46.59 47.01 48.12 48.77 50.00 50.24 50.28 50.62 51.10 50.69 51.45 54.76 57.08 58.10 62.62
34.15 39.28 38.39 36.63 35.06 31.33 37.85 29.12 35.31 37.53 38.63 39.00 38.84 37.68 37.58 37.53 38.00 38.43 38.42 38.50 38.72 38.69 40.15 40.52 39.39 38.67 39.63 40.42 40.69 41.67 39.15 39.01 41.89 43.02 44.65 45.47 46.67 47.26 47.14 47.99 48.54 49.32 50.17 50.63 51.31 52.64 52.84 55.22 56.98
36.55 38.99 37.50 36.29 34.77 33.26 33.66 31.47 32.66 35.74 34.76 35.09 36.45 36.96 37.30 37.92 38.42 37.79 39.02 39.18 39.46 39.17 39.85 38.21 40.36 38.78 38.90 39.37 40.84 39.33 38.02 38.95 40.34 41.85 42.19 42.84 44.34 44.71 44.59 45.26 45.67 46.11 47.11 48.44 49.37 51.13 52.32 53.64 53.26
40.18 37.98 36.46 35.26 33.97 27.58 32.59 32.35 31.01 32.10 34.22 34.74 36.05 36.89 37.62 37.77 37.85 37.85 38.13 38.41 38.01 38.19 37.42 39.25 38.07 37.89 38.01 38.37 38.88 37.78 37.21 37.43 37.52 38.39 38.46 39.10 40.88 41.70 42.06 42.64 43.38 43.68 44.66 45.34 46.61 48.04 49.32 51.79 53.52
39.17 36.10 28.26 26.45 24.53 25.86 31.70 30.25 34.83 34.47 36.45 38.20 36.90 36.46 36.94 37.23 36.90 36.48 35.83 36.22 36.84 36.91 36.90 36.98 36.06 35.52 37.00 38.27 37.57 37.34 37.25 37.19 36.68 35.83 36.36 37.06 37.52 38.33 39.40 40.11 40.58 41.49 42.72 43.71 45.34 46.36 47.58 49.47 50.67
36.02 35.80 28.75 21.58 22.62 26.67 31.21 28.11 33.39 37.21 37.38 38.37 38.17 38.26 37.55 36.24 35.95 35.12 35.44 35.35 35.51 35.55 35.94 36.32 36.03 36.23 36.67 37.29 36.63 37.19 37.43 36.83 36.18 36.08 35.90 36.04 36.13 36.92 38.44 38.51 39.26 39.71 40.97 42.16 43.12 44.58 46.41 48.32 49.83
35.18 33.08 38.35 31.58 29.59 27.03 30.86 32.30 34.34 36.36 35.09 36.71 36.91 37.44 35.70 34.69 35.00 35.14 34.96 34.84 35.01 35.10 34.81 34.71 34.76 34.94 35.38 36.01 36.32 36.04 36.16 36.36 35.67 35.75 35.82 35.91 36.38 36.58 36.95 37.27 37.77 38.47 39.15 39.74 41.11 41.67 43.55 44.59 45.34
38.19 39.38 31.52 32.79 23.89 21.23 27.55 28.85 31.45 32.18 32.60 35.73 35.93 36.13 35.23 35.34 33.55 33.69 34.33 34.31 35.03 34.76 34.80 34.56 34.66 34.28 34.67 35.28 35.17 35.41 35.50 35.41 35.11 34.74 33.61 34.20 34.64 35.07 35.38 36.09 36.69 37.34 37.69 37.94 38.30 39.11 40.59 41.66 43.54
34.90 33.91 33.83 33.70 30.97 25.37 23.57 29.02 35.29 34.75 35.64 34.48 35.27 35.86 35.31 34.36 33.31 32.88 33.81 34.36 34.86 34.53 33.73 33.75 33.88 33.99 33.87 34.61 34.81 33.91 33.49 34.11 34.23 33.10 33.08 33.13 34.01 33.94 33.94 34.83 35.64 35.91 36.14 36.76 36.62 37.61 39.66 39.74 41.74
39.03 36.57 35.72 29.46 27.24 28.68 27.23 29.29 38.32 38.85 38.74 36.92 35.72 35.76 35.43 34.43 32.65 32.12 32.83 33.26 33.01 32.39 33.02 32.84 33.00 32.98 33.26 33.90 33.53 33.14 33.37 33.51 32.46 32.22 32.29 32.25 31.82 32.75 32.44 33.65 34.44 34.99 35.35 35.88 35.31 36.39 37.03 37.23 37.98

GFSSGP_sfc_wetblb_126.txt.gz
Wetbulb
62.78 61.87 62.28 58.87 52.53 51.75 48.04 48.48 52.16 51.23 51.73 54.67 54.97 52.68 55.05 56.59 57.10 55.00 70.23 72.10 74.15 74.27 75.40 74.84 72.63 73.05 73.41 73.61 73.66 74.22 75.07 75.25 74.68 74.42 74.31 74.58 74.37 74.12 74.16 74.63 74.38 74.60 75.44 75.49 74.31 73.82 73.51 73.03 72.93
61.17 60.17 59.67 57.41 50.34 47.52 47.68 51.02 50.08 51.70 52.87 54.93 53.40 53.64 54.37 56.49 62.85 66.25 68.48 74.26 74.42 75.27 75.19 75.60 72.79 72.80 72.97 72.92 73.33 73.91 75.03 75.26 75.04 74.59 74.36 74.35 74.21 73.99 74.08 74.32 74.18 74.72 75.19 75.44 74.66 74.17 73.75 73.18 71.83
60.08 57.90 55.77 53.85 51.84 47.95 48.38 50.66 51.47 52.76 53.67 53.91 52.56 55.69 57.09 57.48 63.24 65.85 71.70 74.46 74.37 74.53 75.08 75.63 72.52 72.51 72.81 72.63 72.78 73.17 73.80 74.24 74.61 74.49 74.53 74.43 74.39 74.27 74.04 73.87 74.16 74.94 75.56 75.79 75.26 74.89 74.54 72.22 71.00
58.89 57.89 56.06 50.64 48.33 49.55 50.28 51.91 52.31 52.71 53.70 55.02 53.58 52.76 58.23 62.38 63.98 68.46 73.23 74.19 74.16 74.28 75.03 72.78 71.73 72.19 72.74 72.59 72.51 72.73 72.91 72.93 73.44 74.01 74.55 74.63 74.46 74.39 74.03 73.44 74.00 75.20 75.56 75.67 75.42 75.09 73.96 71.62 70.56
59.00 56.49 51.42 49.89 48.50 50.10 51.96 52.15 52.44 51.89 52.15 53.25 54.08 52.57 55.29 61.37 68.27 70.81 72.78 73.57 73.52 74.41 75.73 75.54 71.00 71.86 72.49 72.87 72.71 72.34 72.18 72.11 72.42 73.34 73.91 74.34 74.45 74.31 73.94 73.32 73.67 74.52 75.04 75.13 74.61 73.92 73.12 71.58 70.62
55.72 55.58 49.87 48.54 48.65 50.18 52.16 53.05 52.40 52.20 52.66 53.52 53.20 53.50 54.37 59.95 60.54 64.01 68.38 71.01 73.95 74.68 75.47 75.76 72.35 71.77 71.97 72.17 71.93 71.49 71.42 71.67 71.71 72.22 72.91 73.88 73.82 73.56 73.33 73.08 73.31 73.85 73.88 73.62 73.49 72.64 72.43 71.63 70.88
54.36 53.32 50.22 49.67 48.80 49.40 50.77 53.37 51.77 52.00 52.11 52.25 54.46 51.76 54.85 57.66 59.90 61.05 62.15 67.75 71.58 74.47 75.53 76.36 76.22 74.48 70.90 70.06 70.06 70.17 70.70 70.95 71.05 71.24 71.72 72.37 72.27 72.24 72.68 72.68 72.80 73.32 73.06 72.92 72.58 72.19 71.68 71.42 70.78
55.48 54.61 49.57 50.58 49.16 48.87 50.85 51.60 52.80 52.76 52.73 55.87 55.74 51.88 53.03 57.74 59.81 60.66 60.88 61.30 63.39 70.11 74.02 75.63 75.89 76.16 76.37 76.12 69.96 69.83 70.14 70.36 70.41 70.93 70.87 70.56 71.05 71.77 71.82 71.75 72.09 72.56 72.45 72.07 72.10 71.57 71.15 70.60 69.94
53.71 51.06 48.52 48.48 48.21 49.01 50.84 50.58 53.81 55.34 53.12 54.55 54.72 54.99 57.01 58.40 59.43 60.11 60.12 60.45 61.93 62.58 64.82 71.65 75.37 75.71 76.27 76.16 74.86 71.13 70.50 70.63 70.30 70.97 70.36 70.50 73.56 73.46 73.37 71.68 70.77 71.66 70.84 70.72 71.10 70.88 70.12 69.57 69.46
52.51 50.26 48.65 49.96 50.38 49.55 50.78 50.70 52.14 51.36 51.74 52.16 53.24 56.16 56.98 57.90 58.56 58.31 58.12 58.46 59.72 60.62 62.27 63.43 69.53 74.18 75.45 74.85 75.46 75.47 75.31 74.77 74.57 74.43 74.77 74.40 74.54 74.40 72.88 71.49 69.76 70.13 69.74 69.92 70.17 69.87 69.44 69.60 73.15
50.45 48.25 49.68 49.17 50.04 51.17 50.67 50.74 52.22 50.66 48.88 51.26 51.09 52.76 54.92 55.60 56.49 56.75 56.82 57.46 57.98 59.40 60.47 62.12 64.22 71.12 74.59 74.58 74.85 74.91 74.89 74.88 74.91 75.23 74.40 73.58 72.85 73.11 73.05 73.29 73.17 73.27 70.26 72.99 71.84 72.73 73.44 73.46 73.24
47.27 48.72 48.77 49.71 50.71 50.29 49.64 51.49 50.14 50.30 50.38 52.52 53.04 53.51 54.02 54.09 54.85 55.39 55.57 57.02 57.94 58.87 60.50 64.76 66.58 68.10 72.60 74.34 74.47 74.72 74.43 74.22 74.01 73.74 73.52 73.29 73.13 73.05 73.16 71.69 71.77 72.68 72.87 72.24 72.39 72.36 73.16 73.02 73.27
47.18 48.31 49.60 50.68 50.65 50.79 50.99 49.07 48.65 48.89 51.52 52.57 52.75 52.97 53.00 53.61 54.51 56.27 57.37 58.15 58.77 59.25 60.84 63.09 64.87 66.92 69.65 72.97 74.10 74.29 73.82 73.44 73.57 73.27 73.55 72.13 71.84 72.56 72.28 71.28 71.54 71.13 72.02 71.54 71.74 72.45 71.80 72.30 72.42
48.87 48.43 48.99 49.69 49.27 49.31 47.17 47.11 47.66 49.13 51.42 51.66 52.08 52.15 52.96 53.38 54.11 55.44 55.81 56.20 56.59 57.40 58.19 59.53 59.53 61.00 60.41 62.08 67.80 71.86 72.84 72.24 71.81 71.27 72.30 71.88 71.19 71.18 71.18 71.67 70.64 71.01 71.62 72.25 71.56 70.15 70.92 71.22 70.57
48.25 45.24 47.25 47.24 47.37 46.71 48.28 44.89 46.00 50.06 50.98 50.22 50.77 51.52 52.16 52.55 53.01 52.49 53.68 54.16 54.91 55.81 55.81 54.67 54.69 55.33 57.92 56.98 59.81 62.33 63.55 65.72 65.37 65.51 64.29 65.71 65.78 65.44 69.48 70.77 70.61 70.81 71.75 70.99 70.94 70.51 71.48 70.07 69.70
45.17 44.93 41.72 45.91 46.49 46.75 46.47 41.14 46.95 50.14 49.90 49.36 50.30 50.72 51.02 50.24 50.19 50.75 51.50 52.21 52.80 52.26 51.57 51.93 50.97 51.72 53.19 55.15 56.15 58.03 58.62 60.18 60.28 60.38 61.45 61.76 61.36 61.59 63.01 64.62 65.95 65.89 67.09 66.66 70.41 69.84 70.04 69.04 68.42
44.23 40.02 40.49 42.10 45.97 45.45 44.33 41.88 46.45 49.67 49.33 48.65 50.12 50.98 50.10 48.92 48.87 49.25 49.85 50.21 50.56 49.96 48.75 48.53 49.35 48.52 49.54 50.27 53.62 55.71 56.41 56.78 57.03 57.63 57.74 57.54 58.99 59.29 60.13 62.84 64.17 64.72 64.13 64.56 64.26 66.89 68.93 68.57 67.84
39.73 39.62 41.12 40.52 44.51 44.94 43.88 43.76 46.33 48.80 48.43 48.55 49.65 49.69 48.88 47.58 46.59 47.78 48.59 49.29 49.63 50.13 48.78 46.37 46.34 48.07 48.93 48.94 51.44 54.10 54.75 55.06 55.60 56.38 55.98 56.41 57.30 57.95 59.03 60.40 61.09 61.71 62.57 64.39 64.60 64.15 65.26 66.19 66.73
41.71 40.21 39.93 42.78 45.17 42.92 42.75 43.76 45.97 47.41 48.30 47.65 48.27 47.71 46.51 45.70 46.82 47.18 46.89 47.76 48.75 48.91 48.21 46.78 45.12 44.11 44.27 47.53 47.09 48.69 49.53 54.73 54.59 54.37 54.42 54.56 55.15 56.08 57.02 57.90 58.74 59.52 59.56 61.07 62.39 63.08 64.08 66.02 67.58
42.05 40.29 40.63 42.78 44.08 43.09 43.05 42.99 45.08 46.68 44.99 45.28 45.24 44.67 43.81 44.31 45.21 45.40 46.39 46.98 46.70 46.86 46.97 45.87 44.32 43.89 43.53 43.89 44.51 48.14 49.22 52.43 53.26 52.78 53.27 53.17 53.12 53.62 53.48 52.51 52.85 52.94 54.20 56.55 58.51 60.01 60.47 62.08 65.80
41.44 40.09 40.15 39.26 42.74 44.53 42.17 41.51 42.83 45.02 44.39 43.92 43.52 44.09 43.64 42.77 43.01 44.24 44.24 45.53 46.86 46.58 47.07 46.80 45.93 43.90 43.75 44.19 44.62 46.09 48.71 49.49 48.86 50.02 50.48 50.56 51.12 50.33 48.72 49.13 49.72 50.47 51.19 51.92 52.26 53.28 54.97 57.72 61.16
38.27 42.61 41.05 39.81 38.76 36.59 42.01 34.04 41.58 43.77 42.87 43.20 43.24 42.38 43.33 43.26 42.94 42.51 44.51 43.35 45.13 44.88 45.02 46.33 44.65 46.20 45.30 46.02 44.65 45.67 46.79 46.61 46.74 48.02 48.02 48.11 48.95 47.12 46.63 46.76 47.64 48.44 48.87 49.78 50.23 52.13 52.80 53.31 53.84
39.17 42.77 40.97 40.36 39.42 38.65 38.90 35.64 40.84 43.49 41.42 42.42 43.20 41.46 42.03 42.48 41.88 41.71 41.33 41.18 41.36 41.52 41.26 42.42 44.70 44.15 43.93 44.09 42.69 43.12 43.35 44.61 46.64 46.40 45.66 45.75 45.73 46.13 45.38 45.08 45.28 45.96 46.44 47.19 47.61 47.75 48.63 50.62 52.45
44.38 41.57 40.99 40.73 39.00 31.84 37.57 36.69 39.42 39.86 41.97 42.80 42.90 42.72 42.24 40.75 40.76 40.29 40.36 40.75 41.11 43.07 43.62 42.99 42.50 42.30 42.98 40.81 41.88 42.22 41.26 40.73 41.31 41.75 41.43 42.46 42.41 42.93 43.44 43.21 43.91 44.59 44.58 44.85 45.63 46.70 47.19 48.43 50.17
43.12 39.44 34.12 31.45 31.63 30.89 37.23 35.64 38.98 42.67 42.87 43.62 42.78 42.73 41.48 41.26 39.29 38.36 39.23 40.89 41.90 41.46 42.13 42.59 42.87 42.06 42.01 40.77 39.57 39.74 38.90 40.05 39.61 38.94 38.19 38.67 38.33 39.05 40.60 41.15 41.77 42.03 42.54 43.58 44.28 44.83 46.41 47.82 48.32
40.38 39.86 33.75 25.06 28.53 32.57 36.01 32.15 39.40 43.20 43.86 43.74 44.04 43.51 41.91 39.16 38.31 39.05 38.96 39.54 38.91 39.74 39.22 39.86 40.49 40.35 41.02 40.22 39.76 40.20 39.02 38.78 38.49 37.95 37.32 37.36 37.78 37.93 39.27 39.58 40.15 40.86 41.63 42.13 42.58 43.19 45.13 47.38 47.48
39.05 36.15 41.99 34.99 35.65 31.19 34.97 39.26 39.30 41.07 39.43 41.50 41.83 41.27 38.98 38.44 38.81 38.07 39.07 37.99 38.01 39.30 37.46 37.21 37.95 38.39 38.89 39.03 38.29 38.28 37.42 37.68 36.71 37.62 37.65 36.54 37.02 37.27 37.92 38.18 38.45 39.05 39.64 40.28 40.64 41.01 42.43 43.34 45.07
41.64 43.97 33.77 35.94 26.20 25.69 33.23 35.16 36.94 36.22 36.42 38.81 40.45 39.27 38.26 38.55 38.08 38.42 40.20 38.33 37.86 37.74 37.08 37.24 36.86 36.47 37.01 37.47 37.37 37.04 36.49 36.47 36.86 37.21 36.09 36.03 36.21 36.24 36.00 36.39 37.25 37.05 38.08 38.31 38.94 39.22 40.68 40.63 42.03
38.84 38.13 38.80 38.29 35.97 28.91 28.08 33.81 43.01 42.36 41.97 39.73 41.23 40.65 38.46 38.69 39.41 39.25 39.95 39.69 38.09 37.75 36.91 36.15 36.06 36.00 36.05 36.44 36.74 36.61 36.18 36.37 36.16 35.72 35.02 35.55 36.15 35.58 35.04 35.40 35.93 35.77 36.29 36.95 37.31 37.14 37.29 37.24 38.06
43.48 40.13 39.96 32.91 31.33 34.75 33.06 32.98 43.97 43.61 45.02 44.13 42.87 40.68 38.93 40.11 38.76 38.55 38.66 38.04 36.67 35.51 35.64 35.74 35.47 35.52 35.75 35.92 35.90 35.50 35.27 35.64 35.63 35.17 34.84 35.13 34.94 35.77 34.81 35.13 35.12 35.65 35.54 35.74 35.24 35.01 35.28 34.79 34.40

GFSSGP_sfc_wetblb_129.txt.gz
Wetbulb
63.67 64.02 62.86 60.24 53.23 52.98 50.63 50.39 53.71 52.41 53.13 55.77 55.71 55.24 54.85 60.04 59.15 57.61 72.65 74.51 74.96 75.15 76.02 74.41 72.56 73.31 73.83 74.03 74.36 74.46 74.76 74.89 74.56 74.79 74.75 74.88 74.66 74.41 74.57 74.46 74.62 75.07 76.05 75.75 74.46 74.43 74.22 73.77 73.50
60.97 61.37 61.09 57.63 50.91 49.20 50.11 52.99 51.66 53.36 54.55 55.74 54.78 55.37 55.89 57.84 64.82 66.82 70.52 74.19 75.62 75.75 76.12 75.07 72.55 73.01 73.46 73.58 74.00 74.55 75.15 75.09 74.58 74.55 74.68 74.77 74.50 74.36 74.49 74.32 74.19 74.72 75.77 75.27 74.25 74.13 73.87 73.13 72.35
60.97 60.95 56.68 54.75 52.31 49.20 50.53 52.74 53.42 54.34 55.44 54.77 54.08 57.93 58.95 58.66 64.69 66.76 73.00 73.54 74.49 74.69 75.22 75.66 72.65 72.53 72.96 73.12 73.56 74.07 74.75 74.66 74.34 74.49 74.79 74.83 74.51 74.32 74.58 74.29 74.15 74.87 75.59 75.15 74.34 74.35 74.32 72.13 71.40
59.69 59.62 57.38 51.17 50.21 52.30 52.70 53.71 54.07 54.07 55.27 55.99 54.85 54.87 60.56 66.01 66.60 70.28 72.57 72.43 73.06 74.45 76.11 72.86 72.26 72.40 72.47 72.82 73.14 73.56 73.86 73.75 73.76 74.02 74.48 74.66 74.71 74.47 74.23 73.86 74.22 75.37 75.71 75.97 75.47 75.22 74.07 71.62 70.90
60.17 58.01 52.40 51.28 50.85 52.47 53.76 54.41 54.45 53.37 54.06 54.79 55.59 54.55 57.20 61.07 65.99 68.61 71.24 71.75 72.39 74.18 76.00 75.84 72.03 72.32 72.58 72.69 72.72 72.61 72.64 72.78 73.27 73.70 74.10 74.16 74.35 74.30 73.98 73.31 73.71 74.59 75.17 75.31 75.10 74.60 73.68 71.92 70.68
56.34 57.35 50.95 49.47 51.44 52.36 53.86 54.89 54.43 53.67 54.38 54.78 54.66 54.89 56.23 61.11 61.51 63.62 65.61 69.30 72.17 73.78 75.50 76.53 72.59 72.39 72.31 72.45 72.26 71.84 71.89 72.17 72.47 72.96 73.66 74.12 74.09 73.66 73.69 73.31 73.31 73.83 74.03 74.13 73.94 73.41 72.90 72.39 71.20
55.18 54.94 51.39 51.39 50.80 51.51 53.11 55.66 53.95 53.84 53.95 54.22 55.76 54.00 56.94 59.30 61.07 62.30 63.32 64.48 68.18 72.34 74.79 76.69 77.23 74.54 71.55 71.09 71.16 71.00 71.33 71.50 71.64 71.86 72.26 73.18 72.92 72.95 73.19 73.09 73.00 73.27 73.31 73.31 73.14 72.70 72.09 72.06 71.17
55.71 54.94 51.61 50.59 50.57 51.20 53.66 54.28 54.93 54.55 54.25 57.33 57.37 54.00 54.94 58.71 61.16 62.32 62.30 62.37 63.83 65.47 69.10 72.93 75.38 76.54 76.92 76.65 70.40 70.95 71.04 70.92 71.04 71.22 71.18 71.25 71.92 72.22 72.26 72.36 72.36 72.67 72.68 71.79 72.05 72.14 71.60 71.48 70.83
56.91 51.41 49.53 49.84 48.93 51.82 53.61 52.98 56.06 57.09 55.50 55.95 56.70 56.44 58.04 59.50 60.89 61.55 61.45 61.07 62.66 63.40 65.07 67.31 70.26 72.76 75.42 76.49 75.45 71.26 71.02 71.19 70.74 71.10 70.56 70.53 72.88 73.26 73.51 71.92 71.15 71.66 71.14 70.52 71.07 70.54 70.60 70.44 70.03
53.18 50.79 50.99 53.12 52.69 51.34 52.67 52.85 53.39 52.99 53.28 53.55 55.10 57.54 57.79 58.22 58.70 58.87 59.06 59.34 60.46 61.25 62.78 63.81 68.55 69.95 72.62 73.33 74.92 76.17 75.80 74.51 74.42 74.11 74.32 74.18 74.05 73.78 73.03 71.38 69.82 70.77 70.48 70.22 70.04 69.84 69.39 69.67 71.80
53.17 50.15 52.30 51.84 52.29 52.94 51.82 51.65 53.27 51.50 49.82 52.20 51.89 53.97 55.39 55.87 56.90 57.58 57.72 58.82 59.88 61.65 63.25 65.33 67.19 71.13 70.56 72.09 72.82 73.63 73.97 74.59 74.89 75.34 74.91 75.19 74.98 74.62 74.69 73.84 73.30 72.94 70.71 72.97 71.46 71.76 72.06 71.64 71.71
49.23 51.21 50.85 50.59 52.21 51.49 50.42 52.52 51.20 51.27 51.38 53.18 53.51 54.11 54.24 54.39 55.62 56.31 57.31 58.35 59.16 60.51 61.71 63.36 63.99 65.40 69.06 70.63 72.35 72.42 72.48 72.89 72.94 73.77 74.67 74.49 74.16 73.56 73.91 73.40 73.94 73.28 73.35 72.35 72.93 72.60 72.69 72.52 72.87
48.85 49.14 50.85 51.74 51.87 51.62 51.91 50.25 50.37 50.43 52.27 53.44 53.34 53.39 53.56 55.06 55.96 57.34 57.43 58.19 58.45 58.41 59.63 59.59 60.86 61.17 64.02 65.75 66.03 71.83 73.37 74.00 74.32 74.32 74.12 73.59 73.83 73.57 73.86 73.23 73.30 73.22 73.75 73.36 72.44 72.35 71.53 71.14 71.18
51.93 51.16 51.17 51.77 50.96 50.71 49.00 49.31 48.97 50.20 52.47 52.19 52.95 52.68 54.64 54.96 55.15 55.95 56.16 56.60 56.49 56.49 56.39 56.99 57.76 58.83 60.89 60.18 60.37 62.03 63.64 65.76 68.81 67.26 65.74 66.15 67.40 71.06 72.17 72.11 72.14 72.31 72.21 72.42 72.66 72.46 72.01 71.93 71.93
51.02 47.47 49.02 49.70 50.04 48.73 49.81 46.74 47.02 51.71 52.77 51.08 51.76 52.54 54.07 53.65 53.87 53.38 54.24 54.41 55.05 55.15 55.36 54.66 54.97 55.37 57.23 59.94 57.97 59.06 59.12 61.38 61.21 62.61 62.16 62.48 62.67 62.27 63.40 66.40 69.46 70.17 70.91 71.42 71.97 71.72 71.87 71.31 71.35
47.09 48.15 44.56 48.77 48.86 49.18 47.62 43.65 49.73 51.90 51.33 50.33 51.33 52.17 53.49 52.17 52.20 53.27 53.94 54.28 54.46 53.37 52.43 53.39 53.80 54.55 55.52 55.59 58.39 56.78 56.43 57.64 58.23 59.23 58.82 59.32 60.03 60.76 61.21 62.56 64.19 65.87 65.69 66.47 68.72 69.59 67.23 68.79 70.32
47.08 42.96 44.61 45.55 48.90 47.25 46.67 44.42 48.79 50.78 49.90 49.69 51.20 52.76 52.18 51.25 51.33 52.10 53.07 53.74 53.89 54.28 53.27 52.40 52.09 51.69 54.47 55.65 55.33 56.07 56.98 55.41 56.46 57.14 56.79 58.31 58.86 59.45 60.08 61.84 63.96 64.42 63.95 65.10 65.55 66.18 66.50 67.69 67.14
42.95 43.37 44.31 43.65 46.98 46.72 45.66 45.63 48.26 49.67 50.04 49.97 51.92 52.20 51.19 49.87 49.18 50.55 51.56 52.66 53.48 53.27 52.67 51.42 50.97 50.66 51.55 53.99 55.19 54.79 53.20 56.03 55.92 55.07 55.77 56.65 57.60 58.27 59.03 60.63 61.26 61.59 61.69 62.45 63.99 65.14 66.04 64.85 65.11
45.36 43.79 42.67 45.24 47.08 45.12 45.33 45.80 47.33 49.45 49.90 50.60 51.33 51.27 50.02 49.11 50.22 50.76 50.81 51.50 51.75 51.60 51.00 50.41 50.04 50.30 49.65 49.42 50.21 52.77 51.58 52.10 52.95 54.14 55.01 55.92 55.92 56.23 56.05 55.33 56.40 56.69 56.81 57.78 59.51 60.55 61.30 61.86 65.21
45.12 42.79 42.79 45.63 46.72 45.11 45.09 44.60 47.55 49.20 49.77 50.00 49.72 49.23 48.99 49.63 49.74 49.59 50.20 50.95 50.78 50.52 50.57 50.58 50.26 49.97 50.30 50.40 50.54 50.77 51.97 53.20 51.46 51.33 53.37 53.99 54.08 52.98 51.55 50.70 51.16 51.81 52.23 53.18 54.58 54.78 55.38 57.79 61.24
43.88 42.41 42.97 42.70 45.09 46.47 44.55 42.91 45.80 48.64 49.35 48.90 48.81 49.10 48.63 47.99 47.84 48.23 48.69 49.48 49.58 48.78 49.21 49.53 49.68 49.94 49.71 50.23 51.02 51.67 52.12 51.95 51.06 51.28 49.23 50.69 51.94 51.17 49.36 49.13 49.32 49.28 50.56 49.86 51.03 51.76 51.86 52.14 56.10
41.04 45.62 43.91 42.18 40.82 37.83 45.13 37.03 43.47 47.28 46.28 47.23 48.19 48.16 48.05 48.03 47.40 47.88 47.02 46.47 46.37 47.31 47.86 47.78 48.09 48.00 48.07 48.48 48.60 48.13 48.05 47.92 49.61 49.76 50.37 50.11 50.56 50.09 48.80 47.69 47.46 47.40 48.21 48.02 48.42 49.68 49.58 49.85 49.60
42.57 44.66 43.00 42.56 41.10 41.05 41.24 38.82 42.58 46.64 44.94 46.64 48.37 48.29 47.39 46.94 45.87 45.17 44.21 44.76 46.27 47.47 47.54 47.70 47.68 47.50 46.54 46.06 45.66 45.43 45.11 45.79 47.04 47.40 47.99 48.56 48.74 48.42 47.56 46.45 46.47 45.68 46.37 46.19 46.49 46.98 47.28 48.33 48.35
45.76 42.96 42.52 43.14 41.47 34.34 39.73 39.41 40.01 43.86 45.26 47.07 48.43 48.26 47.44 45.03 44.54 43.91 44.47 45.31 45.68 46.32 46.23 47.18 46.83 46.38 46.13 45.70 44.71 43.14 42.23 41.66 41.80 41.06 42.03 43.41 44.88 45.76 45.00 44.51 44.59 44.31 44.30 44.47 44.82 45.45 45.87 46.85 48.17
44.21 41.15 34.74 33.63 34.31 33.56 41.25 38.38 40.98 45.82 46.59 47.03 47.60 47.54 47.44 45.77 43.66 43.75 44.22 43.77 43.70 44.58 44.71 44.45 44.94 44.02 43.98 43.25 43.03 42.41 42.02 42.49 41.69 39.89 39.29 38.33 39.95 39.55 40.97 42.29 41.89 41.40 42.22 42.69 43.44 43.38 44.04 45.58 46.51
41.83 41.48 35.27 28.32 31.24 35.01 40.77 35.09 41.18 47.40 48.21 48.26 48.01 48.56 46.90 43.69 43.52 43.29 43.57 43.80 43.28 43.73 42.59 42.78 43.23 42.50 42.42 41.75 40.98 40.71 40.46 39.94 40.35 39.25 38.74 38.18 38.09 38.51 39.46 38.96 40.35 39.67 40.79 41.52 41.66 41.98 43.31 44.30 44.45
41.60 38.19 43.24 36.84 37.63 33.56 37.04 40.99 44.88 46.29 45.48 45.99 46.03 46.57 44.50 42.63 43.60 42.49 42.88 43.00 42.67 42.40 40.20 40.19 40.72 41.19 40.16 39.71 40.05 39.39 38.88 38.81 38.56 38.66 38.69 37.82 38.01 37.82 38.24 38.71 38.26 39.05 39.55 40.29 40.39 40.35 40.66 40.44 41.34
43.31 44.90 35.76 37.38 27.67 27.01 34.33 36.87 39.47 40.85 42.20 44.16 44.72 44.65 42.61 42.21 41.90 43.00 43.83 42.25 42.16 40.69 39.96 39.48 39.33 38.75 39.10 39.20 38.82 38.72 38.32 38.64 38.17 38.30 36.88 37.40 37.51 37.39 37.46 36.86 37.59 38.57 38.66 38.51 38.63 38.30 38.38 37.95 37.95
40.28 39.06 40.25 39.87 37.07 29.97 29.53 35.71 45.04 44.28 45.13 43.89 45.34 45.95 42.29 41.34 42.58 42.96 43.34 42.54 41.82 41.11 39.82 38.33 38.12 38.03 37.85 38.26 38.35 38.38 38.18 38.27 37.93 37.01 36.62 36.92 36.72 36.30 35.97 36.09 37.03 37.35 37.04 37.74 37.07 36.70 36.34 35.69 35.61
43.17 41.00 40.30 34.92 32.21 36.53 35.63 36.13 46.69 46.78 47.09 47.25 46.27 46.57 44.00 42.95 43.13 44.29 43.27 42.15 40.71 39.62 38.76 37.79 37.40 37.30 37.93 38.24 38.06 38.11 38.49 38.34 37.66 36.65 36.17 36.88 36.15 35.62 35.21 35.97 36.43 36.46 35.79 35.97 36.70 35.82 35.47 34.42 33.83

GFSSGP_sfc_wetblb_132.txt.gz
Wetbulb
61.45 61.76 62.55 59.37 51.17 51.76 48.86 50.34 53.68 52.15 52.45 55.27 55.52 54.96 58.38 61.46 60.58 57.58 71.78 74.35 74.86 74.26 73.75 73.01 72.83 73.57 74.03 74.43 74.31 74.05 74.23 74.43 74.65 74.80 74.64 74.59 74.47 74.36 74.56 74.48 74.50 75.43 75.64 75.49 74.61 74.41 74.28 74.60 73.76
58.86 60.14 59.88 56.31 49.76 46.67 48.86 52.49 51.25 53.04 54.51 55.38 55.17 56.15 58.77 57.88 64.95 68.26 69.27 73.52 74.81 75.43 74.58 74.05 72.60 73.16 73.63 73.82 74.13 74.24 74.56 74.71 74.43 74.68 74.64 74.56 74.45 74.22 74.38 74.15 74.11 74.96 75.91 75.77 74.41 74.28 74.26 73.69 72.50
60.10 60.32 54.83 52.89 50.18 47.27 48.94 52.68 52.94 54.21 55.12 54.47 53.79 58.91 59.91 59.26 66.21 68.53 70.84 72.94 73.40 74.10 74.93 73.05 72.26 72.56 72.91 73.36 73.78 73.95 74.32 74.18 74.14 74.33 74.72 74.71 74.52 74.41 74.48 73.87 73.81 74.69 75.83 75.84 74.46 74.71 74.04 72.08 71.30
59.60 58.24 56.41 49.35 48.02 51.83 52.16 53.57 54.29 53.94 54.96 55.68 55.86 56.26 60.24 66.84 67.29 69.95 71.16 72.07 72.84 75.04 75.20 71.80 72.07 72.17 72.57 72.77 73.19 73.65 73.88 73.47 73.35 73.62 74.32 74.61 74.60 74.28 74.14 73.70 73.88 74.82 75.43 75.67 75.07 74.77 73.40 71.02 70.75
60.06 56.58 50.87 49.63 50.30 52.50 53.91 54.50 54.56 53.54 54.25 54.82 55.05 55.05 55.32 59.99 64.15 66.65 69.12 71.09 72.48 74.27 75.45 73.28 72.22 72.39 72.56 72.70 72.94 72.73 72.82 73.08 73.29 73.59 73.78 74.15 74.41 74.12 73.78 73.47 73.88 74.40 75.00 75.37 74.93 74.52 73.45 71.39 70.59
54.78 55.86 49.23 47.91 50.23 52.57 53.97 55.00 54.33 53.65 54.42 54.57 54.60 55.47 55.54 60.34 60.56 63.28 65.80 69.89 73.12 73.86 75.95 74.73 72.72 72.58 72.37 72.39 72.12 71.81 71.88 72.38 72.90 73.20 73.52 73.88 73.93 73.57 73.50 73.12 73.20 73.72 74.02 74.03 73.91 73.49 73.12 72.24 70.95
52.93 53.02 50.21 50.42 51.01 51.75 53.32 55.90 53.51 53.74 53.84 53.81 56.03 53.50 56.77 57.99 61.12 62.72 64.69 65.53 66.48 70.34 73.65 76.52 75.30 73.82 72.00 71.41 71.29 71.15 71.43 71.55 71.61 72.24 72.62 73.27 73.10 72.72 73.09 72.97 72.78 72.93 73.03 73.20 73.13 72.81 72.38 72.32 71.52
54.33 53.06 49.89 51.15 48.55 50.21 54.14 54.68 55.31 54.58 53.47 57.57 57.35 53.25 53.13 58.00 62.05 65.00 64.30 63.31 64.56 68.28 67.99 68.05 71.15 74.54 75.58 73.61 70.40 70.88 71.02 70.97 71.06 71.15 71.14 71.26 72.12 72.48 72.26 72.35 72.32 72.46 72.22 72.43 71.77 71.81 71.92 71.54 71.09
55.61 48.80 47.91 49.91 49.70 51.36 53.98 52.55 55.63 57.21 55.25 56.13 56.93 56.53 57.17 59.14 60.53 61.32 62.39 61.98 63.01 63.74 65.59 67.24 67.77 69.01 68.99 73.56 74.06 71.00 71.45 71.26 70.85 70.85 70.36 69.77 71.43 72.13 72.63 72.05 71.44 71.60 70.91 70.96 71.47 71.26 70.56 70.36 70.44
51.19 48.28 49.56 52.38 52.60 51.79 52.61 52.71 53.53 52.55 53.96 53.91 55.42 57.33 57.55 57.97 58.54 58.57 58.25 58.79 60.19 61.38 63.05 64.21 64.71 64.91 68.34 70.84 73.12 74.61 74.64 72.80 72.46 72.33 72.63 71.57 71.99 72.13 71.66 70.98 69.93 70.16 70.04 70.40 70.43 70.32 69.82 69.76 71.60
51.95 47.91 51.41 51.89 52.01 52.88 51.65 51.79 52.73 50.82 49.32 52.14 52.46 54.10 55.47 55.69 57.42 57.32 57.72 58.28 58.55 60.51 61.18 60.41 60.71 61.82 63.86 65.87 69.73 70.10 72.24 74.00 73.83 73.62 73.37 73.65 73.62 73.07 72.48 72.28 71.24 70.79 70.10 71.38 70.22 70.40 70.56 70.71 70.50
49.54 51.69 51.33 51.30 52.21 50.76 49.60 51.65 50.67 51.42 51.36 53.39 53.73 54.36 53.90 54.73 56.18 56.59 56.29 57.17 57.27 58.09 57.50 57.63 58.97 59.26 61.21 63.38 62.83 64.32 66.23 69.00 71.52 71.53 71.42 71.82 71.63 71.88 71.38 71.64 71.25 70.63 70.49 70.35 70.50 70.04 69.99 69.68 69.42
49.71 50.03 50.70 51.52 51.10 51.33 51.46 49.82 49.96 50.38 52.40 53.34 53.43 53.08 54.22 55.15 55.32 56.27 56.34 56.49 56.32 55.20 55.76 55.62 56.71 56.93 59.47 60.78 60.18 60.11 61.68 63.11 64.50 65.02 65.32 66.16 68.61 69.51 70.68 70.32 70.33 69.44 69.61 69.46 69.13 69.37 69.78 69.79 69.48
50.66 51.58 50.72 51.72 51.32 51.48 49.22 49.13 49.78 50.40 52.56 52.00 52.44 53.12 54.59 54.16 53.84 54.14 54.09 54.05 54.48 54.37 54.34 55.02 55.05 55.58 56.59 58.02 58.68 58.40 59.31 59.51 60.98 60.69 60.19 61.28 62.37 62.56 63.39 65.49 68.96 68.94 68.47 68.58 68.71 68.09 68.38 68.71 69.26
50.69 47.78 49.40 49.47 49.75 48.69 49.91 46.08 46.51 50.70 51.74 51.43 51.69 53.28 53.41 53.09 53.23 52.51 53.27 53.53 54.13 53.73 53.48 52.93 53.36 53.76 55.27 55.11 57.66 56.13 56.67 57.84 58.11 57.99 58.10 59.26 59.49 60.00 61.15 62.65 64.10 65.81 66.34 65.47 65.20 66.54 67.52 67.18 67.85
47.47 47.14 42.88 48.30 49.34 49.03 47.36 42.31 48.82 51.58 51.23 50.09 51.15 52.45 52.87 51.82 51.94 52.51 53.10 53.37 53.93 53.61 52.87 52.67 52.39 52.08 54.08 55.37 55.86 56.29 54.92 55.49 56.43 55.85 56.37 57.38 58.05 58.85 58.88 60.39 63.27 64.68 63.75 64.83 64.45 64.82 64.94 65.12 65.63
45.80 40.98 43.18 45.42 49.34 48.37 46.91 44.57 49.13 51.52 50.91 49.63 50.12 51.52 52.34 51.18 50.96 51.55 52.45 52.70 52.67 52.34 51.76 51.34 51.72 50.65 51.54 53.53 56.08 55.29 54.89 55.21 55.25 54.75 54.72 55.62 56.21 56.67 56.90 58.52 59.60 59.95 60.82 62.60 63.31 63.18 63.87 63.72 64.11
41.30 42.11 44.17 43.86 47.01 46.75 45.01 44.46 47.90 49.74 49.45 49.54 50.36 52.43 51.63 50.32 49.38 50.54 51.25 51.47 51.66 51.75 51.73 51.14 51.06 51.06 51.45 51.21 52.24 54.46 54.40 53.86 53.72 54.15 54.09 54.56 54.80 53.81 53.58 53.66 53.89 54.24 54.59 55.40 55.95 56.40 57.85 59.38 60.15
44.92 44.16 43.19 45.54 47.68 45.84 44.63 44.66 46.86 49.53 49.13 49.57 50.54 51.52 50.78 50.15 50.58 50.87 51.16 51.27 51.33 51.20 50.62 50.41 50.15 50.12 50.11 50.01 49.26 49.56 50.08 52.35 51.06 51.07 51.24 52.36 52.29 51.44 51.19 50.55 50.90 51.42 51.33 51.92 52.76 52.50 52.52 53.46 55.82
44.86 43.35 42.93 45.42 46.60 45.90 44.82 43.99 46.98 48.33 48.59 49.89 50.74 50.59 50.07 49.79 50.05 49.66 50.11 50.30 49.70 49.14 49.43 49.49 49.02 49.25 48.99 48.63 49.91 50.85 50.83 51.98 51.71 51.27 50.56 50.72 50.54 50.59 48.84 48.29 48.29 48.14 49.08 49.59 49.64 50.48 49.63 50.81 52.52
44.43 43.16 42.96 42.38 45.33 46.29 44.34 42.26 44.44 47.34 49.29 50.71 50.58 51.14 50.08 49.34 48.67 48.52 48.55 47.41 47.48 47.17 47.35 47.28 47.63 48.01 47.38 47.55 48.59 48.55 50.45 50.81 49.47 49.60 49.30 49.76 49.61 49.36 48.00 47.27 46.84 46.45 47.05 46.93 47.36 47.76 47.37 46.15 48.90
41.15 45.84 44.42 43.08 41.80 36.94 44.20 35.47 43.40 46.04 46.84 47.91 47.92 48.28 48.39 48.35 47.86 47.94 46.52 45.90 46.53 46.95 47.83 47.51 47.84 47.06 46.52 46.71 45.20 45.06 44.58 43.54 45.37 46.37 45.98 47.95 48.62 47.44 46.40 45.46 45.83 45.11 45.32 44.94 45.08 46.46 45.93 46.94 45.06
42.66 46.36 44.07 43.50 41.13 39.93 39.78 37.20 40.52 45.24 44.37 45.81 47.18 48.04 48.75 48.44 47.41 45.54 44.93 45.72 46.35 46.71 46.86 47.59 47.76 46.23 45.75 45.43 44.41 43.37 42.45 42.69 43.44 42.94 43.07 43.57 44.05 44.64 43.86 43.37 43.71 43.33 43.39 43.25 44.11 44.12 44.65 45.71 45.96
46.43 43.75 43.16 42.47 40.09 32.92 38.16 37.67 38.27 42.08 45.45 46.45 48.22 48.69 48.18 46.31 45.53 45.14 45.55 46.43 45.40 45.86 45.77 45.65 45.44 44.51 44.35 43.72 43.12 41.90 40.98 40.98 40.97 39.94 39.51 39.79 40.98 40.96 41.18 40.64 41.32 42.01 41.68 41.63 41.57 43.06 42.90 43.99 45.20
44.28 40.12 32.86 31.16 31.48 30.72 40.95 38.82 40.55 45.58 48.37 48.88 47.89 47.84 47.58 45.93 44.65 44.66 44.88 44.54 44.13 43.91 43.23 43.83 43.88 42.40 42.40 41.77 40.82 40.15 39.77 39.99 39.17 38.42 37.94 37.53 37.96 37.73 38.70 39.35 39.50 39.62 40.33 40.79 40.71 41.17 42.30 42.78 42.50
41.58 40.36 34.26 27.05 29.43 33.78 41.22 35.83 39.99 47.13 48.10 50.00 49.56 48.75 47.22 45.36 44.84 44.76 44.47 44.21 43.33 42.71 41.25 41.62 42.06 41.07 40.38 40.19 39.69 39.45 38.91 38.57 38.72 38.09 37.76 37.20 36.98 37.43 38.11 38.83 39.17 39.29 39.71 39.91 40.52 40.75 40.56 39.92 40.56
41.05 36.99 42.98 36.62 37.58 32.58 35.78 40.32 44.93 46.80 46.24 46.83 47.33 47.40 44.98 43.83 43.69 43.60 43.78 43.48 42.88 41.42 39.75 39.88 39.90 39.93 39.34 39.17 38.96 38.53 38.66 38.04 37.67 37.93 37.66 37.52 37.70 37.26 37.25 37.87 38.20 38.61 39.15 39.03 39.09 38.65 37.71 37.84 37.72
42.69 44.85 36.08 37.19 27.26 25.67 33.05 35.42 36.28 41.39 42.33 44.77 45.17 45.11 44.41 43.74 43.74 43.42 44.02 42.97 42.29 41.04 39.79 39.88 39.33 38.48 38.73 38.78 38.48 38.45 37.93 38.03 38.06 37.54 36.61 36.84 36.65 36.59 36.62 36.64 37.52 37.00 37.02 37.99 37.72 37.05 37.09 36.23 36.15
39.40 38.25 40.03 39.73 36.09 28.50 27.39 34.30 46.19 43.96 44.81 44.00 45.56 46.41 44.67 43.30 42.83 43.47 43.87 43.10 42.01 40.98 39.52 38.86 38.65 37.94 37.83 38.09 38.18 38.21 38.09 38.08 37.67 36.70 36.56 36.56 36.75 36.83 36.60 36.83 36.34 35.40 35.19 36.05 37.19 36.72 36.27 35.28 35.23
42.59 39.88 39.98 33.15 32.02 35.19 33.70 34.09 47.18 46.78 46.60 46.42 46.09 47.04 46.01 44.03 43.65 44.20 44.09 42.51 41.04 39.90 39.25 37.73 38.09 37.93 38.27 38.39 38.51 38.24 38.43 38.31 37.45 36.89 36.66 37.13 36.52 36.60 36.70 36.54 35.10 34.02 32.91 33.88 34.88 35.74 36.07 35.23 34.63

GFSSGP_sfc_wetblb_135.txt.gz
Wetbulb
58.57 55.10 55.22 54.49 44.11 42.51 39.44 43.70 46.60 47.97 48.66 49.27 53.41 59.05 58.75 62.25 60.73 55.88 69.41 71.99 72.14 71.43 72.13 72.78 72.70 73.41 73.94 73.93 73.35 73.20 73.74 74.14 74.28 74.23 74.18 74.27 74.11 73.97 73.86 73.77 74.20 74.87 75.44 74.74 74.29 74.29 74.62 75.16 73.46
56.19 56.36 53.67 49.01 41.30 37.11 40.48 46.09 46.29 48.36 51.10 51.70 55.90 58.71 60.10 60.11 65.72 66.49 68.13 73.47 72.87 71.89 71.84 72.11 72.60 73.01 73.64 73.59 73.33 73.22 73.90 74.02 74.08 74.36 74.06 74.06 73.89 73.86 73.81 73.58 73.44 74.75 75.43 74.95 74.32 74.09 74.15 73.51 72.02
58.31 56.87 47.83 44.36 40.67 37.93 40.08 46.50 48.68 50.62 52.71 51.51 54.81 59.06 60.24 61.35 65.99 66.13 69.40 72.91 73.09 71.93 72.58 72.04 71.98 72.28 72.96 73.23 73.32 73.39 73.43 73.23 73.39 73.84 74.28 74.10 74.07 73.95 74.01 73.37 73.38 74.45 75.74 75.32 74.21 74.49 73.88 71.79 70.63
54.54 51.12 49.01 41.29 40.33 43.80 46.42 47.25 49.91 50.45 51.99 56.00 55.58 52.96 58.15 63.39 64.12 66.89 69.91 73.19 73.42 72.33 71.69 70.68 71.20 71.89 72.33 72.58 73.11 73.34 73.27 72.67 72.79 73.15 73.93 74.25 74.23 73.92 73.65 73.08 73.29 74.31 74.94 75.51 75.00 74.44 72.50 70.60 70.06
52.12 48.87 41.95 40.79 43.15 46.02 48.47 50.40 51.64 51.15 52.01 53.97 54.51 51.87 52.33 56.95 61.93 66.25 69.15 71.50 72.29 72.11 71.76 71.78 70.94 71.61 71.90 72.25 72.27 72.47 72.70 72.66 72.77 72.91 73.45 73.74 74.09 73.76 73.13 72.97 73.03 73.63 74.34 74.84 74.49 73.69 72.56 70.46 69.94
47.54 47.81 39.60 38.58 43.97 48.36 49.25 50.67 51.52 52.52 52.67 52.80 53.00 52.58 52.00 57.32 58.26 61.59 66.57 66.76 70.62 72.46 71.89 72.16 72.18 71.84 71.48 71.57 71.26 71.07 71.31 71.86 72.43 72.64 72.91 73.51 73.45 73.13 72.89 72.53 72.71 72.96 73.19 73.49 73.41 72.94 72.72 71.51 70.22
45.07 42.57 40.63 42.92 45.61 46.52 50.79 52.13 51.18 51.43 51.91 51.27 55.02 50.96 52.59 54.98 56.95 60.53 60.20 60.76 61.42 62.61 65.47 68.87 71.19 72.06 71.29 70.28 70.47 70.30 70.47 70.72 71.29 71.94 72.10 72.53 72.21 72.23 72.53 72.45 72.20 72.40 72.68 72.72 72.72 72.42 72.06 72.15 71.23
46.86 44.94 42.38 43.39 44.63 44.24 50.01 51.91 52.74 52.27 49.84 57.69 55.66 50.15 48.15 54.30 57.87 58.11 58.95 60.03 61.56 62.54 62.09 61.67 62.40 64.55 66.54 70.82 69.68 69.92 70.09 70.09 70.33 70.54 70.71 70.78 71.46 72.04 71.99 71.79 71.78 71.70 71.48 71.74 72.08 71.77 71.57 71.37 70.94
47.81 40.58 38.30 42.96 44.56 46.28 51.60 49.76 52.11 53.69 53.06 54.03 54.18 53.36 55.00 57.04 57.04 56.03 56.36 57.06 58.82 59.50 57.72 58.27 59.04 59.85 62.31 66.40 70.23 70.51 70.91 70.50 70.09 70.27 70.06 69.16 70.25 71.24 71.90 71.46 71.28 71.12 70.44 70.28 70.89 70.90 70.41 70.20 70.04
44.42 39.18 42.16 47.29 47.10 47.33 48.70 50.31 50.33 49.85 52.38 52.38 52.26 54.92 55.87 56.43 55.60 54.57 54.13 54.01 54.90 54.60 55.43 56.11 57.14 57.96 59.95 64.01 63.74 65.34 68.57 70.81 70.38 70.31 69.70 69.34 69.21 69.36 70.88 71.02 69.91 70.32 69.50 69.75 69.84 70.02 69.62 69.15 71.12
44.53 41.27 46.15 47.85 49.39 47.68 46.27 48.08 49.66 47.51 47.08 50.24 50.14 51.52 53.75 54.28 54.04 53.59 53.66 53.67 52.99 53.47 53.76 54.15 54.93 56.08 57.58 58.93 60.68 61.64 64.18 65.93 67.57 68.34 70.13 70.03 70.52 69.95 70.56 70.24 69.68 69.55 69.35 69.93 69.12 69.86 69.98 70.42 70.27
43.43 47.59 47.99 47.94 48.64 47.25 45.89 46.84 46.58 47.97 47.92 51.07 50.75 51.55 53.28 53.20 52.63 52.69 51.70 51.88 51.40 52.16 51.98 52.75 53.14 53.70 54.96 57.79 58.50 59.13 60.97 62.71 63.10 62.68 63.43 66.60 68.04 68.47 68.86 69.35 68.54 68.22 69.35 68.63 69.12 69.53 69.75 69.41 69.95
45.49 46.94 48.39 47.93 48.75 48.04 48.94 45.69 45.83 44.98 48.86 50.39 51.54 53.40 52.11 51.99 51.65 51.55 51.33 51.13 50.51 49.98 50.82 51.08 52.00 51.94 54.02 54.59 56.06 57.11 57.67 60.08 60.31 59.52 60.64 60.95 61.68 62.40 62.92 65.18 67.35 67.25 67.09 67.16 67.16 67.73 68.33 68.71 68.85
46.38 47.20 47.50 46.83 47.18 47.87 46.60 45.81 44.90 47.16 48.05 49.12 51.83 50.88 50.93 50.61 50.01 49.17 49.49 48.88 49.47 49.98 49.29 49.62 49.49 49.74 51.92 52.26 53.81 53.85 55.89 57.76 57.98 57.43 58.49 59.08 58.75 59.13 59.76 61.87 63.91 65.15 65.59 64.28 64.58 64.98 65.45 65.66 66.36
48.51 42.92 45.38 46.56 46.10 45.44 46.23 41.85 43.58 46.86 48.01 48.12 50.31 50.01 49.26 49.79 48.71 47.74 48.44 48.31 49.31 49.42 48.87 48.63 49.37 48.88 48.98 51.72 52.67 52.74 52.66 54.51 54.53 55.61 56.68 57.38 56.86 57.45 58.53 60.12 61.62 63.46 62.94 62.70 62.95 62.90 63.77 64.26 65.64
43.94 42.82 37.04 43.90 45.80 45.48 44.29 38.30 44.07 46.80 47.37 46.71 48.24 49.26 48.33 48.49 48.36 48.19 48.33 47.85 47.53 48.00 47.77 48.40 49.26 47.54 47.73 47.76 51.73 51.19 52.67 51.78 52.16 52.66 54.42 54.46 54.44 54.07 55.49 55.50 54.66 55.65 56.05 58.39 58.18 58.96 59.84 61.34 62.36
40.37 33.57 37.26 40.69 45.68 44.27 41.91 40.42 44.12 47.84 48.76 46.66 47.94 46.86 47.05 46.66 46.74 46.96 47.51 46.74 46.92 46.55 47.04 46.74 47.07 47.02 47.23 47.63 48.45 50.36 50.67 49.92 49.98 51.42 51.75 52.32 51.68 52.12 52.14 52.11 52.64 53.25 53.41 53.05 53.27 53.22 53.84 54.61 56.45
35.47 36.85 35.23 36.89 39.93 42.86 40.49 41.02 44.90 46.95 47.41 47.17 46.62 47.09 46.15 45.34 45.34 47.51 47.16 47.16 46.78 45.91 46.01 46.51 46.75 46.55 46.52 46.76 46.91 47.63 48.82 48.67 48.29 48.11 49.55 50.58 50.15 50.26 49.11 50.13 50.35 50.36 50.39 50.77 50.55 50.12 51.10 51.36 52.66
41.57 39.79 37.76 40.67 44.01 41.72 41.16 39.92 42.82 45.70 44.68 43.85 46.09 46.13 44.80 45.03 46.51 46.93 46.95 46.08 45.56 45.42 45.12 44.98 44.81 44.43 45.13 44.73 45.25 45.29 44.74 47.11 46.58 47.25 48.18 48.33 48.79 48.13 47.26 47.96 47.28 48.03 47.67 48.64 48.43 48.95 47.96 49.19 49.31
41.74 40.15 38.95 42.10 44.39 41.65 39.76 39.13 42.21 44.38 44.07 45.67 45.60 45.56 44.89 44.96 45.46 46.61 45.40 43.94 43.52 43.18 43.72 44.05 43.61 43.38 43.63 43.72 44.29 44.19 44.80 46.41 46.76 47.10 47.10 47.50 47.28 46.02 45.36 44.57 45.90 46.04 46.10 46.81 46.71 46.66 45.89 47.36 48.15
41.38 40.03 40.16 40.10 42.38 39.47 39.21 36.29 39.58 44.15 44.92 46.98 47.46 46.83 46.58 45.10 44.30 44.97 43.88 42.60 42.31 42.09 42.39 43.45 42.86 42.40 42.96 42.54 42.66 43.11 43.67 43.80 43.06 42.57 42.97 44.36 45.11 43.82 42.60 43.14 43.02 44.05 44.79 44.25 44.45 45.22 44.70 43.67 46.39
37.50 43.83 43.38 41.78 38.16 32.91 38.59 29.54 37.64 40.90 43.05 45.01 45.41 44.51 44.16 44.52 44.33 43.67 42.10 41.81 41.49 41.44 42.50 42.58 42.56 41.74 42.53 41.85 40.81 39.54 39.27 37.97 39.65 39.52 41.02 41.12 42.41 41.19 40.77 40.76 41.84 42.65 43.18 42.58 42.70 43.85 43.93 44.23 43.01
40.53 45.56 42.32 40.88 36.45 34.87 35.96 31.52 34.67 41.25 40.38 42.20 42.95 43.92 43.84 43.68 41.97 41.20 41.26 41.67 41.74 41.59 40.99 41.22 41.63 41.07 40.68 39.80 38.88 37.94 37.06 38.03 39.39 38.71 38.30 38.62 40.24 40.39 39.52 39.35 39.76 40.55 41.02 41.42 41.41 41.60 42.09 43.32 43.78
45.56 42.32 40.56 38.88 35.60 25.77 34.66 33.20 32.61 36.54 41.07 42.82 44.42 44.76 43.85 41.97 41.71 42.32 42.92 42.76 41.06 40.29 39.48 39.51 39.42 39.11 39.19 38.37 37.79 36.69 36.05 36.00 36.11 36.89 37.53 38.02 38.59 39.10 39.08 39.52 39.60 39.92 40.14 40.05 40.59 41.13 41.81 42.23 42.54
41.85 36.79 26.06 24.66 23.95 25.05 37.08 34.46 36.29 40.58 44.90 45.49 44.30 44.07 42.63 41.68 40.90 41.28 41.14 39.97 39.42 38.39 38.39 39.20 37.88 36.91 37.45 37.54 37.23 37.56 37.81 38.06 36.23 36.81 36.99 36.48 36.48 37.15 37.29 38.28 38.65 38.90 39.69 39.67 40.32 40.62 39.72 39.93 39.65
39.42 38.31 28.97 23.61 23.26 27.47 37.54 30.06 36.43 44.41 46.61 47.39 46.99 43.99 42.86 40.84 41.61 41.19 40.93 39.97 38.44 37.78 36.63 36.47 37.40 36.65 37.28 38.79 37.36 38.40 37.86 37.71 37.50 36.81 36.89 36.49 36.13 36.37 37.34 37.50 38.32 38.09 38.88 38.88 39.32 38.44 38.39 38.02 38.16
38.62 34.84 40.08 33.71 33.44 24.94 30.48 35.94 41.85 44.10 43.74 44.73 43.58 42.48 40.66 40.76 41.21 40.74 40.73 38.94 37.14 36.10 35.73 35.32 35.62 36.22 38.35 38.50 38.07 37.72 37.80 37.35 36.40 36.75 37.08 36.35 36.38 36.70 36.72 37.23 36.69 36.74 37.05 38.14 37.91 37.10 36.22 36.52 36.67
40.60 42.25 33.25 32.43 25.21 23.44 29.32 31.13 30.20 37.51 39.28 42.75 41.44 40.15 39.93 40.62 40.48 40.45 39.98 38.28 37.11 36.41 35.79 35.39 35.85 36.97 38.03 38.02 37.93 37.52 37.22 37.42 37.06 36.75 36.09 36.01 36.23 36.75 36.95 35.76 34.31 33.82 34.80 35.36 37.68 36.48 36.51 36.05 35.67
37.66 36.49 37.69 36.64 32.58 24.72 22.79 25.28 40.71 39.63 41.74 41.70 42.10 41.66 40.00 39.98 39.82 40.29 39.77 38.20 37.27 36.20 35.18 34.95 36.11 37.44 37.27 37.51 37.69 37.43 37.09 37.27 36.37 35.89 35.75 35.86 34.07 34.73 35.64 33.08 31.88 31.53 32.65 33.51 35.81 35.64 35.16 34.12 34.80
40.56 38.33 37.88 30.23 28.43 28.53 26.35 26.71 44.38 43.49 44.13 44.07 43.12 42.88 40.89 41.07 40.66 40.67 39.12 37.83 36.98 35.67 34.99 34.44 36.33 37.09 36.40 37.44 37.68 37.77 35.14 34.48 33.25 33.20 32.85 32.87 32.41 33.88 32.36 31.16 28.79 29.56 31.00 31.80 33.62 33.36 33.30 31.94 31.54

GFSSGP_sfc_wetblb_138.txt.gz
Wetbulb
59.44 53.88 52.56 52.37 43.88 40.92 38.05 41.58 44.37 44.67 48.09 58.27 62.18 61.61 60.02 60.84 59.28 55.66 69.56 71.18 71.51 71.24 72.06 72.71 72.58 73.41 73.36 73.18 72.87 73.02 73.52 73.79 74.06 73.87 73.84 73.73 73.59 73.83 73.80 73.82 74.11 74.66 75.05 74.04 73.89 74.01 74.29 74.61 72.98
57.71 56.20 51.95 46.58 39.70 36.26 38.53 44.00 43.44 47.02 52.73 59.09 61.29 62.27 60.83 59.24 65.10 67.04 68.39 71.67 70.97 71.09 71.61 72.09 72.35 72.85 73.29 72.79 72.60 72.87 73.73 73.95 73.86 73.73 73.80 73.77 73.51 73.56 73.48 73.37 73.46 74.32 75.04 74.11 73.94 73.96 74.29 73.81 71.70
56.52 55.36 47.41 42.78 37.26 37.02 38.66 44.39 46.30 49.33 51.85 54.47 55.27 58.66 60.73 60.48 65.41 66.41 71.09 72.43 71.38 71.31 71.39 71.86 71.73 72.11 72.86 72.87 72.62 72.67 73.03 72.97 73.38 73.46 73.63 73.63 73.73 73.71 73.50 72.99 73.07 74.48 74.91 74.26 73.78 74.01 73.79 71.79 70.51
53.27 49.85 47.05 40.48 36.43 42.39 44.26 46.30 47.94 50.86 54.11 55.89 54.55 52.14 56.94 62.12 64.45 69.32 73.19 72.50 71.17 70.55 70.85 70.12 70.62 71.29 72.29 72.76 72.80 72.63 72.21 71.79 72.15 72.83 73.58 73.90 73.76 73.66 73.37 72.64 73.04 73.82 74.75 75.15 74.51 74.45 72.82 70.67 69.64
49.81 46.00 40.32 37.56 39.36 44.56 46.28 48.35 49.65 50.56 51.43 52.63 53.88 50.43 51.77 57.23 68.00 70.83 72.16 72.05 70.11 70.40 70.88 70.74 69.88 70.72 71.62 72.00 72.41 72.37 72.21 71.82 71.96 72.37 72.82 73.37 73.56 73.27 72.74 72.49 72.80 73.44 73.95 74.53 74.32 73.32 72.16 70.28 69.57
46.01 44.89 37.94 36.26 40.54 46.08 47.48 48.20 50.43 51.95 52.21 52.28 51.57 50.81 50.43 56.43 65.33 65.22 64.79 64.02 65.31 63.93 64.45 64.73 67.76 68.14 70.62 70.56 70.80 70.62 71.01 71.61 71.93 72.12 72.37 73.01 72.98 72.68 72.53 72.19 72.18 72.42 72.49 72.80 73.13 72.46 71.97 71.17 69.80
43.13 40.78 37.08 38.27 42.21 44.71 49.17 50.45 49.91 50.47 50.90 49.44 54.10 49.42 51.03 54.35 58.23 60.51 61.10 60.17 59.26 59.11 59.56 59.31 60.35 62.49 65.58 68.24 68.46 69.09 69.68 70.43 71.27 71.55 71.69 72.14 71.80 71.65 72.00 72.03 71.93 72.14 71.87 71.83 72.01 71.88 71.50 71.43 70.68
44.34 42.51 38.46 38.34 41.81 43.08 48.15 50.28 50.63 50.71 49.00 55.58 54.16 48.64 47.66 52.49 57.30 57.73 58.58 57.39 56.57 56.05 56.38 56.87 57.90 59.36 62.29 64.17 66.02 69.05 69.54 69.27 69.45 70.32 70.41 70.47 70.87 71.27 71.33 71.13 71.30 71.43 71.06 71.27 71.50 71.19 71.01 70.94 70.31
44.99 38.77 35.58 39.43 41.65 44.59 49.60 48.95 50.60 52.07 51.50 52.11 52.89 52.63 53.60 56.18 56.56 55.13 54.44 54.09 54.29 54.88 53.85 54.47 55.27 57.31 59.98 61.23 63.63 65.57 67.19 68.41 69.39 69.72 69.20 68.62 70.11 70.81 71.55 71.01 70.53 70.73 69.77 69.47 70.21 70.22 69.68 68.51 69.03
41.74 37.23 39.98 44.95 44.54 44.49 46.50 48.87 48.37 48.82 49.96 50.03 50.71 53.64 55.12 55.37 54.15 52.71 51.81 51.30 51.60 51.64 52.52 52.72 53.35 54.44 57.66 60.12 60.19 62.19 64.90 66.00 65.29 65.49 69.07 68.83 68.58 68.58 70.35 70.44 69.43 69.77 69.34 69.03 69.12 69.07 68.98 68.53 69.75
40.76 39.71 43.39 46.25 47.33 44.84 44.47 46.34 48.13 46.25 46.39 50.10 49.05 50.82 52.65 52.77 52.08 51.24 50.72 50.53 50.43 51.03 51.81 51.82 51.84 53.13 54.47 56.38 57.90 59.34 62.07 63.28 62.37 61.56 63.18 66.73 69.55 69.05 69.77 69.71 70.20 69.32 69.48 69.71 69.30 69.30 69.48 69.79 69.48
42.10 45.86 45.98 46.81 47.20 46.01 44.93 45.21 45.43 45.26 47.34 50.95 51.54 52.30 51.42 50.76 50.02 49.76 48.92 49.08 49.26 49.21 49.29 50.17 49.84 50.37 52.41 55.26 55.30 56.49 58.96 59.84 59.11 60.59 60.37 61.09 62.07 62.07 63.90 66.16 67.56 66.87 67.29 67.29 67.76 67.88 68.69 68.49 69.05
44.08 45.58 46.96 46.86 47.58 46.28 47.82 44.78 44.55 43.18 47.43 51.62 52.30 51.47 49.90 49.51 49.43 49.55 48.99 48.89 48.59 47.67 48.11 48.02 48.56 48.48 50.82 52.70 52.41 53.68 55.60 57.24 57.75 58.41 58.86 59.28 58.74 58.08 60.46 62.17 63.19 63.88 64.28 63.66 63.97 64.93 65.45 66.08 67.05
45.65 45.51 44.59 45.31 45.19 46.43 45.52 44.10 44.03 45.72 47.20 49.72 49.77 48.54 48.70 48.61 48.54 47.97 48.00 47.71 47.63 47.47 46.95 47.31 47.52 47.28 48.39 50.90 51.81 51.13 52.98 53.74 54.10 55.33 56.89 56.86 56.48 55.88 57.13 59.23 60.90 59.56 60.58 61.46 62.09 61.88 63.05 63.55 64.91
47.15 42.32 44.13 43.94 44.44 44.41 45.22 40.04 42.66 45.89 47.49 47.83 47.80 47.60 47.28 47.83 47.93 46.56 46.83 46.47 46.95 46.82 46.99 47.04 47.80 46.89 46.66 47.67 50.23 51.08 51.26 51.97 51.53 52.51 53.26 53.17 53.46 53.69 54.22 53.98 53.44 54.40 56.72 55.28 56.04 56.04 56.79 58.32 60.47
42.22 41.99 37.57 43.31 44.46 44.99 43.85 38.06 43.52 45.33 46.85 45.37 45.93 46.64 46.44 46.80 46.25 45.88 46.06 45.67 45.40 46.48 46.18 46.57 47.99 46.45 46.14 46.24 48.82 49.54 48.78 49.01 50.08 50.39 50.75 50.17 50.37 50.73 50.64 51.22 49.90 51.72 53.20 53.07 52.82 52.64 52.07 53.07 55.02
38.57 34.60 37.13 39.90 44.02 42.98 41.07 39.33 43.73 44.88 46.60 45.38 45.09 44.64 45.05 44.71 45.17 45.60 45.88 45.42 44.77 44.75 45.32 44.75 44.92 44.86 44.87 45.74 46.46 48.52 47.88 47.19 47.26 48.05 49.12 48.76 48.99 48.35 48.36 48.15 47.87 49.49 50.15 50.92 50.72 49.89 50.07 49.87 51.35
35.30 34.86 34.26 35.35 38.88 41.02 38.65 39.18 42.89 44.53 46.13 45.71 43.62 43.78 44.16 44.39 44.46 45.62 45.25 45.17 44.00 43.54 43.76 44.44 44.12 43.59 43.77 44.35 45.29 45.82 46.91 46.25 46.73 46.90 47.33 47.38 47.08 46.32 46.15 46.44 46.30 47.28 48.24 47.58 47.33 47.01 47.65 48.30 48.01
38.44 36.72 35.39 36.89 42.12 39.87 39.99 40.72 40.87 44.16 43.15 43.86 43.08 43.11 43.44 43.42 44.36 45.34 44.96 43.92 43.04 42.73 42.90 42.65 42.26 42.00 42.18 42.02 41.96 43.22 43.30 44.69 44.72 45.28 45.66 45.88 43.87 44.15 43.25 43.85 44.13 44.75 44.85 45.04 45.36 45.58 44.94 46.14 46.93
39.24 37.26 36.81 39.73 43.43 40.18 37.02 37.82 40.94 42.98 43.75 44.36 43.64 42.75 42.66 43.34 43.65 43.85 42.53 41.95 41.64 41.86 42.20 41.98 41.40 41.27 41.00 40.71 40.73 41.47 42.51 42.47 41.78 42.46 42.54 42.87 41.96 41.40 41.66 41.38 41.63 42.42 42.93 43.07 43.63 43.65 43.45 44.83 46.26
38.83 37.24 37.70 37.80 40.93 38.17 36.73 34.55 38.21 42.20 42.98 44.66 45.26 44.17 43.99 43.09 42.18 42.17 42.09 40.65 40.66 40.90 41.05 40.92 40.33 40.40 40.51 40.45 40.26 40.07 40.67 40.84 39.63 39.75 39.21 40.82 40.72 39.89 39.30 39.55 40.19 41.76 42.76 41.91 42.18 42.75 42.59 41.94 44.65
35.34 41.91 41.39 40.51 37.37 30.66 37.61 29.50 35.68 39.17 40.33 43.31 44.08 43.02 43.00 43.42 42.94 42.10 41.03 39.71 40.09 39.92 40.42 40.04 40.14 39.22 39.49 38.92 37.63 36.96 36.64 36.30 37.29 37.05 37.65 38.70 39.78 38.99 38.95 39.13 39.47 40.31 41.08 40.58 41.00 42.02 41.87 42.30 41.35
38.45 43.08 40.68 40.42 35.73 32.75 34.02 29.78 32.72 38.82 37.80 40.84 42.19 43.07 43.26 42.71 41.44 40.66 40.40 40.58 40.18 40.01 38.82 38.57 38.74 38.19 37.81 36.85 36.55 35.79 35.30 35.65 35.98 35.97 36.08 37.27 38.84 39.13 39.08 39.53 39.66 39.47 40.16 40.07 40.29 40.52 40.90 42.57 42.33
44.35 41.20 38.27 35.74 33.64 26.46 32.89 33.07 34.86 33.79 40.32 41.28 42.67 42.36 42.20 41.07 40.46 40.66 41.06 40.94 38.70 38.02 37.39 36.92 37.01 36.97 37.09 36.43 35.91 35.37 34.25 33.91 33.91 34.70 35.44 35.53 37.65 38.03 38.36 38.96 39.13 39.50 39.39 39.28 39.93 40.57 39.77 39.99 40.52
41.08 37.05 27.44 24.50 23.32 26.65 36.50 33.34 36.81 38.49 41.93 43.67 42.23 41.89 40.85 40.48 39.98 39.90 39.33 38.38 37.21 36.82 36.11 36.01 36.02 35.70 36.08 35.42 35.16 35.12 34.58 34.19 33.36 33.95 35.28 34.14 35.82 35.79 36.65 37.79 37.30 37.45 38.51 38.77 39.11 38.47 38.22 37.72 37.99
38.52 38.24 30.25 23.15 23.20 28.30 35.66 28.31 34.86 42.38 43.97 46.05 45.24 43.65 40.74 39.63 40.29 39.69 39.21 37.97 37.13 36.32 35.31 35.47 35.89 35.65 36.03 35.64 35.16 35.05 35.78 35.53 34.14 36.51 35.12 34.14 35.18 35.57 36.53 36.27 36.05 36.39 36.84 38.16 38.15 37.31 37.18 37.03 36.05
37.24 34.32 39.71 32.77 32.77 24.74 28.56 33.51 39.84 42.41 41.96 43.70 42.50 40.85 39.28 39.43 39.47 39.83 38.79 37.26 36.02 35.28 34.60 34.31 34.73 35.23 36.16 37.17 36.93 37.39 37.04 36.72 35.88 36.53 36.26 34.48 35.03 35.64 34.79 34.18 33.35 34.91 35.33 36.51 37.63 36.62 36.42 36.49 34.90
39.05 40.95 32.62 31.12 25.20 23.73 28.88 30.20 30.54 36.09 38.05 40.89 40.00 38.92 38.63 39.33 39.42 39.10 37.12 36.29 35.87 35.37 34.45 34.22 34.90 35.11 36.94 37.82 37.59 37.27 37.16 35.97 36.59 35.92 34.19 33.15 33.44 34.05 31.29 32.32 32.28 32.60 33.50 34.32 36.31 35.18 34.85 35.39 32.39
37.23 36.80 37.21 36.12 32.67 26.38 24.99 26.57 36.22 38.79 40.54 39.89 40.12 39.63 38.71 38.99 38.69 37.80 36.29 36.31 35.64 35.06 33.98 33.85 34.57 35.57 37.00 37.55 37.28 36.45 35.56 34.09 33.59 32.46 32.43 32.50 32.09 31.31 28.69 28.54 29.23 29.90 31.55 32.89 32.95 33.22 31.88 31.91 29.75
38.98 38.27 37.68 30.16 27.64 29.65 28.38 29.62 41.96 41.51 42.63 42.63 41.33 40.11 39.33 39.50 38.80 38.17 36.10 35.48 34.96 34.44 34.13 33.78 34.12 35.05 35.20 36.52 36.63 33.26 33.08 32.54 31.68 31.02 30.67 30.79 29.63 29.21 28.81 27.85 27.65 29.17 30.42 30.51 30.43 28.67 28.49 27.74 27.92